GFSSGP_850_temp_000.txt.gz
Temp
18 19 19 20 24 25 24 24 24 24 25 22 22 24 23 22 22 22 16 15 16 15 14 15 16 17 17 16 16 15 16 16 17 15 15 16 15 15 14 15 15 15 15 15 15 15 15 15 15
18 19 19 22 24 24 24 24 24 24 23 21 21 22 23 21 19 17 17 14 15 14 14 13 15 16 16 17 17 17 16 16 19 17 15 15 14 14 15 13 14 15 15 15 15 16 15 15 15
19 19 22 24 24 24 24 23 23 23 21 22 22 21 21 19 17 16 14 14 14 14 13 14 15 15 16 17 17 17 17 17 17 16 16 15 15 14 14 14 15 15 15 15 15 15 15 15 15
18 20 21 24 23 21 22 22 21 23 21 22 22 21 16 14 14 15 14 14 14 14 14 14 15 15 15 16 16 16 16 16 16 16 16 15 15 15 14 14 15 14 14 14 14 14 13 13 15
19 21 23 23 21 22 22 21 21 23 22 21 21 20 17 14 14 15 14 14 14 14 14 13 15 15 15 16 16 15 15 16 16 15 16 16 15 15 15 14 14 14 14 14 14 14 14 14 13
22 22 23 22 21 22 22 21 22 22 21 19 21 20 17 13 14 14 14 13 13 13 13 13 15 15 16 16 15 15 15 15 15 15 15 15 15 14 14 14 14 14 14 14 14 14 14 13 12
23 24 22 22 22 22 22 20 20 21 21 18 17 21 17 14 15 15 14 15 16 16 16 16 16 16 16 15 15 15 15 14 14 14 14 14 14 14 14 15 15 15 14 13 13 13 13 13 12
21 24 22 22 22 21 21 21 19 19 19 16 16 21 19 13 14 14 15 15 15 15 16 16 15 15 15 14 14 14 14 14 14 13 13 13 13 13 13 12 13 13 14 13 12 12 12 12 13
19 23 22 21 22 21 21 22 18 17 18 16 15 16 14 14 14 14 13 13 14 15 16 15 15 15 14 14 14 14 14 13 13 13 13 13 12 13 12 11 11 11 11 12 12 12 11 12 12
23 22 21 20 21 22 21 21 19 19 19 17 15 13 14 14 14 14 14 14 15 15 15 15 15 14 13 13 14 13 12 12 12 12 13 13 13 13 12 12 10 10 10 10 10 11 11 11 11
21 21 20 20 19 20 21 20 18 20 21 19 18 15 14 14 14 14 14 14 13 14 14 14 14 13 13 13 13 12 13 13 13 13 13 13 13 13 13 13 11 10 9 9 9 10 10 11 11
20 19 19 19 18 19 20 19 20 19 19 16 16 15 14 15 14 14 13 13 12 13 13 13 13 12 13 13 13 13 13 13 13 13 13 13 13 13 12 12 9 9 9 9 9 8 10 9 11
20 19 18 18 18 18 17 19 18 19 16 14 14 14 14 14 14 13 13 13 13 12 13 13 13 12 13 13 13 13 14 13 13 13 13 13 12 13 12 11 11 11 9 10 10 10 10 9 10
18 19 19 18 18 18 19 19 18 18 15 15 14 15 15 14 14 13 12 12 11 12 12 12 12 12 12 12 13 13 13 13 13 13 13 12 12 12 11 11 10 10 9 10 10 10 10 10 10
18 20 19 19 19 19 18 20 20 19 16 16 15 15 14 14 13 13 13 12 11 12 12 12 12 12 12 12 12 12 12 12 12 12 11 11 11 10 10 10 10 9 9 9 9 9 9 10 10
19 20 20 20 19 18 18 21 21 19 17 17 17 16 15 14 13 13 13 12 12 11 12 12 12 12 12 12 12 12 12 11 10 10 10 10 10 9 8 8 9 8 8 9 8 8 9 9 9
20 20 19 19 19 18 19 20 21 19 17 18 18 18 16 15 13 13 12 12 12 11 12 12 12 12 11 11 11 11 11 9 9 9 8 8 9 9 8 8 7 8 8 8 8 8 8 8 8
18 19 18 18 20 18 19 20 22 21 20 18 18 18 18 16 15 13 11 11 11 12 11 11 11 11 10 10 10 9 8 8 7 7 7 7 7 7 7 6 7 6 5 6 7 7 6 6 6
17 18 19 20 18 16 19 19 21 21 20 19 18 17 17 17 15 13 11 10 11 11 11 10 10 10 10 8 7 8 7 7 6 7 7 6 5 5 5 6 5 5 5 4 4 4 5 5 4
18 18 19 19 18 17 18 19 21 20 19 17 17 18 17 16 14 12 11 10 10 10 10 9 8 9 9 8 8 8 7 7 7 6 5 5 5 5 5 5 5 5 5 5 4 4 4 5 4
19 18 18 17 18 19 18 22 22 20 19 17 17 16 15 14 14 13 11 10 9 9 9 8 8 8 8 8 8 7 7 7 6 7 6 6 5 5 4 4 4 4 4 4 4 4 4 4 5
17 16 16 16 16 19 16 20 21 20 20 20 18 17 16 15 13 12 12 10 9 9 8 8 8 8 8 8 7 8 8 8 8 6 6 6 5 5 4 4 4 3 4 4 4 4 4 4 4
16 16 16 15 15 16 17 17 21 20 20 20 19 17 16 15 13 13 12 11 10 9 8 9 8 7 7 7 8 6 6 6 6 5 5 5 5 5 4 4 3 3 3 3 3 3 3 3 3
15 16 17 15 15 15 16 17 21 20 19 19 19 17 15 15 14 14 14 13 11 9 9 9 8 7 6 7 7 7 6 6 5 5 4 4 4 4 3 3 2 2 2 2 2 2 2 2 3
17 17 17 16 17 17 16 16 19 20 19 18 17 16 15 14 13 13 12 11 11 10 9 9 8 7 6 6 6 6 6 4 4 3 3 3 2 2 2 1 1 1 1 1 1 1 1 1 2
15 15 14 12 15 16 17 15 20 19 18 17 15 15 14 14 14 13 12 11 10 11 9 7 7 7 6 6 6 5 5 3 2 3 3 2 2 1 1 1 1 0 -0 -0 -0 0 0 1 1
14 15 14 13 9 11 16 18 19 20 18 17 17 16 15 14 13 13 12 11 12 11 10 8 7 6 5 6 5 4 4 3 3 2 2 1 1 -0 -0 0 1 0 -0 -1 -1 -1 -1 -0 0
14 14 13 13 11 12 17 17 18 19 18 18 17 16 14 13 13 12 12 11 10 10 9 7 8 7 6 5 5 4 3 3 2 2 1 1 1 -0 -1 -1 -2 -3 -3 -3 -3 -2 -2 -1 -1
14 14 13 13 13 12 13 16 19 18 18 17 17 15 14 14 13 12 11 11 10 8 9 9 7 6 5 4 4 3 2 2 1 1 0 -1 -1 -2 -3 -3 -4 -4 -4 -4 -4 -3 -3 -3 -2
13 13 13 12 13 13 10 12 17 18 17 15 15 15 14 13 12 12 11 10 8 8 8 7 5 4 4 3 3 2 2 1 0 -1 -1 -2 -3 -3 -4 -4 -4 -4 -4 -4 -4 -4 -4 -4 -3

GFSSGP_850_temp_003.txt.gz
Temp
20 20 20 22 25 27 27 26 27 26 26 25 26 26 25 24 23 21 17 15 15 15 15 15 16 15 16 16 17 17 17 17 16 15 17 16 15 15 14 15 16 15 13 14 15 15 15 15 15
18 19 21 24 25 26 27 26 26 26 25 24 24 25 25 22 21 19 19 15 15 15 15 15 15 15 15 16 16 17 17 16 16 16 15 15 16 16 15 15 16 16 15 14 14 14 14 15 14
19 20 23 26 26 26 25 26 26 25 24 25 25 24 24 21 19 18 16 16 15 14 14 15 15 15 15 15 15 15 15 16 16 15 15 15 15 15 15 15 16 16 15 14 13 15 14 14 14
21 22 24 25 26 25 25 25 24 26 25 24 25 23 18 16 18 17 16 16 15 14 14 15 15 15 15 15 15 15 15 15 15 15 16 15 14 14 14 14 15 14 14 14 13 13 14 14 14
21 24 26 25 24 25 25 24 25 26 25 24 24 24 19 15 15 15 15 14 15 14 14 14 15 15 15 15 15 15 15 15 15 15 15 15 15 14 13 13 13 13 12 11 13 14 14 14 14
24 25 26 24 24 25 25 24 25 24 24 23 24 22 20 15 15 16 16 16 16 15 14 14 15 15 15 15 15 14 14 14 14 14 14 14 15 15 14 14 13 14 13 13 13 13 13 13 13
25 27 25 24 24 24 24 23 24 24 24 22 22 24 20 17 16 16 16 16 15 15 15 14 14 15 15 15 15 14 14 14 13 13 13 14 14 15 15 14 13 13 13 12 12 12 12 12 12
24 26 25 25 24 23 23 23 23 23 23 21 21 24 22 18 17 16 15 15 15 15 15 15 15 14 13 13 14 14 14 14 14 13 13 13 13 14 15 15 15 14 13 12 11 11 11 12 12
24 26 24 24 24 24 24 24 22 21 22 21 21 21 19 17 15 16 16 17 16 15 15 14 14 13 13 14 13 14 14 14 13 14 14 14 12 13 13 13 14 14 13 12 12 11 10 11 11
25 25 23 24 24 24 24 24 23 22 22 22 20 18 17 17 17 18 18 18 16 15 15 14 16 14 14 13 13 13 12 12 12 12 13 11 13 11 11 12 12 12 12 12 11 10 10 9 10
24 24 23 23 22 22 23 23 22 23 23 23 22 20 18 18 18 18 18 17 16 15 14 14 14 14 13 13 13 13 13 12 11 13 12 13 13 13 13 12 11 11 11 12 14 12 10 9 9
23 22 22 22 21 22 23 22 22 22 23 20 21 20 18 18 18 17 17 16 16 15 14 13 14 13 13 13 13 12 12 11 11 11 11 13 13 14 13 13 12 12 11 12 12 10 9 8 9
23 22 22 21 21 21 21 22 22 22 21 19 19 18 18 18 18 17 16 15 15 14 13 12 12 12 12 11 11 11 10 11 10 10 12 10 10 12 11 11 11 11 11 11 10 9 9 10 9
22 22 22 22 22 21 21 22 22 22 20 19 19 18 18 18 17 17 16 15 14 14 13 12 12 12 12 12 12 12 11 11 11 11 12 12 11 12 9 9 9 9 9 9 9 9 9 9 10
21 22 23 22 22 22 21 23 22 22 20 20 19 18 19 18 17 17 16 16 15 14 13 12 12 13 13 13 12 11 11 10 9 10 11 11 11 11 11 9 8 8 10 9 10 10 10 10 10
22 23 24 24 22 22 22 23 25 23 21 20 20 20 19 18 18 17 16 15 14 14 13 12 12 11 11 11 11 11 10 9 9 9 10 11 11 11 10 8 8 10 9 9 8 8 8 8 8
24 23 22 23 23 22 22 22 25 23 22 21 21 21 21 19 18 17 17 15 14 13 13 12 11 11 10 10 11 10 10 10 9 8 8 9 9 9 9 8 7 8 7 7 8 7 7 8 7
21 22 22 22 24 22 22 23 24 24 24 23 23 22 21 21 19 18 16 14 13 13 12 11 11 10 10 10 10 9 9 9 9 9 8 7 7 7 7 7 6 6 6 6 5 5 6 6 6
21 21 22 23 22 20 21 22 24 25 24 23 22 21 21 20 20 18 16 14 13 12 11 11 11 10 10 10 10 10 9 9 9 9 8 7 7 7 7 7 7 6 6 6 5 5 5 6 6
22 22 22 23 23 21 22 23 25 23 22 21 21 21 20 19 19 18 16 14 13 12 11 11 11 10 9 10 10 10 10 10 9 9 7 7 7 7 7 7 6 6 6 6 6 5 5 6 6
22 20 20 20 21 23 22 24 24 23 23 21 20 19 19 18 18 17 15 14 13 12 12 11 11 11 10 10 10 9 8 8 8 8 8 7 6 6 6 6 6 6 5 5 6 5 5 5 5
20 20 19 19 20 21 22 22 24 23 23 22 21 20 19 18 17 16 15 15 13 12 11 11 11 11 10 9 9 9 9 9 10 10 9 8 7 6 6 6 6 5 5 5 5 5 5 4 5
19 19 19 20 19 20 21 21 25 23 22 22 22 20 19 18 17 16 16 15 14 13 11 11 10 10 10 10 8 8 8 8 8 8 8 7 6 6 5 5 5 5 4 4 4 4 4 4 4
18 20 22 20 19 18 21 20 23 24 22 21 21 20 18 17 16 16 16 15 14 13 11 10 10 10 10 9 8 7 7 7 7 7 6 6 5 5 5 4 4 3 3 3 3 3 3 3 3
20 19 19 18 19 20 20 19 21 23 22 21 20 19 18 17 16 16 15 15 14 13 12 11 10 10 10 9 8 7 6 6 6 5 5 5 4 3 3 3 2 2 2 2 2 1 1 2 2
18 18 16 14 17 18 20 19 22 23 21 20 18 17 17 17 15 15 14 14 13 13 12 12 11 10 9 9 8 7 6 5 4 4 4 4 3 2 2 1 1 1 0 0 0 0 0 1 1
18 17 17 15 16 14 18 21 22 23 22 20 19 19 18 16 15 15 14 14 13 12 12 12 11 10 10 8 8 6 4 3 3 4 2 2 2 1 1 0 0 -0 -0 -0 -1 -1 -1 -0 -0
17 17 15 15 12 14 18 19 20 21 22 21 20 18 17 16 16 15 14 13 12 12 12 11 10 10 9 8 6 4 3 2 3 3 3 2 1 0 0 -0 -1 -1 -1 -1 -1 -1 -1 -1 -1
17 17 16 17 16 14 14 17 21 20 20 20 19 17 17 16 15 14 13 13 12 11 10 10 9 8 7 6 4 2 2 1 3 2 0 0 0 -0 -1 -1 -1 -1 -2 -2 -2 -2 -2 -2 -2
17 17 17 14 14 15 14 14 20 20 20 18 18 18 17 16 14 13 13 12 11 11 10 9 7 6 6 4 2 1 1 2 1 0 -0 -0 -1 -1 -2 -2 -2 -2 -2 -2 -2 -2 -2 -2 -2

GFSSGP_850_temp_006.txt.gz
Temp
20 21 21 22 23 25 25 27 28 27 26 25 26 25 23 22 22 18 17 16 15 15 16 17 17 17 17 16 16 15 15 16 16 16 16 15 15 15 16 17 18 15 14 15 15 14 14 15 15
21 20 21 23 23 24 25 27 26 26 25 25 26 23 20 21 20 18 16 15 15 15 15 16 16 16 16 16 16 16 15 15 15 15 16 15 15 15 14 15 16 15 16 16 17 15 13 14 14
20 20 22 25 24 24 24 26 26 26 25 25 26 22 18 20 20 18 17 15 15 15 15 16 16 16 16 16 16 16 16 15 15 15 14 15 15 14 14 15 15 14 14 15 13 13 13 13 13
21 22 22 24 25 25 25 25 26 26 25 25 26 22 18 19 19 17 17 15 15 15 17 17 17 17 17 16 16 16 16 16 16 15 14 14 14 14 14 15 14 14 14 13 13 13 13 12 12
21 23 24 25 24 25 25 25 26 26 26 25 25 17 18 17 17 17 16 16 16 17 17 17 17 16 16 16 16 15 15 15 16 16 16 16 16 15 14 14 13 14 14 13 14 16 13 12 13
23 25 25 24 24 25 25 25 26 25 25 25 17 15 18 17 17 17 17 17 17 16 16 16 16 16 15 15 15 15 15 15 15 15 15 15 15 16 15 14 14 15 15 14 13 13 12 12 13
24 25 25 25 24 24 24 24 25 25 24 24 20 16 15 18 17 17 18 17 16 16 15 15 15 15 14 14 14 14 14 15 15 15 15 14 14 15 15 15 15 15 15 14 12 12 12 12 13
24 27 25 25 24 23 24 24 24 24 23 23 23 22 16 18 17 17 16 17 17 16 16 16 16 15 14 14 14 14 14 14 14 14 14 14 13 14 13 13 13 13 14 13 12 12 12 11 11
25 25 24 24 24 24 24 25 23 22 23 22 22 22 19 17 17 17 17 17 17 16 15 15 15 14 13 14 14 13 13 13 13 13 14 13 12 13 12 13 12 12 12 12 12 12 12 11 11
26 25 24 24 25 24 25 24 23 23 24 23 22 20 19 18 18 18 19 19 18 16 15 14 15 15 15 14 14 13 13 12 12 12 12 11 11 11 12 12 11 12 12 12 11 11 11 11 11
24 23 24 24 22 23 23 24 23 23 24 23 23 21 20 19 19 19 19 19 17 16 15 14 15 15 14 13 14 13 13 13 12 11 11 12 12 13 12 12 11 12 12 12 12 12 13 11 10
23 23 23 23 22 22 23 22 23 23 23 22 22 21 20 19 19 19 19 18 17 16 15 15 16 16 15 13 13 13 12 12 11 13 13 13 13 13 13 13 13 13 13 12 13 13 12 11 10
24 23 23 22 22 22 22 23 23 23 23 21 21 20 20 20 19 19 18 18 17 16 15 14 16 15 15 13 14 13 13 13 13 13 13 12 11 12 12 13 12 12 12 11 11 11 11 10 10
23 23 23 23 23 23 22 23 23 23 23 21 21 20 20 19 19 19 17 17 16 15 15 14 14 14 14 12 13 14 13 13 12 12 13 12 12 11 10 9 10 10 11 10 9 9 9 9 10
23 23 24 24 24 23 23 23 23 23 22 21 21 20 20 20 19 19 18 17 16 16 15 13 13 13 13 12 13 12 11 10 10 11 12 12 12 12 11 10 9 8 10 10 10 10 9 9 9
23 24 24 25 24 23 23 22 25 24 23 22 21 21 20 20 20 19 18 17 17 16 15 13 13 12 13 12 11 11 11 10 10 9 11 11 11 11 10 9 8 9 7 7 8 9 9 9 9
25 23 23 24 25 24 23 22 24 24 24 23 22 22 22 21 20 19 19 18 16 15 14 13 13 12 12 11 11 11 10 10 10 9 9 10 10 10 9 8 8 8 7 6 7 7 7 7 8
21 22 23 23 24 23 22 22 24 24 24 25 24 23 22 22 22 20 19 18 16 15 14 13 12 12 11 11 11 10 10 10 10 9 9 9 8 9 9 7 7 7 7 6 6 6 6 5 6
22 22 23 23 24 23 22 23 24 25 24 24 23 22 22 21 21 21 19 17 16 14 13 12 12 11 11 10 10 10 10 9 9 9 9 8 8 8 8 7 7 7 7 6 6 6 5 5 5
22 22 22 22 23 22 22 23 24 24 23 22 22 21 20 20 19 19 18 17 15 14 13 12 12 11 11 10 10 10 10 10 10 9 9 8 8 7 7 7 7 6 6 6 6 6 5 5 5
21 21 20 20 21 23 23 24 24 23 22 21 20 20 20 19 18 18 17 16 15 14 13 12 12 12 11 11 10 10 10 10 10 9 9 8 8 7 7 7 6 6 6 5 5 5 5 5 5
19 21 19 20 20 19 22 21 24 24 22 22 21 20 20 19 18 17 17 16 15 15 14 13 12 12 11 11 11 10 10 10 9 10 9 9 8 7 6 6 6 6 5 5 5 5 5 5 4
19 19 19 21 21 20 22 21 23 24 23 22 22 21 19 18 18 17 16 16 16 15 14 13 12 12 11 11 11 10 10 9 9 9 9 8 8 7 7 6 5 5 5 5 5 4 4 4 3
20 20 21 23 20 18 22 21 21 23 23 23 22 21 19 18 17 16 16 16 15 15 14 13 12 12 11 11 11 10 10 9 8 8 8 8 7 6 6 5 5 5 4 4 4 3 3 3 3
20 19 17 17 18 18 21 20 21 23 24 22 21 19 18 17 16 16 15 15 14 14 14 13 12 12 11 11 10 10 10 9 8 7 7 6 6 5 5 4 4 4 3 3 2 2 2 2 2
18 18 16 14 16 16 18 18 22 24 23 21 20 19 18 18 17 16 16 15 14 13 13 13 12 12 12 11 11 10 9 8 7 6 5 5 5 4 3 2 2 2 2 2 1 1 1 1 0
18 17 18 15 14 14 16 20 22 24 23 21 20 20 18 17 17 16 15 14 14 13 12 12 12 11 11 11 10 10 9 8 7 5 4 4 3 2 2 0 1 0 1 0 -0 -0 -0 -1 -1
18 18 15 14 12 14 17 17 18 21 20 20 20 19 18 17 16 15 14 14 13 12 12 11 11 11 10 9 9 9 8 7 5 4 3 2 1 -0 -1 -1 -1 0 0 -0 -0 -1 -1 -1 -1
18 17 17 17 15 13 13 16 19 18 19 19 19 18 17 17 16 15 14 13 12 11 10 10 10 10 9 8 8 7 7 4 3 2 1 -1 -2 -2 -2 -1 -0 -0 -1 -1 -1 -2 -2 -2 -2
18 17 17 13 13 14 13 13 18 19 20 19 19 18 17 16 15 14 13 13 11 10 9 9 9 9 8 7 6 5 4 2 2 1 0 -1 -2 -2 -1 -1 -1 -1 -2 -2 -2 -2 -2 -3 -3

GFSSGP_850_temp_009.txt.gz
Temp
21 21 21 21 17 15 17 20 22 21 22 21 21 20 18 18 17 15 15 16 16 15 15 17 17 17 17 17 16 16 16 15 16 15 15 15 15 15 15 16 16 16 17 18 15 17 16 15 14
21 21 21 22 16 16 18 22 20 21 24 23 22 21 19 17 17 16 15 15 15 14 15 16 17 17 17 17 18 17 16 16 16 16 16 15 15 15 15 15 15 16 17 17 16 15 14 15 14
20 20 20 16 15 17 19 21 22 24 25 25 19 19 19 18 18 16 15 15 15 15 16 17 17 17 17 17 17 17 17 17 16 16 15 15 15 15 15 14 15 15 15 16 15 15 15 15 15
20 20 21 17 19 20 21 22 24 24 25 22 19 17 18 17 17 17 16 15 15 16 17 17 17 17 16 16 17 17 17 17 17 16 16 15 15 15 15 15 16 15 15 14 14 14 14 14 14
21 21 17 18 20 21 20 23 25 21 18 18 20 16 17 17 17 16 16 16 17 16 16 16 16 16 16 16 17 16 16 16 16 16 16 16 16 15 15 14 15 15 15 14 14 14 14 14 13
21 21 16 18 19 20 21 23 23 22 21 19 17 17 17 18 17 17 16 16 16 16 15 15 15 15 15 15 16 16 16 15 15 15 15 15 15 14 13 13 14 14 14 14 14 15 15 13 14
19 16 17 17 18 20 22 24 22 21 22 20 20 15 16 18 17 17 17 16 16 16 15 15 15 15 15 15 14 14 15 15 15 14 14 14 14 14 13 13 13 13 13 13 14 15 14 13 13
23 17 20 19 18 20 23 23 23 23 22 22 21 15 16 18 17 17 17 16 16 16 15 15 15 14 15 15 14 14 14 13 13 14 13 14 14 14 14 13 12 11 11 12 12 13 13 13 12
24 16 16 19 19 21 23 21 23 23 22 22 20 19 20 18 17 16 17 17 16 16 16 16 15 15 15 14 14 14 13 13 13 13 13 13 13 13 13 13 12 11 11 11 12 11 11 12 12
20 15 20 20 20 19 21 22 23 22 22 21 20 18 18 18 17 17 18 17 17 17 17 17 17 16 15 13 14 13 13 13 13 14 13 13 13 14 14 14 13 13 12 12 12 12 11 11 11
22 18 20 20 22 22 21 21 22 22 20 21 20 19 19 18 18 19 18 17 17 17 17 17 17 16 15 13 13 13 13 13 12 13 13 12 12 13 14 14 14 13 12 12 11 11 12 11 10
20 22 22 22 22 22 21 22 22 22 21 22 21 20 20 19 19 19 19 18 17 16 17 17 16 16 15 14 14 13 13 13 14 14 13 13 14 14 13 13 13 13 13 13 12 11 11 11 11
21 22 22 22 22 22 22 21 20 22 22 21 21 20 20 20 19 19 18 18 17 16 16 15 16 16 15 14 14 13 13 13 13 13 13 13 13 12 12 12 12 12 12 12 12 12 11 11 10
22 22 22 23 22 23 21 20 22 23 22 21 21 20 20 19 19 19 18 18 17 17 16 15 15 15 15 15 14 13 13 13 12 13 13 12 12 11 12 11 11 11 11 10 10 10 10 10 10
22 20 20 22 22 22 22 19 19 23 22 21 21 20 20 19 19 19 19 18 17 16 16 15 15 14 14 13 14 13 13 13 13 13 13 12 12 11 11 11 11 11 10 10 10 9 9 9 9
21 20 18 20 21 22 21 17 19 23 22 21 21 21 20 20 20 19 19 18 18 17 16 15 15 14 13 13 13 12 12 12 12 12 12 11 12 11 10 10 10 9 10 10 9 9 9 8 8
18 17 19 20 22 22 21 18 20 23 22 21 21 21 21 20 20 19 19 19 18 17 16 15 14 13 13 12 11 11 11 11 11 10 11 11 11 11 10 9 9 8 8 8 8 8 8 8 7
17 18 19 19 20 18 18 17 18 23 23 21 20 20 21 20 20 20 19 19 17 17 16 15 14 13 12 12 11 11 11 10 10 10 9 10 10 10 9 8 8 7 7 7 7 7 7 6 6
19 18 18 18 19 17 17 16 18 20 21 20 20 20 20 20 19 20 19 18 17 16 15 15 14 13 12 12 11 11 11 11 10 10 9 9 9 9 9 8 7 7 7 6 6 6 6 6 6
18 18 16 18 18 18 17 17 17 19 19 20 20 20 19 19 18 18 17 17 16 16 15 15 14 13 12 12 11 11 11 10 10 10 9 9 9 9 8 8 7 7 7 6 6 6 6 5 5
17 17 16 16 17 17 18 17 18 19 20 20 20 20 19 19 18 18 17 17 16 16 15 15 14 13 12 12 11 11 10 10 10 10 9 9 9 9 8 7 7 6 6 6 6 5 5 5 5
16 17 17 16 15 15 18 14 19 18 17 18 20 19 18 18 17 17 16 16 16 15 15 14 14 13 13 12 11 11 11 11 10 10 10 9 9 8 8 7 7 6 6 5 5 5 5 4 4
17 18 16 16 15 17 17 15 17 17 18 17 17 18 18 17 17 16 16 16 15 15 14 14 13 13 13 13 11 11 11 11 11 10 9 9 8 8 7 7 6 6 5 5 4 4 5 4 4
18 17 16 16 15 12 16 15 15 19 19 18 17 18 18 17 17 16 16 16 15 15 14 14 13 13 13 12 12 12 11 11 10 10 9 9 8 7 7 6 6 5 5 4 4 3 3 3 3
15 13 10 11 11 12 16 15 15 18 18 17 16 18 18 18 17 16 16 15 14 14 14 13 12 12 12 11 11 11 11 11 10 10 9 8 8 6 6 5 4 4 4 3 2 1 1 1 2
14 16 9 11 10 11 15 15 17 18 19 19 19 18 17 17 17 16 15 14 14 13 12 12 12 12 12 12 11 11 10 10 10 10 9 7 6 5 4 4 3 2 2 1 1 -1 0 1 1
15 12 16 13 11 8 11 15 18 18 18 18 17 18 18 17 16 16 15 14 13 13 12 11 11 11 10 10 10 10 10 9 9 8 7 6 5 4 3 2 1 1 0 -1 -1 -0 0 -0 -1
16 16 11 8 9 11 13 13 14 15 16 16 15 16 17 16 15 14 13 13 12 12 12 12 11 10 10 9 9 9 9 8 8 7 5 4 3 2 1 -1 -1 -1 -2 -1 -0 -0 -1 -1 -2
14 13 14 14 11 10 9 11 15 15 15 14 16 16 15 14 13 12 12 12 11 10 10 10 9 10 8 8 8 8 7 7 6 5 3 3 2 0 -0 -1 -2 -2 -2 -1 -1 -2 -2 -2 -2
16 14 14 9 10 8 8 11 15 14 15 17 16 13 14 13 13 12 11 10 10 9 9 9 9 8 7 7 7 6 6 5 3 3 2 2 1 0 -1 -2 -2 -2 -1 -2 -2 -2 -3 -3 -3

GFSSGP_850_temp_012.txt.gz
Temp
20 20 21 22 16 13 15 20 21 20 19 18 19 18 16 17 16 15 14 15 16 16 16 17 17 18 17 18 17 16 16 16 17 16 16 16 16 16 16 16 15 16 16 15 15 16 17 15 15
20 20 21 21 14 14 16 19 21 20 19 19 18 18 17 15 16 15 15 15 15 16 16 17 17 17 17 18 17 17 17 16 16 17 16 16 15 15 15 15 15 15 15 16 15 15 15 15 15
20 21 21 13 12 15 18 20 21 19 19 20 18 17 17 16 15 16 15 16 15 16 15 16 17 17 18 18 18 18 17 17 16 16 16 16 15 15 15 15 15 15 15 15 15 15 15 15 15
21 21 20 15 18 20 20 19 20 21 20 19 18 15 16 17 17 16 16 16 16 16 15 16 17 17 17 17 17 17 16 16 16 16 16 15 14 14 14 14 14 15 15 14 14 14 14 14 14
21 20 14 16 18 20 19 20 20 17 17 18 18 16 16 17 18 18 17 16 16 16 16 16 16 16 16 16 16 16 16 16 16 16 16 15 15 15 14 14 15 14 14 14 14 14 14 14 14
20 19 14 16 18 20 20 22 21 18 17 18 18 17 16 16 17 17 16 16 16 16 16 16 15 15 16 15 16 16 16 16 16 16 16 15 14 14 14 14 14 14 13 13 14 14 14 14 14
17 14 15 17 17 20 21 22 20 20 20 19 20 15 16 16 17 16 16 15 16 15 15 15 14 14 15 15 15 15 15 15 15 15 15 15 15 15 14 14 14 14 14 14 14 13 13 13 13
22 15 16 17 17 20 21 22 22 22 20 20 20 15 16 17 16 16 16 16 16 15 15 15 14 14 14 15 15 14 14 14 14 14 15 15 15 15 15 15 15 14 14 13 13 13 12 12 12
21 14 14 18 18 19 21 21 22 22 21 20 20 21 20 18 16 16 16 16 15 15 15 15 15 15 15 14 14 14 14 14 14 14 14 14 14 14 14 14 14 13 12 12 12 12 12 11 11
18 13 19 19 18 19 19 20 21 21 20 18 19 20 19 18 17 17 16 15 15 15 16 15 16 16 15 14 13 13 13 14 14 14 14 14 14 14 14 13 13 13 12 12 11 11 11 11 11
19 17 19 19 21 21 20 21 22 21 19 18 18 19 19 19 18 18 17 16 16 16 17 17 17 16 15 14 13 13 13 13 13 13 13 13 13 13 12 13 13 13 12 12 12 11 11 11 10
19 20 21 21 21 21 20 21 20 21 21 21 20 20 19 18 19 18 18 16 16 17 17 17 16 16 14 14 13 13 12 13 13 12 12 12 12 12 13 13 13 12 12 13 12 12 12 11 10
20 21 21 22 22 21 21 21 20 21 21 21 20 19 19 19 18 17 17 17 17 17 17 17 16 15 15 13 13 13 13 13 13 13 13 13 13 13 13 13 13 13 12 12 12 12 12 12 11
21 21 21 21 21 21 20 19 20 22 21 21 20 19 19 19 19 18 18 18 18 18 17 17 16 15 15 14 13 12 12 12 12 12 12 12 12 12 12 12 12 12 12 12 11 11 11 11 11
21 20 18 20 21 20 21 19 18 22 21 21 20 20 20 20 19 19 19 18 18 18 17 17 16 15 15 14 14 13 13 12 12 12 12 12 12 12 11 11 11 11 10 10 10 10 10 10 10
19 17 17 18 19 21 20 17 19 21 21 21 20 20 20 20 19 19 19 19 18 18 17 16 16 15 15 15 14 13 13 12 12 12 12 12 12 11 11 10 9 9 9 9 10 9 9 9 9
15 16 17 18 19 19 20 17 18 21 20 21 20 20 20 20 19 19 19 19 18 17 17 16 15 15 15 14 13 13 12 12 11 12 11 11 11 10 10 10 9 8 8 8 9 8 8 8 8
16 16 17 18 18 16 16 16 16 19 20 19 20 18 19 19 20 20 19 18 17 17 16 16 15 15 14 13 13 12 12 11 11 11 11 11 10 10 9 9 9 8 8 8 8 8 7 7 7
18 16 16 17 17 16 15 14 15 18 17 17 18 18 18 19 19 20 20 18 17 17 16 16 15 15 14 13 13 12 12 11 11 10 10 10 10 10 9 9 8 8 8 7 7 7 6 6 6
16 17 15 15 17 16 15 15 14 16 16 18 18 17 17 17 18 18 18 17 17 16 16 16 15 15 14 14 14 13 12 11 11 11 10 10 9 9 9 9 9 8 7 7 6 6 6 6 5
16 16 16 15 14 15 16 16 17 18 17 17 18 18 18 18 17 17 17 17 16 16 16 15 15 14 14 13 13 12 12 11 11 11 11 10 10 9 9 9 8 8 7 7 6 6 6 5 5
15 16 16 15 14 14 16 13 16 17 17 17 17 18 18 18 17 17 16 16 16 15 15 15 14 14 13 13 12 12 11 11 11 11 11 10 10 9 9 8 8 7 7 6 6 5 5 5 4
15 15 15 15 13 14 14 14 16 18 17 17 14 16 17 17 17 16 16 15 15 15 15 14 14 14 13 13 12 12 12 11 11 11 11 10 10 9 9 8 7 7 6 6 5 4 3 3 3
16 15 14 14 13 11 15 14 14 14 15 14 15 17 17 16 16 16 16 16 15 15 14 14 13 12 12 12 12 11 11 11 11 11 11 10 10 9 9 8 7 6 6 5 4 3 2 2 2
13 11 9 11 10 11 14 13 14 15 16 16 16 16 17 17 17 16 16 15 14 14 14 13 12 12 12 12 11 11 11 10 10 10 10 10 9 9 8 7 6 5 4 4 3 2 0 -0 -0
14 13 8 11 10 10 12 13 15 15 16 17 17 17 17 16 16 15 14 14 13 12 12 12 12 12 11 11 11 11 10 9 9 9 9 9 7 6 6 5 4 4 3 3 0 -1 -1 -0 -2
15 12 14 11 9 8 10 13 15 15 14 15 16 16 16 15 14 13 12 12 12 12 12 11 10 10 10 10 10 9 9 8 8 8 8 8 6 5 4 4 2 3 1 0 -0 -1 -1 -1 -0
16 14 11 7 8 10 11 11 12 14 14 14 13 13 13 12 12 12 12 11 11 10 10 10 10 10 10 8 7 7 7 7 7 6 5 5 4 3 2 1 -1 -0 -1 -2 -2 -1 -1 -1 -1
12 11 12 12 8 8 8 9 11 14 13 11 13 13 12 12 11 11 11 11 10 10 9 8 8 7 7 7 6 6 6 6 6 6 5 4 2 2 1 -0 -0 -0 -1 -1 -1 -1 -2 -2 -2
14 12 11 6 10 7 8 10 14 12 13 13 12 11 11 11 10 10 10 9 9 9 8 8 8 7 6 5 5 5 5 5 4 3 3 2 2 1 0 -0 -1 -1 -2 -2 -2 -2 -2 -3 -3

GFSSGP_850_temp_015.txt.gz
Temp
20 20 21 21 16 12 15 19 19 18 16 17 19 18 16 15 16 15 14 15 15 16 16 17 17 17 17 18 17 17 17 16 16 16 16 16 16 16 16 15 15 16 15 15 15 15 15 15 15
20 21 21 20 14 14 16 17 17 17 17 18 17 17 16 15 15 14 14 14 15 15 16 17 17 17 17 18 16 16 16 16 16 16 16 15 15 15 15 15 15 14 15 14 14 14 15 14 15
20 21 21 12 11 15 17 19 17 17 17 18 17 16 16 15 15 15 15 14 15 15 16 16 17 17 17 17 17 17 17 17 16 17 16 16 15 15 15 15 14 14 14 14 13 13 14 14 15
21 21 19 14 17 19 19 17 18 17 18 18 17 15 16 16 16 16 15 15 16 16 16 16 17 17 17 17 17 17 17 17 17 17 16 16 15 15 14 15 16 14 14 14 13 14 14 14 14
21 20 13 15 18 19 17 19 19 16 17 17 17 15 15 16 17 16 16 16 17 17 17 16 16 16 17 17 17 17 17 16 16 16 17 16 16 15 14 14 14 14 14 14 13 14 14 14 14
20 18 14 14 16 19 19 20 19 17 17 18 17 16 16 15 16 16 16 17 16 17 16 16 16 16 16 16 16 16 16 16 16 16 15 15 15 15 15 15 15 15 15 14 14 14 14 15 15
17 13 14 15 18 19 20 21 19 18 18 19 19 14 15 16 16 16 16 16 17 17 17 17 16 16 16 16 16 15 15 15 15 15 15 15 14 14 14 14 14 14 14 13 13 13 13 13 14
20 13 15 16 17 19 19 21 20 20 19 19 18 14 15 16 16 16 15 15 16 16 16 16 16 17 17 16 15 14 14 14 14 14 15 15 15 15 14 14 14 13 13 12 12 12 12 12 13
20 12 14 18 18 19 19 20 21 20 20 19 19 19 19 16 16 16 15 15 15 15 15 16 16 16 16 15 14 13 13 13 13 14 14 14 13 13 13 13 13 13 13 12 12 12 12 11 11
16 12 17 18 18 18 19 20 20 19 18 18 19 20 18 16 16 16 15 15 16 16 16 15 15 16 16 14 14 13 13 12 13 13 13 13 13 13 13 13 13 13 13 12 11 11 11 11 11
18 15 18 19 20 19 19 20 20 18 17 19 20 19 18 17 16 16 16 16 16 16 15 16 15 16 16 15 13 13 12 13 13 13 13 13 13 13 14 14 14 14 13 13 12 12 12 11 12
18 19 19 20 20 20 19 20 20 20 21 21 21 20 19 18 17 17 16 16 16 16 16 16 16 16 16 15 14 13 13 13 13 13 13 13 13 13 13 13 13 13 13 13 13 13 12 12 12
19 20 20 21 21 21 20 20 20 21 21 20 19 19 19 19 19 18 17 17 16 16 16 17 17 16 16 16 15 14 13 13 12 12 12 12 12 13 13 12 12 13 13 12 12 12 12 11 11
20 20 20 21 21 20 19 19 20 21 21 20 19 19 19 18 18 18 17 18 17 17 17 17 17 16 16 15 15 14 13 12 12 11 11 11 11 12 12 12 11 11 11 11 11 11 11 11 11
20 19 17 19 20 19 20 18 17 20 20 20 20 19 19 19 18 18 18 18 18 18 17 17 17 16 15 15 14 14 13 12 12 11 11 11 11 11 11 11 11 11 10 10 10 10 10 10 10
16 15 16 17 18 19 19 15 18 20 20 19 19 19 18 19 19 19 18 18 18 18 17 17 16 16 15 15 14 14 13 13 13 12 12 11 11 11 11 11 10 10 10 10 9 9 9 9 9
13 15 16 17 17 17 18 16 18 20 19 20 19 19 19 19 19 19 18 18 18 17 17 17 16 15 15 15 14 14 13 13 12 12 12 11 11 11 10 10 10 10 9 9 9 9 9 9 8
15 16 15 16 16 14 15 14 14 17 17 18 19 19 18 19 19 19 19 18 17 17 16 16 16 15 14 14 14 14 13 13 12 12 12 11 11 10 10 10 9 9 9 9 9 8 8 8 8
17 16 15 16 16 15 14 12 14 14 16 16 17 16 17 18 19 20 19 18 17 17 16 16 15 15 14 14 14 13 13 13 12 12 12 11 11 11 10 10 9 9 9 9 8 8 8 8 7
16 16 15 14 15 14 14 13 14 14 15 14 16 16 18 19 19 19 18 17 17 17 16 15 15 15 14 14 13 13 13 13 12 12 11 11 11 11 11 10 10 9 9 9 8 8 8 7 6
15 16 15 14 13 15 13 15 15 15 16 16 15 16 17 18 17 17 17 17 16 16 15 15 15 15 14 13 13 13 12 12 12 12 12 11 11 11 10 10 10 9 9 8 8 8 7 7 6
14 16 15 14 14 13 13 14 15 15 16 13 14 15 16 17 16 16 16 17 17 16 16 15 15 14 14 13 12 12 12 11 11 11 11 11 11 10 10 10 9 9 8 8 7 7 6 6 5
15 14 13 14 13 13 13 12 14 13 15 14 14 16 16 16 17 17 17 16 16 15 15 15 14 14 13 12 12 12 12 11 11 11 10 10 10 10 10 9 9 9 8 7 6 6 5 4 4
14 14 12 12 11 11 14 13 11 13 14 14 15 15 16 16 17 16 16 15 15 15 14 13 13 12 12 12 12 11 11 11 11 10 10 9 10 10 9 9 8 8 7 6 5 4 3 3 2
12 11 9 11 9 11 13 13 12 14 15 16 15 16 16 16 16 15 15 14 14 13 12 12 12 12 12 12 11 11 10 10 10 9 8 8 8 8 8 8 7 6 5 5 3 2 1 -0 0
14 12 8 11 9 9 11 12 13 14 15 16 15 15 15 16 15 14 13 13 12 12 12 11 11 11 11 10 10 10 9 9 8 7 7 7 7 7 6 5 4 3 2 0 -0 -1 -0 -0 -1
14 11 12 9 8 7 9 12 13 13 12 13 13 13 12 11 12 12 12 12 11 11 11 10 10 9 9 8 7 7 6 7 7 6 6 6 6 6 3 3 1 0 0 -1 -0 -0 -0 -1 -2
14 13 10 7 7 10 10 10 11 13 11 12 11 10 11 11 11 11 11 10 10 9 9 9 8 7 7 7 6 6 6 6 6 6 6 5 5 4 2 2 1 -0 -1 -0 -0 -1 -2 -2 -2
11 10 10 10 7 8 7 9 10 11 10 10 9 10 10 10 10 10 10 10 9 9 8 8 7 7 7 6 5 5 5 4 5 5 5 5 3 2 1 1 0 -1 -1 -1 -2 -2 -2 -2 -2
12 10 9 7 9 6 6 9 11 11 10 9 9 9 10 10 10 9 9 9 8 8 7 7 6 6 6 5 4 3 3 3 3 3 3 2 2 0 -0 -0 -0 -1 -1 -2 -2 -2 -2 -3 -3

GFSSGP_850_temp_018.txt.gz
Temp
20 21 21 21 17 14 15 18 18 17 16 17 17 16 14 14 15 15 15 15 15 15 16 16 15 15 15 16 16 17 16 17 16 16 15 15 15 15 15 15 15 16 15 15 15 15 15 14 15
20 20 21 20 13 13 15 17 17 16 16 17 17 17 15 14 14 14 14 15 14 15 15 15 16 16 16 16 17 17 17 16 16 16 16 15 15 14 14 14 14 15 15 14 14 14 14 14 14
20 21 20 11 10 13 15 18 15 16 17 17 16 16 15 15 15 15 15 15 15 15 15 16 16 16 17 17 17 17 17 16 16 16 16 15 14 14 14 15 14 14 14 14 15 15 14 14 14
20 21 19 15 16 17 17 16 16 16 17 17 16 15 16 15 15 15 15 15 15 16 16 16 16 17 17 17 17 17 18 17 17 16 16 15 15 15 15 15 15 14 14 14 15 14 14 14 14
21 20 13 14 17 17 16 18 18 16 17 17 17 14 15 15 16 15 15 16 16 16 16 16 17 17 17 17 17 17 17 17 16 16 16 16 15 14 14 14 14 14 14 14 14 13 13 13 13
20 18 12 13 17 18 18 17 18 17 16 16 16 15 15 16 16 16 16 16 16 17 17 17 17 17 17 17 16 16 15 15 15 15 15 15 14 14 14 15 15 15 14 14 14 14 14 13 13
16 12 14 14 17 18 19 19 18 17 17 17 18 14 15 15 15 15 15 15 15 16 17 17 17 16 16 16 16 15 15 14 14 14 14 14 14 14 13 13 14 14 14 13 13 13 13 13 13
20 13 15 16 16 18 18 19 19 19 18 17 18 14 15 16 15 15 15 15 16 17 16 16 16 16 16 16 15 14 14 14 14 14 14 14 14 14 13 13 13 13 13 12 12 12 12 12 12
19 13 14 17 18 19 18 19 19 19 18 18 18 18 18 17 16 15 15 16 16 16 16 16 16 16 16 16 16 15 14 14 13 13 14 14 14 14 13 14 14 14 13 13 13 13 12 12 12
15 12 17 17 17 18 18 19 19 19 18 19 19 19 18 17 16 15 15 16 17 16 16 16 16 16 16 16 16 15 14 14 13 13 13 13 13 13 13 13 13 14 13 13 12 12 13 13 13
17 16 17 19 19 19 18 19 19 18 17 19 20 19 18 16 16 16 16 16 17 16 16 16 16 16 16 16 15 15 14 14 13 13 13 13 13 13 13 13 13 13 13 13 12 12 12 12 12
18 18 18 19 20 19 18 19 19 19 20 21 21 20 19 17 16 16 16 17 17 17 16 16 16 16 16 15 15 15 15 13 13 13 12 12 12 13 13 13 13 13 13 13 13 13 12 12 12
19 19 19 20 20 19 19 19 19 19 21 21 20 19 19 19 18 17 17 17 16 16 16 16 17 17 16 15 15 15 14 14 13 12 12 12 12 12 12 12 12 12 12 12 12 12 12 12 12
19 18 18 19 19 19 19 19 19 21 21 20 20 19 19 18 18 18 17 17 16 16 16 16 16 16 16 15 15 14 14 13 13 12 12 11 11 11 11 11 11 11 11 11 11 11 11 11 11
19 18 16 18 17 18 18 17 17 20 20 20 20 19 19 19 18 18 18 17 17 17 16 16 16 16 15 15 14 14 14 13 13 12 12 12 11 11 11 11 11 11 10 10 10 10 10 10 10
15 14 15 17 17 18 18 15 17 19 18 19 19 18 18 18 18 18 18 18 18 17 17 16 16 16 15 14 14 13 13 13 13 12 12 11 11 11 11 11 10 10 10 10 10 10 9 9 9
12 15 16 15 15 14 17 15 16 18 17 18 18 18 18 18 18 18 18 18 17 17 16 16 16 16 15 14 14 14 13 13 13 13 12 12 11 11 10 10 10 10 10 10 10 10 9 9 9
15 15 15 15 15 13 13 13 12 14 15 15 16 17 17 17 18 17 18 17 17 16 16 16 16 15 15 14 14 14 13 13 13 13 12 12 12 11 11 11 10 10 10 10 9 9 9 9 9
16 15 15 14 15 14 13 12 12 13 14 14 15 15 16 17 18 18 18 18 17 16 16 16 16 15 15 14 14 13 13 13 12 12 12 12 12 11 11 11 11 10 10 10 9 9 9 9 8
16 15 14 13 14 14 13 13 13 13 12 13 14 15 16 18 18 19 19 18 17 17 16 16 16 15 15 14 14 13 13 12 12 12 12 12 11 11 11 11 11 10 10 10 9 9 9 8 8
14 15 15 14 12 14 12 14 13 15 15 15 15 16 17 18 18 18 18 17 17 17 16 16 15 15 14 13 13 12 12 12 12 12 11 11 11 10 10 10 10 10 10 10 9 9 8 8 8
14 15 14 13 13 13 12 13 14 12 13 13 15 16 15 16 17 17 17 17 17 16 15 15 15 14 13 12 12 12 11 11 11 11 10 10 10 10 10 9 9 9 9 9 9 8 8 7 7
14 13 13 13 12 12 12 11 13 12 13 13 13 15 16 16 16 16 15 15 15 15 15 14 13 12 12 11 11 11 11 11 10 10 10 10 9 9 8 8 8 8 8 8 7 7 7 6 5
13 12 11 10 10 10 13 12 11 12 13 13 13 15 15 15 15 15 14 14 14 13 12 12 12 12 12 11 11 11 10 10 10 9 9 8 8 8 8 8 8 8 8 7 5 5 5 4 3
12 10 9 11 9 11 12 11 11 13 12 12 12 14 14 15 14 13 13 13 12 12 11 11 11 11 11 10 10 10 9 9 8 8 8 8 7 7 7 7 7 6 5 4 2 2 2 1 0
13 11 7 11 8 9 10 12 12 13 13 12 13 13 12 12 11 11 11 11 11 11 11 10 10 10 10 9 9 8 8 7 6 7 7 6 6 5 5 5 5 4 2 1 -0 -1 -1 -1 -1
13 10 11 8 7 7 9 10 12 10 10 10 10 11 10 10 11 11 10 10 10 10 10 10 9 9 8 8 7 6 5 6 6 6 5 5 5 5 4 3 2 0 -1 -1 -1 -1 -1 -1 -2
12 12 10 6 7 10 9 9 11 10 9 9 8 9 10 10 10 10 10 9 9 8 8 7 6 6 6 6 6 5 4 4 4 4 4 4 4 4 3 1 -0 -0 -0 -1 -1 -1 -3 -3 -3
10 10 9 8 7 6 7 8 10 9 9 9 8 9 9 9 9 9 9 9 8 7 7 7 6 7 6 6 5 4 3 3 3 3 3 3 2 1 0 -0 -1 -1 -1 -1 -2 -2 -2 -2 -2
10 10 8 6 8 5 5 7 10 9 9 8 8 8 9 8 8 8 8 8 7 7 7 7 6 6 5 5 4 3 3 2 2 2 2 0 -1 -1 -2 -2 -3 -3 -2 -2 -2 -2 -3 -3 -3

GFSSGP_850_temp_021.txt.gz
Temp
20 20 21 21 21 20 19 20 19 19 18 16 16 18 18 14 17 18 14 15 15 16 16 16 16 15 15 16 16 16 16 16 16 16 16 16 15 15 15 15 15 15 15 15 15 15 15 15 15
20 21 21 20 20 20 19 18 20 18 17 16 16 15 16 16 14 14 15 15 16 16 16 16 16 16 16 16 16 16 16 16 16 16 15 15 15 15 15 15 15 15 15 15 14 14 14 14 14
20 21 20 18 17 20 20 18 18 16 16 17 16 15 15 15 15 15 15 15 15 16 17 17 17 16 16 16 16 16 16 16 17 16 16 15 14 14 14 14 14 14 14 14 14 14 14 14 14
21 21 18 20 18 18 19 18 17 17 17 17 16 17 15 15 15 15 15 15 15 16 16 16 16 16 17 17 17 17 17 16 16 15 15 14 14 14 14 14 14 14 14 14 14 14 14 14 13
21 20 19 19 18 18 18 18 17 18 17 16 16 16 15 15 15 15 15 16 16 17 16 16 16 16 16 17 17 17 16 16 16 15 15 14 14 14 14 13 13 13 14 14 14 14 13 14 13
20 18 19 19 19 19 18 17 17 17 16 16 16 16 15 16 16 15 16 16 16 16 16 16 16 17 16 16 16 16 15 15 15 15 15 15 14 14 14 14 14 14 14 13 13 13 13 13 13
19 18 17 17 18 19 19 18 18 17 17 17 17 16 15 15 15 16 16 16 16 16 16 16 16 16 16 16 16 15 15 15 14 14 14 14 14 14 14 13 13 13 13 13 13 13 13 13 13
20 18 17 17 18 19 18 18 18 18 17 17 17 17 15 16 16 16 15 15 15 15 16 16 16 16 16 16 16 15 15 14 14 14 14 14 14 14 14 14 13 13 13 13 13 12 12 12 12
19 18 17 18 18 19 17 19 19 18 18 18 18 18 18 16 15 15 15 15 15 16 16 16 16 16 16 16 16 15 15 15 14 14 14 14 14 14 13 13 14 14 14 13 13 12 12 12 12
17 18 18 17 18 19 18 18 18 18 17 17 18 18 18 17 16 15 15 16 16 16 16 16 16 16 16 16 16 15 15 14 14 14 14 13 13 13 13 13 13 13 13 13 13 12 12 12 12
17 19 17 18 18 19 18 18 19 18 19 19 20 20 18 17 16 15 16 16 17 16 16 16 16 16 16 15 15 15 15 14 14 14 14 13 13 13 13 12 12 12 13 12 12 12 12 12 12
19 17 18 18 19 19 19 19 18 18 21 21 20 20 19 17 16 16 16 16 16 16 16 16 16 16 16 15 15 14 14 14 14 13 13 13 12 12 12 12 12 12 12 12 12 12 12 11 11
19 18 18 18 19 19 19 19 19 19 20 20 20 19 19 18 18 17 17 17 16 17 16 15 15 16 16 15 15 14 14 13 13 13 13 12 12 12 12 12 11 12 12 11 12 12 11 11 11
18 18 17 18 18 18 18 18 19 20 20 20 20 19 19 19 19 17 17 17 17 17 17 16 16 16 16 15 15 14 14 13 13 13 12 12 12 11 11 11 11 11 11 11 11 11 11 11 11
18 19 18 17 16 18 17 19 19 19 20 19 18 18 18 19 18 18 18 18 18 17 16 16 15 16 16 15 14 14 14 13 13 12 12 12 12 11 11 11 11 11 11 11 10 10 10 10 10
17 17 18 18 17 17 19 19 19 18 17 18 19 18 18 18 18 18 18 17 17 17 16 16 15 16 15 15 14 14 14 13 13 13 12 12 12 11 11 11 11 10 10 10 10 10 10 10 10
16 18 17 18 15 16 17 19 18 14 15 15 17 17 17 17 18 17 17 17 17 16 17 16 16 16 15 14 14 14 14 13 13 13 12 12 12 12 11 11 11 11 10 10 10 10 10 10 9
17 17 16 16 17 16 16 16 16 13 13 13 15 17 18 18 17 17 17 17 17 17 17 16 16 15 15 15 14 14 13 13 13 12 12 12 11 11 11 11 11 11 11 11 10 10 10 9 9
16 16 15 15 15 16 15 15 16 14 14 13 13 15 16 16 17 18 18 18 18 17 17 16 16 15 15 14 14 13 13 13 13 12 12 11 11 11 10 10 10 10 10 10 10 10 9 9 9
16 16 16 15 14 15 15 16 15 14 13 12 14 14 16 17 18 18 19 18 17 17 16 16 15 15 14 13 13 13 12 13 13 12 12 12 11 11 11 10 10 10 10 9 9 9 9 9 9
15 16 15 15 14 14 15 17 16 15 14 14 14 15 15 16 17 17 16 17 16 16 15 15 14 13 13 12 12 12 12 12 12 12 11 11 10 10 10 10 10 10 9 9 9 9 8 8 8
15 14 14 14 15 17 13 17 16 14 15 14 13 15 16 16 15 15 15 14 14 14 14 13 13 12 12 11 11 10 10 10 10 10 10 10 10 9 9 8 8 8 8 8 9 8 8 7 6
15 13 13 13 14 14 15 16 16 14 14 14 14 13 14 15 14 14 14 13 12 12 12 11 11 11 11 10 10 10 10 10 9 9 9 9 9 9 9 8 7 7 7 7 7 7 7 6 5
13 13 13 12 13 15 13 15 14 14 13 14 13 10 11 13 13 12 12 11 11 10 11 11 11 11 11 11 10 10 10 10 9 9 9 9 8 8 7 7 7 6 6 6 6 5 4 3 2
14 13 14 15 15 15 13 13 13 12 12 12 11 9 10 11 11 11 11 11 11 11 11 11 11 11 11 10 10 9 9 8 7 6 6 6 5 6 6 5 5 5 5 4 3 1 0 -0 -0
13 13 13 13 13 13 11 13 13 12 11 10 10 10 10 10 10 10 10 10 10 10 10 9 10 11 10 9 8 7 6 5 5 5 4 4 4 5 4 4 4 3 2 1 -0 -1 -1 -1 -1
13 13 11 10 8 11 12 12 13 11 11 10 10 10 10 10 10 10 10 9 9 9 9 9 8 8 7 7 7 6 5 4 4 3 4 4 4 3 3 2 1 0 -1 -1 -1 -1 -1 -1 -2
13 12 13 11 11 12 13 12 14 12 12 10 9 9 9 10 9 10 9 9 8 8 7 7 6 6 6 5 5 4 3 3 3 3 3 2 2 1 -0 -1 -1 -2 -2 -2 -2 -2 -2 -2 -3
12 12 10 11 10 10 9 13 12 12 11 11 9 8 8 9 8 7 7 7 7 6 6 6 6 6 5 5 4 4 3 3 2 2 2 1 1 -1 -1 -2 -2 -2 -2 -3 -4 -4 -4 -3 -3
11 11 10 11 10 9 9 11 11 11 10 9 8 8 9 8 7 7 7 7 7 7 6 6 6 6 5 4 4 3 3 2 2 1 -0 -1 -2 -2 -3 -3 -2 -3 -3 -4 -3 -3 -3 -3 -3

GFSSGP_850_temp_024.txt.gz
Temp
20 21 21 21 25 26 24 23 25 23 24 21 21 22 23 20 22 22 16 15 15 15 15 16 16 16 16 16 16 16 16 15 16 15 16 15 15 15 15 15 15 15 15 15 15 15 14 14 15
20 21 21 23 26 25 24 24 24 24 21 20 20 21 22 21 18 16 16 15 15 15 15 16 16 16 16 16 15 15 15 15 15 15 15 15 15 15 15 15 15 15 14 15 15 14 14 14 14
20 21 24 26 26 25 24 24 24 21 20 21 21 20 20 19 17 17 16 16 16 16 15 16 15 16 16 16 16 16 16 16 15 15 15 14 14 14 14 14 14 14 14 14 14 14 14 14 14
20 21 23 26 24 23 24 24 23 22 21 21 22 21 18 17 17 16 15 15 14 14 14 16 17 17 17 16 16 17 17 16 16 15 15 15 15 14 14 14 14 14 14 14 14 14 14 13 13
21 23 25 25 23 23 25 23 23 24 23 22 21 21 19 16 15 15 14 14 15 15 16 17 17 17 17 17 17 16 16 16 16 15 15 15 15 15 14 14 14 14 14 14 14 14 14 13 13
24 25 25 24 22 23 23 22 22 23 22 21 21 21 18 15 15 15 14 14 15 15 16 17 16 16 17 17 16 16 16 16 15 15 15 15 15 14 14 14 14 14 13 13 13 13 13 13 13
25 26 25 24 23 23 23 21 23 23 22 22 20 22 17 16 15 15 15 15 15 15 15 15 16 17 17 16 16 15 15 15 15 15 15 15 14 14 14 13 13 13 13 13 13 13 12 12 12
23 25 24 24 23 22 22 22 21 22 22 19 19 22 20 17 15 15 15 15 15 14 14 14 15 16 16 16 15 15 15 14 14 14 14 14 14 14 13 13 13 13 13 13 13 12 12 12 12
22 25 24 23 23 23 22 23 21 20 21 19 19 20 19 17 15 15 15 15 15 15 16 16 15 16 16 15 15 15 15 15 14 14 14 14 11 12 11 13 13 13 13 13 13 13 13 13 13
25 25 23 23 23 24 22 23 22 22 22 21 20 18 17 16 16 16 16 16 16 15 16 16 16 16 16 15 15 15 14 13 13 13 14 12 13 13 13 13 13 13 13 13 13 13 13 13 11
24 24 23 22 22 23 23 22 22 23 23 22 22 20 18 17 16 17 17 17 17 16 16 15 16 16 15 13 13 13 13 12 12 14 13 13 13 11 11 11 11 10 12 11 12 12 11 12 12
22 22 23 22 21 22 23 22 22 23 23 21 21 21 19 18 18 17 18 18 17 17 16 15 16 16 16 15 14 13 13 12 12 12 13 11 11 11 10 11 11 10 10 10 10 10 12 11 11
23 22 22 21 20 21 20 22 22 22 22 20 20 19 19 19 19 18 18 18 17 17 16 15 16 16 16 15 14 14 14 12 12 12 12 12 11 11 10 10 10 10 10 10 9 9 9 9 10
21 22 21 21 21 20 22 22 21 22 21 20 19 20 20 19 19 18 17 17 17 17 16 15 16 16 16 15 15 15 14 13 13 12 11 13 12 10 10 10 10 10 10 10 9 9 10 9 9
21 22 23 21 21 21 21 23 23 21 20 21 20 20 20 20 19 19 18 18 18 17 16 15 16 15 16 15 15 14 13 14 12 12 13 13 12 12 11 10 10 10 10 10 10 9 10 10 9
23 23 23 22 22 21 22 23 23 20 19 21 21 20 19 19 19 18 18 17 17 16 16 16 16 15 16 15 15 14 13 13 12 13 13 12 12 12 12 10 10 10 10 9 9 9 9 9 9
23 23 22 21 20 22 22 23 22 19 18 20 21 20 20 20 19 18 16 16 16 16 16 16 16 15 15 15 14 14 14 13 12 13 12 12 12 12 11 11 10 10 9 9 9 9 9 9 9
22 22 21 21 21 21 22 21 21 18 19 19 19 19 19 19 19 17 16 17 16 16 17 16 14 15 15 15 14 14 14 13 13 12 12 12 12 11 11 11 10 9 9 9 9 9 9 8 9
21 21 21 21 20 20 20 21 20 19 20 20 19 19 18 18 16 15 16 17 16 16 15 13 13 13 14 13 12 12 12 12 11 11 10 11 11 11 11 11 11 10 8 8 8 8 8 8 8
20 20 20 20 19 19 20 20 20 19 18 18 19 18 18 18 16 15 14 15 15 15 15 14 13 13 13 13 13 13 12 11 11 11 9 9 11 11 11 10 9 8 8 8 7 7 8 8 8
20 19 19 19 19 19 20 20 20 19 18 18 18 18 17 16 16 15 13 14 14 14 14 13 12 12 13 12 10 10 10 10 10 9 9 10 11 10 9 9 9 9 8 7 7 7 7 7 7
19 18 18 18 19 21 19 21 19 19 19 18 17 16 16 15 15 14 13 13 13 13 13 12 11 11 11 11 10 11 9 9 9 8 7 8 9 9 8 7 6 6 6 6 6 6 6 6 7
18 17 17 17 19 19 20 21 19 19 18 18 16 14 14 13 13 12 11 11 10 11 11 11 9 10 10 10 10 10 9 8 7 9 8 6 6 6 6 5 7 7 6 5 5 4 4 5 5
17 17 17 18 19 18 19 19 20 19 17 17 15 13 12 12 12 11 11 11 10 9 9 9 9 8 10 10 9 10 9 7 6 6 6 6 5 5 5 4 5 5 5 4 4 3 2 2 2
19 19 19 18 18 19 17 18 18 16 16 15 15 13 12 12 12 12 11 11 10 9 9 9 8 8 8 8 7 6 6 6 5 5 5 4 4 4 4 3 3 2 1 1 2 2 1 -0 -0
17 17 17 16 17 18 16 18 17 16 15 14 13 13 12 12 11 11 11 10 10 9 8 8 8 8 7 7 6 7 7 6 5 4 3 3 3 2 1 1 1 0 -0 0 -0 -1 -1 -1 -1
17 16 16 15 13 14 18 17 16 15 14 14 13 13 12 12 11 11 11 10 9 9 8 7 8 8 7 6 6 5 4 4 3 2 2 2 2 1 0 -0 0 -0 -1 -1 -1 -2 -2 -2 -2
17 16 16 16 14 15 18 17 18 15 15 14 14 13 12 11 11 11 10 9 8 8 8 7 6 6 6 5 4 4 3 3 2 1 1 0 0 -0 -0 -1 -1 -1 -2 -2 -2 -2 -2 -3 -3
16 16 15 16 14 14 14 17 17 16 16 14 13 12 11 11 10 9 9 8 8 7 7 6 6 5 5 4 3 3 2 1 1 0 -0 -1 -1 -1 -1 -2 -2 -2 -2 -3 -3 -3 -4 -4 -4
15 15 15 14 14 13 13 14 16 16 14 12 12 11 11 10 10 9 9 8 8 7 6 5 4 4 3 3 3 2 1 1 0 -1 -1 -2 -2 -2 -2 -2 -2 -3 -3 -4 -3 -3 -4 -4 -3

GFSSGP_850_temp_027.txt.gz
Temp
20 21 20 23 27 29 27 27 28 26 26 25 25 26 26 24 24 21 19 18 17 17 16 16 17 16 16 16 15 15 16 16 16 15 15 15 15 14 15 15 15 15 15 15 15 15 15 15 15
20 20 22 26 27 28 27 27 27 27 25 24 25 25 26 24 21 19 18 18 17 17 16 14 16 16 16 16 16 16 16 16 16 15 15 15 15 15 15 15 15 15 15 15 15 15 15 15 14
21 21 24 28 29 28 26 27 26 25 24 25 25 24 24 22 21 20 18 17 17 17 15 16 16 16 16 17 16 16 16 16 15 15 15 15 15 14 14 14 14 14 14 14 14 14 14 14 14
21 23 25 28 28 28 27 27 26 25 25 25 25 24 21 21 21 19 17 17 17 16 16 17 17 17 17 17 17 17 16 16 16 16 15 15 15 15 14 14 14 14 14 14 14 14 14 14 14
22 25 28 28 26 27 27 26 26 27 26 25 25 24 21 19 18 18 17 17 17 17 17 17 17 17 17 16 16 16 16 16 15 15 15 15 15 15 15 14 14 14 14 14 14 14 14 13 13
25 27 27 25 25 26 26 25 26 26 25 24 25 23 21 18 18 17 17 17 17 17 15 17 17 17 17 16 16 16 15 15 14 14 14 14 14 14 14 14 14 14 14 14 14 13 13 13 13
25 28 27 26 25 25 25 25 26 26 25 24 24 24 20 19 18 17 17 18 17 17 16 15 16 17 16 16 16 15 15 14 14 14 14 14 14 14 14 14 14 14 13 14 13 13 13 13 13
27 28 26 26 25 24 25 25 24 25 24 22 23 24 21 19 18 18 18 17 17 17 17 16 16 15 14 15 15 15 15 14 14 14 14 14 14 14 13 13 13 13 13 13 13 13 13 13 13
25 26 26 25 25 24 24 25 24 23 23 22 22 22 21 19 18 18 18 18 18 17 16 16 16 15 15 15 14 15 14 14 14 14 14 14 13 12 12 12 13 13 13 12 13 13 13 12 12
27 27 26 26 26 26 25 25 24 24 23 23 22 21 20 19 18 18 19 18 18 17 17 16 16 15 15 15 14 14 13 14 13 13 13 14 12 12 12 12 12 12 12 12 12 12 12 12 12
26 26 25 25 25 25 25 25 24 25 25 24 24 22 21 20 19 19 20 19 19 18 18 17 15 15 14 15 15 15 15 14 14 13 12 13 12 13 13 13 12 12 12 11 11 11 11 11 10
25 25 25 25 24 24 25 25 24 25 25 24 24 22 21 20 20 20 20 20 19 18 18 17 16 15 15 15 16 15 15 15 14 14 12 13 13 13 12 13 12 12 12 12 11 11 11 10 9
25 25 24 24 23 24 23 24 25 25 24 23 23 22 22 21 21 20 20 20 19 19 18 17 16 15 15 15 15 14 14 14 14 13 13 12 12 12 12 12 11 11 11 12 11 11 11 11 10
25 24 24 24 24 23 24 24 24 24 24 23 23 23 22 22 21 21 20 20 19 19 18 17 16 15 15 15 14 14 13 14 13 13 13 12 12 11 11 11 11 11 12 12 11 11 11 10 10
24 24 24 24 24 25 24 25 25 24 23 24 23 23 23 22 22 21 20 20 19 19 18 18 16 15 15 14 14 14 14 13 13 13 12 12 12 11 11 11 11 11 11 11 11 10 10 10 10
25 26 25 25 24 24 24 25 26 24 23 24 24 23 23 23 22 21 20 20 20 19 19 18 17 15 14 15 14 14 14 13 13 13 12 12 12 12 12 11 11 11 10 10 11 11 11 11 11
25 25 25 24 24 25 25 25 25 23 23 23 24 24 23 23 22 21 20 19 19 19 18 18 17 15 15 15 14 13 13 13 13 13 13 12 11 11 11 10 10 10 10 10 10 11 10 11 11
25 25 24 24 24 24 25 25 24 23 23 23 23 23 23 22 22 21 19 19 18 17 16 16 16 15 14 14 13 14 13 13 13 13 13 11 10 10 9 10 10 10 10 10 10 10 10 10 10
24 24 24 24 23 23 24 24 23 23 23 23 23 22 21 21 19 17 16 16 16 15 15 15 15 14 13 14 14 14 14 13 13 12 11 10 10 9 9 9 9 9 9 9 9 9 9 9 9
23 23 23 23 23 22 24 23 23 22 22 22 22 21 20 18 17 16 15 14 14 13 13 13 13 12 12 13 12 12 12 12 11 11 10 10 9 10 9 8 8 8 8 8 8 8 8 8 8
23 22 22 22 23 23 23 23 22 22 21 20 20 19 19 19 17 16 15 13 13 12 13 12 12 11 11 12 12 12 12 12 12 11 10 10 9 8 8 7 7 7 7 7 7 7 7 8 8
22 21 20 21 21 23 23 23 22 22 21 20 19 18 18 18 17 15 14 13 12 12 11 12 11 11 10 11 10 10 10 11 11 9 9 8 8 8 7 7 7 6 5 5 6 6 6 6 7
21 20 20 21 21 23 23 23 22 22 21 20 18 17 16 16 15 15 14 13 12 11 11 11 11 10 10 9 10 9 9 8 8 9 8 7 7 7 6 6 6 5 4 4 4 4 4 5 5
20 20 21 21 22 20 23 22 22 22 21 19 18 16 16 15 15 14 14 13 13 11 11 10 11 11 10 9 8 8 7 7 7 7 7 7 6 6 5 5 4 3 3 4 3 3 2 2 2
22 21 20 20 20 20 21 21 21 19 19 19 17 16 15 15 14 14 14 13 12 11 11 10 11 10 10 9 8 8 7 7 7 6 6 5 5 4 4 3 3 3 2 2 1 1 0 -0 -0
20 20 18 17 19 21 20 20 20 19 17 16 16 15 15 15 14 14 13 13 12 12 11 10 10 10 9 9 8 7 7 6 5 5 4 4 3 3 3 2 1 1 1 0 -0 -1 -1 -1 -1
20 19 19 18 16 16 21 20 19 18 18 17 16 16 15 14 14 14 13 12 11 11 10 10 9 8 8 8 7 6 6 5 5 4 3 3 2 2 2 1 0 -0 -0 -0 -0 -1 -2 -2 -2
19 19 18 18 14 16 21 21 21 17 17 17 17 16 15 14 14 13 12 12 10 10 10 9 8 8 7 7 6 5 5 5 4 3 2 2 1 0 -0 -0 -0 -0 -0 -1 -1 -1 -2 -2 -3
19 19 18 18 17 16 16 19 20 19 19 19 17 16 15 14 13 13 12 11 10 10 9 8 7 7 6 6 5 5 4 4 3 2 2 1 -0 -1 -1 -2 -1 -1 -2 -3 -3 -3 -3 -3 -3
18 18 18 16 16 16 15 15 19 19 18 16 16 15 14 13 13 12 11 11 10 9 8 7 6 6 5 4 4 4 3 3 2 1 1 -1 -1 -2 -2 -2 -2 -2 -2 -2 -2 -2 -3 -3 -3

GFSSGP_850_temp_030.txt.gz
Temp
21 21 22 21 23 25 26 28 29 27 26 26 26 26 24 22 23 19 19 19 17 17 17 17 17 17 17 17 17 16 16 16 16 16 16 16 15 15 15 15 15 15 15 15 15 15 15 15 15
21 21 21 22 23 25 27 28 26 26 26 26 26 26 24 22 21 19 19 19 18 16 17 17 17 17 17 16 16 16 16 16 16 16 16 15 15 15 14 14 14 14 14 14 15 15 15 15 15
21 21 22 24 25 25 26 26 26 26 26 26 25 23 23 22 20 19 18 18 18 16 17 17 17 17 17 17 16 16 16 16 16 15 15 15 15 14 14 14 14 14 14 14 14 14 14 14 14
21 21 22 23 26 28 27 27 26 26 26 26 25 23 22 22 20 19 18 18 17 16 17 17 17 17 17 17 17 17 16 16 16 15 15 15 15 15 15 15 14 14 14 14 14 14 14 14 14
20 22 24 26 26 27 28 27 27 26 26 26 25 22 21 20 19 18 18 18 17 16 17 17 17 17 17 17 17 16 16 15 15 15 15 15 15 14 14 14 14 14 14 14 14 14 14 14 14
22 24 24 25 25 26 27 26 27 27 26 25 25 23 21 19 19 18 18 18 17 17 17 17 17 17 17 16 16 16 15 15 15 15 15 14 14 14 14 14 14 14 14 14 14 14 14 14 13
22 23 24 26 25 25 26 26 27 26 26 25 24 23 20 19 18 18 18 18 17 16 17 17 17 17 17 16 16 16 16 15 15 14 14 14 14 14 14 14 14 14 14 14 14 14 14 14 13
24 25 25 26 25 24 25 26 25 26 24 24 23 23 21 19 18 18 18 18 17 17 17 16 16 15 15 15 16 16 15 15 15 14 14 14 13 13 13 13 13 13 13 13 13 13 13 13 13
25 27 26 26 26 25 25 25 25 24 24 24 23 23 21 19 18 18 18 18 18 18 17 17 16 15 15 15 15 14 14 14 14 13 14 13 13 12 13 13 13 13 13 12 13 12 12 13 13
26 26 25 27 26 25 25 25 24 24 24 23 22 21 20 19 19 19 19 18 18 18 17 16 16 15 15 16 15 15 14 14 13 13 13 13 13 13 13 13 13 13 12 12 12 12 12 12 11
27 25 26 26 25 26 25 25 25 25 25 24 23 22 20 19 19 19 19 19 19 18 18 17 16 15 15 16 15 15 15 15 14 14 13 13 13 13 13 13 13 12 12 12 12 11 11 11 11
25 26 26 25 25 25 25 25 25 26 25 24 23 22 21 20 20 20 20 20 19 19 18 17 16 16 16 15 15 16 15 15 15 14 13 13 13 13 13 12 12 12 12 12 12 11 11 11 11
25 26 25 24 24 25 24 25 25 25 24 24 23 23 22 21 21 21 21 21 20 19 18 17 16 15 15 16 15 15 15 14 14 14 13 13 13 12 12 12 12 11 12 12 12 11 11 11 11
25 25 25 24 24 24 24 25 24 25 24 24 23 23 22 22 22 21 21 21 20 20 19 18 17 16 15 15 15 15 14 14 14 13 13 13 13 13 13 12 12 11 12 12 12 11 11 11 10
25 25 25 25 25 25 24 24 24 25 24 24 24 23 23 23 22 22 21 21 20 20 19 18 17 16 15 15 14 14 14 14 14 13 13 13 13 12 12 12 12 11 11 11 11 11 11 11 11
25 26 24 25 25 25 24 24 26 25 24 24 24 24 24 23 23 22 21 21 20 20 19 19 18 16 15 15 15 15 14 14 13 13 13 12 12 12 11 12 11 11 11 11 10 11 10 10 10
25 24 25 24 25 25 25 25 26 24 24 24 24 24 24 23 23 22 21 21 20 20 19 18 18 17 16 15 15 14 14 14 14 13 13 13 12 11 11 11 10 10 10 10 10 10 10 10 10
24 25 25 24 24 25 25 25 25 24 24 24 25 25 24 23 22 21 20 19 19 18 18 17 17 16 15 15 14 14 14 14 14 13 13 12 12 11 11 11 11 11 10 10 10 10 10 9 9
25 25 25 25 24 23 24 24 24 24 24 24 23 23 22 19 17 16 17 17 16 16 16 16 15 15 14 14 14 14 14 14 13 13 12 12 11 11 11 10 10 10 9 9 9 9 9 9 8
24 24 24 24 24 23 24 24 24 23 23 23 22 20 19 18 16 15 14 15 15 14 14 14 13 13 13 13 13 13 12 12 12 12 11 11 10 10 9 8 8 7 7 7 7 7 7 7 7
24 23 22 22 23 24 23 23 22 22 22 21 20 20 19 18 16 15 14 13 13 13 13 12 12 12 12 12 12 12 12 12 12 11 11 11 10 9 8 7 7 7 6 6 6 6 6 6 6
22 22 21 22 22 21 24 21 22 22 21 21 20 19 19 18 16 15 14 13 12 12 12 12 11 11 11 11 11 10 10 10 10 10 9 9 8 8 7 7 6 6 6 5 5 4 5 5 5
22 21 21 21 21 22 23 22 23 22 20 20 19 18 17 17 16 15 14 13 12 11 11 11 11 11 11 10 9 9 8 8 8 8 8 7 7 7 6 6 5 5 5 4 3 3 3 3 3
22 21 22 22 21 19 22 23 21 21 21 20 18 17 17 16 15 15 14 14 13 12 11 11 11 11 11 10 9 9 8 7 7 7 7 6 6 5 4 4 4 3 3 3 3 3 2 2 1
22 21 19 18 19 19 22 22 20 20 21 20 18 17 16 16 15 15 14 14 13 12 12 11 10 10 10 10 9 8 8 7 7 6 5 5 4 3 3 2 2 2 2 2 2 2 2 1 0
21 20 18 17 16 18 22 21 19 20 19 18 18 17 16 15 15 15 14 13 13 12 11 11 10 9 9 8 8 7 7 6 6 5 5 4 3 2 2 2 1 1 1 1 -0 -0 -1 -0 -1
20 19 20 18 18 16 19 20 20 19 18 18 17 17 16 15 15 14 14 13 12 11 11 10 9 9 8 8 7 6 6 5 5 5 4 3 2 1 1 1 0 -0 -0 -1 -1 -1 -1 -1 -2
20 20 18 18 14 16 19 20 17 18 18 18 18 17 16 15 15 14 13 13 12 11 10 10 9 8 7 7 6 6 5 5 4 4 3 2 2 1 1 -0 -1 -1 -1 -1 -1 -2 -2 -2 -2
19 19 19 19 18 15 15 18 20 19 19 18 18 17 16 15 14 14 13 12 11 10 10 9 8 7 6 6 5 4 4 3 3 3 2 2 1 0 -1 -1 -1 -2 -2 -2 -2 -2 -2 -2 -3
19 18 18 15 15 15 15 15 20 19 18 18 17 16 15 15 14 13 12 11 10 10 9 8 7 6 5 4 4 3 3 3 2 2 1 0 -1 -1 -1 -1 -2 -2 -2 -2 -2 -2 -2 -2 -3

GFSSGP_850_temp_033.txt.gz
Temp
21 21 21 20 19 18 20 23 22 23 21 23 22 21 19 19 19 17 16 18 18 18 17 17 17 17 17 17 17 16 16 16 16 16 16 16 15 15 15 15 15 15 15 15 15 15 15 15 15
20 20 21 21 18 19 20 23 22 23 24 23 22 20 19 18 18 17 17 17 18 17 17 17 17 17 17 17 16 16 16 16 16 16 15 15 15 15 15 15 15 15 15 14 15 15 15 15 15
21 20 20 18 18 19 20 23 22 24 25 24 22 21 20 18 19 18 17 17 18 17 17 17 17 17 17 17 17 17 17 16 16 16 16 15 15 15 15 15 14 14 14 15 14 14 14 14 15
20 21 21 19 19 22 22 22 24 24 25 22 22 19 19 19 18 18 17 17 17 17 17 17 17 18 18 17 17 17 17 16 16 16 16 16 15 15 15 15 14 14 14 14 14 14 14 14 14
20 20 18 19 23 24 24 25 25 23 23 21 21 18 18 18 18 18 17 17 17 17 17 17 17 18 17 17 17 17 16 16 16 15 15 15 15 15 15 14 14 14 14 14 14 14 14 14 14
20 21 18 19 22 23 23 25 25 24 24 21 20 19 18 18 18 18 17 17 17 18 17 17 17 17 17 17 17 17 16 16 15 15 15 14 14 14 14 14 14 14 14 14 14 14 14 14 14
19 18 18 19 21 22 24 25 23 22 22 22 20 18 19 18 18 18 18 17 17 17 17 17 16 16 16 16 16 16 16 15 15 15 15 14 14 14 14 13 14 13 13 13 14 14 14 14 14
21 19 19 20 21 21 24 23 24 23 23 23 22 18 17 18 18 18 18 17 17 17 17 16 16 16 15 15 16 16 15 15 15 15 14 13 14 13 13 13 13 13 12 12 13 13 13 13 13
22 19 20 21 21 21 24 22 24 23 23 22 22 20 19 18 18 18 17 17 17 17 16 16 16 15 15 15 15 15 15 15 14 14 13 13 13 13 13 13 13 13 12 12 12 12 12 12 12
21 19 21 22 21 21 23 24 23 22 22 20 19 19 18 18 18 18 18 17 17 17 16 15 15 15 15 15 15 15 15 14 14 14 13 13 13 13 12 12 12 12 12 12 12 12 12 12 12
24 21 22 22 24 25 23 23 24 22 19 21 19 19 18 18 18 18 18 18 18 17 17 16 16 15 15 15 15 15 14 14 14 14 13 13 13 13 13 12 12 12 12 12 12 12 11 11 11
22 23 24 24 24 25 23 24 24 23 22 22 20 20 19 19 19 19 19 18 18 18 17 17 17 16 15 15 15 15 14 14 14 14 14 14 13 13 13 13 12 12 12 12 12 11 12 11 11
22 22 24 24 24 24 24 24 23 23 23 23 21 20 19 19 19 20 19 19 19 18 17 17 17 17 16 15 15 15 15 14 14 14 14 13 14 14 13 13 13 12 12 11 12 12 11 11 11
24 24 23 24 24 24 23 23 24 23 24 22 22 21 21 20 20 20 20 20 19 18 18 18 17 17 17 15 15 16 15 14 14 14 13 14 14 14 13 13 13 12 11 11 11 11 11 11 11
25 21 22 22 23 22 23 22 22 23 24 23 23 22 21 21 21 21 21 20 20 19 18 18 17 17 16 16 15 15 14 14 14 13 13 14 13 13 13 13 12 11 11 11 11 11 11 10 10
23 21 19 21 22 23 22 19 21 24 24 23 23 23 22 22 21 21 21 21 20 19 19 18 17 16 15 16 15 15 14 14 14 13 13 13 12 12 12 12 12 12 12 12 12 11 10 10 10
21 19 20 22 23 22 21 20 21 24 24 23 23 23 23 22 21 21 21 20 19 19 18 17 17 16 14 13 14 14 14 14 14 13 13 13 12 12 12 12 12 11 10 10 9 10 9 9 9
20 20 21 19 22 23 21 21 21 24 24 23 21 19 18 18 17 18 18 18 18 18 18 17 16 15 14 15 14 14 14 13 13 13 13 12 12 12 12 11 11 10 9 9 9 9 9 9 8
22 21 20 20 21 22 21 20 20 21 21 17 17 16 15 15 16 16 16 17 17 16 17 17 16 14 14 13 13 13 13 13 13 12 12 12 11 10 10 10 9 8 8 8 7 7 8 7 7
22 21 19 20 21 20 20 20 19 20 19 19 17 16 15 15 15 15 15 16 16 15 15 16 16 15 14 13 13 13 13 13 12 12 11 10 10 9 9 8 8 7 7 7 6 6 6 6 6
19 19 19 20 20 21 20 19 18 19 20 19 18 17 16 15 14 14 14 14 14 14 14 14 14 13 13 13 12 12 12 11 11 11 10 9 8 8 8 7 7 7 6 6 6 5 5 5 4
19 19 19 19 18 16 19 15 17 17 17 17 17 17 16 15 14 13 13 13 13 12 12 12 11 11 11 11 11 11 10 10 10 9 9 8 8 8 7 7 6 6 5 5 5 4 3 3 3
19 20 19 19 17 17 17 17 16 18 16 15 16 16 16 15 15 14 13 13 12 12 12 11 11 11 10 10 10 9 9 8 8 7 7 7 7 6 6 6 6 4 3 3 3 2 2 2 2
20 19 18 18 16 14 17 17 16 17 16 15 16 16 16 15 14 14 14 13 12 12 11 11 11 10 10 9 9 8 8 7 7 7 6 6 5 5 4 4 3 2 2 2 2 1 1 1 1
19 16 13 14 12 14 17 16 15 16 17 16 15 16 15 15 15 14 14 13 12 12 11 11 10 10 9 9 9 8 7 7 6 6 5 5 5 4 4 3 2 2 1 1 0 0 0 0 0
18 18 10 15 11 13 17 15 15 15 16 17 16 16 15 15 15 14 14 13 12 12 11 11 10 10 9 8 8 7 6 6 5 5 5 4 4 3 3 2 1 1 0 -0 -1 -1 -1 -0 -0
17 15 18 15 13 11 14 16 16 15 15 16 16 16 15 15 15 14 13 13 13 12 11 10 9 9 9 8 7 7 6 5 5 4 4 3 3 2 2 1 0 -0 -1 -1 -2 -2 -1 -2 -2
18 18 14 12 12 14 14 15 14 15 15 15 16 15 15 15 14 14 13 12 11 11 10 10 9 9 8 7 7 6 6 5 4 3 3 3 2 1 1 -0 -1 -1 -2 -2 -2 -2 -2 -2 -2
16 16 16 15 11 10 9 12 15 15 14 14 15 15 14 14 14 14 13 12 11 10 10 9 8 8 7 6 6 6 4 3 3 3 2 2 1 0 -1 -1 -1 -2 -2 -2 -2 -3 -3 -3 -3
18 17 16 8 12 10 8 10 14 12 13 14 14 15 14 14 13 12 12 11 10 9 8 8 8 7 6 6 5 4 3 2 2 2 2 1 -0 -1 -1 -2 -2 -2 -2 -3 -3 -3 -3 -3 -3

GFSSGP_850_temp_036.txt.gz
Temp
20 20 21 21 19 17 17 21 21 20 19 19 20 19 17 17 18 17 16 16 17 17 17 17 17 17 17 17 17 17 16 16 16 16 16 15 15 15 15 15 15 15 15 15 15 15 15 15 14
20 20 21 21 17 16 18 21 20 21 20 19 19 19 18 16 16 15 15 16 17 18 17 17 17 17 17 17 17 17 17 17 16 16 16 15 15 15 15 15 15 15 14 14 14 14 14 15 14
21 21 21 17 16 16 19 22 21 21 21 21 20 19 19 16 16 16 17 16 17 17 17 17 17 17 17 17 17 17 17 16 16 16 16 16 15 15 15 15 15 15 15 15 14 14 14 14 14
20 21 20 18 18 19 21 21 22 21 20 20 19 18 18 17 17 17 17 16 17 17 17 17 17 17 18 17 17 17 16 16 16 16 16 15 15 15 15 15 15 15 15 14 14 14 14 14 14
21 20 17 17 18 22 22 23 23 21 20 19 19 17 17 18 18 16 17 16 17 17 17 17 17 17 17 17 17 17 16 16 16 15 15 15 15 15 15 15 15 14 14 14 14 15 15 15 15
20 20 17 18 18 22 23 23 21 19 18 18 18 18 17 16 17 16 17 17 17 17 17 17 17 17 17 17 17 17 16 16 15 15 15 15 15 15 15 15 14 14 14 14 14 14 14 14 14
18 17 17 19 18 19 23 23 21 19 19 19 18 17 17 17 17 17 17 17 17 17 17 17 17 17 17 17 17 16 16 15 15 15 15 15 15 14 14 14 14 13 13 14 13 13 13 14 14
21 17 19 19 18 19 22 22 22 21 19 19 20 16 17 17 17 17 17 17 17 17 17 17 16 16 16 16 16 16 16 15 15 15 15 14 15 14 13 13 13 13 13 13 12 12 13 13 13
21 17 16 18 20 21 22 21 22 22 20 19 20 18 18 18 17 17 17 17 16 16 16 16 16 16 15 15 15 15 15 15 15 15 15 15 14 14 13 13 13 13 12 12 12 12 12 12 12
19 16 18 20 21 21 21 22 22 20 19 17 18 18 18 18 18 17 17 17 16 16 16 16 16 16 15 15 15 14 14 14 14 14 14 14 14 13 13 13 13 13 12 12 12 12 12 12 12
20 19 21 21 23 24 22 22 23 18 17 18 17 18 18 18 18 17 17 17 18 17 16 16 16 15 15 15 15 14 14 14 14 14 13 13 14 13 13 13 13 13 13 13 12 12 12 12 12
20 21 23 22 22 23 21 23 22 23 20 20 19 18 18 18 18 18 17 17 17 17 16 16 16 16 15 15 15 15 14 14 14 14 13 13 13 13 13 13 13 13 13 13 12 12 11 11 11
20 21 23 23 23 23 23 22 21 22 21 20 19 18 18 18 18 18 18 18 17 17 17 16 17 17 16 15 15 15 15 14 14 14 13 13 13 13 13 13 13 12 12 12 12 11 11 11 11
22 22 23 23 23 23 22 21 23 21 21 19 19 19 19 19 19 19 18 18 17 17 17 17 17 17 17 17 16 15 15 14 14 14 14 13 13 13 13 13 12 12 12 11 11 11 11 11 11
23 20 21 22 23 22 23 21 19 21 21 19 19 19 19 20 20 20 19 19 18 18 18 18 17 16 16 16 16 15 15 14 14 14 13 13 13 13 13 12 13 12 11 11 11 11 11 10 10
20 19 19 21 21 23 21 18 20 21 20 19 19 19 20 19 20 20 19 19 19 18 18 17 16 16 16 16 15 14 14 14 14 14 13 13 13 13 13 12 11 11 11 11 11 11 10 10 9
18 18 19 21 20 21 20 19 20 22 22 21 18 19 18 18 18 18 19 19 18 18 17 16 16 16 16 15 14 14 14 13 13 13 13 12 12 12 11 11 10 11 11 10 10 9 9 8 8
18 18 19 19 20 20 19 19 20 21 20 16 15 14 15 16 15 16 17 17 17 17 16 16 16 15 15 14 14 13 13 13 13 12 12 11 11 11 11 10 10 10 10 10 9 9 8 8 7
21 19 18 19 21 21 18 18 18 15 15 13 14 14 13 14 14 15 15 15 15 15 15 14 13 12 12 11 11 12 12 12 12 11 11 10 10 10 9 9 9 9 8 8 7 7 7 7 7
19 18 18 19 20 19 17 18 16 15 14 14 14 14 14 13 14 14 15 14 15 13 13 13 12 12 12 13 12 12 12 12 11 10 10 9 9 9 9 9 8 8 7 7 6 6 6 6 5
17 17 18 19 19 19 17 17 16 15 15 14 14 15 15 15 14 14 14 13 13 13 13 13 12 12 12 12 11 11 11 11 11 10 10 9 9 8 8 7 6 6 6 6 6 5 5 4 3
17 19 19 18 16 16 17 14 16 15 14 14 13 14 14 14 14 14 13 13 13 13 13 13 12 11 11 11 12 12 11 10 9 9 9 8 8 7 7 6 6 6 5 5 3 2 2 2 2
18 19 19 18 16 16 15 14 14 14 13 13 12 13 13 14 14 14 13 13 13 13 12 12 12 11 11 11 10 10 9 9 8 7 7 7 6 6 6 5 5 4 3 2 2 1 1 1 0
19 18 15 15 14 13 16 15 13 13 14 13 13 13 14 14 14 13 13 13 12 12 12 11 11 11 11 10 10 10 9 9 8 7 7 6 5 5 4 4 3 2 2 1 1 0 -0 -0 -0
17 14 12 13 11 12 16 14 14 14 15 14 12 14 14 14 14 14 13 13 12 12 11 11 11 10 10 10 9 8 8 7 6 6 6 5 5 4 3 2 2 1 1 0 -0 -0 -1 -1 -1
17 15 10 14 11 12 14 13 13 13 14 15 15 15 14 14 14 14 13 13 12 12 12 11 11 10 9 9 8 8 7 6 6 5 5 4 3 2 2 1 1 0 -1 -1 -1 -1 -2 -2 -2
17 14 15 12 11 10 13 14 14 14 15 15 14 14 13 13 14 14 13 12 12 11 11 10 10 9 9 8 8 7 6 6 5 5 4 3 2 2 1 0 -1 -1 -1 -2 -2 -2 -2 -2 -3
17 16 14 10 12 13 12 13 12 13 13 14 13 13 13 14 13 13 12 11 11 10 10 9 9 8 8 8 7 6 5 5 4 4 3 2 2 1 1 -0 -1 -1 -1 -2 -3 -3 -3 -3 -3
15 14 14 12 10 9 8 11 13 12 12 12 13 14 14 13 12 11 10 10 9 9 9 8 8 8 7 6 6 6 5 4 4 4 3 2 2 1 1 -0 -1 -2 -2 -2 -3 -3 -3 -3 -3
17 16 13 8 13 8 7 9 13 12 14 14 14 12 12 11 10 9 9 9 9 8 7 7 6 6 6 5 5 5 5 4 3 3 3 2 1 1 0 -1 -2 -2 -2 -3 -3 -3 -3 -3 -4

GFSSGP_850_temp_039.txt.gz
Temp
19 20 20 20 19 15 16 18 20 19 18 18 19 19 17 15 17 16 16 16 16 17 17 17 17 17 17 17 17 17 17 16 16 15 15 15 15 15 15 15 15 15 15 14 14 14 14 15 15
20 20 20 21 18 16 17 20 19 19 18 19 19 18 17 15 14 15 14 15 16 17 17 17 17 17 17 17 17 17 16 16 16 16 16 16 15 15 15 15 15 15 15 15 15 14 15 15 15
20 20 21 17 16 17 18 20 18 19 19 20 19 18 17 14 15 15 15 15 16 16 16 17 16 17 17 17 17 17 17 16 16 16 16 16 16 16 15 15 15 15 15 15 15 14 14 14 14
20 20 20 18 17 17 19 19 20 19 19 19 18 18 17 16 15 16 15 15 16 16 16 17 17 17 17 17 17 17 16 16 16 16 16 16 15 15 15 15 15 15 15 15 14 15 15 15 14
19 21 17 17 18 19 21 20 21 19 19 19 18 17 16 16 16 16 16 15 16 16 17 17 17 17 17 17 17 16 16 16 16 16 16 15 15 15 15 15 15 15 14 14 14 15 14 14 14
19 19 17 17 17 18 21 21 20 18 18 18 17 17 14 16 17 16 16 16 16 17 17 17 17 17 17 17 17 16 16 16 16 16 15 15 15 15 15 14 14 14 14 14 14 14 14 14 14
17 16 17 16 17 18 21 20 19 18 18 18 18 15 14 15 16 16 16 16 17 17 17 17 17 17 16 16 16 16 16 16 16 16 15 15 14 14 14 14 14 14 14 13 13 13 13 13 13
20 15 17 16 17 18 20 21 19 19 18 18 18 15 14 16 16 16 16 16 17 17 17 17 16 16 16 16 16 16 16 16 16 15 14 14 14 14 13 13 13 13 13 13 13 13 13 13 13
20 16 16 16 18 19 22 20 20 20 18 18 18 17 17 16 16 16 16 16 17 17 16 16 16 16 15 15 15 15 15 15 15 14 14 14 14 13 13 13 13 13 13 13 13 13 13 13 12
18 15 16 18 18 18 21 20 20 19 17 16 17 17 17 16 16 17 17 17 16 16 16 16 16 16 15 15 14 14 14 14 15 15 14 14 14 14 14 13 13 13 12 12 12 12 12 12 12
19 19 18 20 20 21 21 19 20 17 16 18 17 17 17 17 17 17 17 17 18 17 16 16 16 16 15 15 14 14 14 14 14 14 14 14 14 13 13 13 13 13 13 12 12 12 12 11 11
20 21 21 21 21 21 19 21 19 19 19 20 19 18 17 17 17 17 17 17 17 17 17 16 16 16 15 15 15 15 15 15 15 15 14 14 13 13 13 13 13 13 12 12 12 11 11 11 11
20 20 22 22 22 22 21 21 20 20 20 19 18 18 17 17 18 18 19 17 17 17 16 16 16 17 17 17 16 15 15 15 15 14 14 13 13 13 13 13 13 12 12 12 11 11 11 11 11
21 21 21 22 22 22 21 20 21 19 19 18 18 18 18 18 18 18 18 17 17 17 16 16 16 16 16 16 16 15 15 14 14 14 14 13 13 13 13 13 13 12 12 11 11 11 11 11 11
21 19 20 21 22 21 22 20 19 19 18 18 18 18 18 18 18 18 18 17 17 17 17 16 16 16 16 15 15 15 14 14 14 14 14 13 13 13 13 12 12 11 11 11 11 11 10 10 10
19 17 18 20 21 20 20 18 20 18 18 17 17 16 17 16 16 17 17 17 17 17 16 16 15 14 14 14 14 14 14 13 13 13 13 13 12 12 12 11 11 11 11 10 10 10 10 10 9
16 17 19 20 19 20 20 19 19 18 17 16 16 17 17 16 16 17 17 18 17 17 16 16 14 14 13 12 14 13 13 13 13 13 12 12 12 11 11 11 11 10 10 10 9 9 9 9 9
18 18 18 19 19 19 19 18 14 18 18 15 15 15 16 15 16 16 17 18 17 16 15 16 13 13 13 12 11 12 13 12 12 12 12 11 11 11 10 10 9 10 9 9 8 8 8 7 7
18 18 17 19 19 18 18 15 12 12 13 12 12 12 13 14 13 13 14 15 15 15 15 16 14 12 12 12 12 11 12 11 11 11 11 11 10 10 10 9 9 8 8 8 7 7 7 7 6
17 17 18 19 17 17 15 13 12 13 12 11 11 11 12 12 13 13 13 14 14 13 13 13 12 12 12 12 11 11 11 11 11 10 10 10 10 9 9 8 7 7 7 6 6 6 6 5 5
16 17 17 18 17 16 15 14 13 12 12 12 12 12 13 14 14 13 13 12 12 12 12 12 12 12 12 12 11 11 11 11 11 10 10 9 9 8 7 7 6 5 5 5 5 4 4 3 3
17 18 18 18 16 15 15 13 14 14 12 11 11 12 12 12 13 13 13 13 13 12 12 12 12 12 12 12 12 12 11 11 10 9 8 8 7 6 6 6 5 4 4 4 3 2 2 1 1
18 18 18 17 14 15 15 13 12 12 12 11 11 12 12 13 13 14 13 13 12 13 13 12 12 12 11 11 11 10 10 9 9 8 7 6 6 5 5 4 4 3 2 2 1 1 0 -1 -1
18 16 14 12 13 13 15 13 12 11 12 11 11 12 13 13 13 13 13 13 13 12 12 12 11 11 11 11 10 10 9 9 8 7 6 6 5 5 4 3 2 2 1 1 0 -0 -1 -1 -1
15 13 12 13 11 12 13 13 13 13 12 12 11 12 12 12 13 13 13 13 13 12 11 11 10 10 10 10 10 9 8 7 6 6 5 5 4 3 3 2 2 2 1 -0 -1 -1 -1 -2 -2
16 14 9 14 11 12 13 12 12 12 13 14 13 13 13 14 14 13 14 13 11 11 11 10 10 10 10 9 9 8 7 6 6 5 5 4 3 2 2 2 1 1 -1 -1 -2 -2 -2 -2 -2
16 13 14 10 9 9 11 13 13 13 11 12 14 13 13 13 13 13 12 11 11 11 10 10 10 9 9 8 7 7 6 5 5 5 4 4 3 2 2 1 1 -1 -2 -2 -2 -2 -2 -3 -3
15 15 13 9 11 13 11 12 11 11 11 12 12 13 13 12 12 12 11 11 10 10 9 9 9 8 8 7 6 6 5 5 4 4 3 3 2 2 1 1 1 -0 -1 -2 -3 -3 -3 -3 -3
14 14 11 11 9 9 8 10 11 11 12 12 12 12 12 11 11 11 10 10 10 9 9 8 7 7 6 5 5 5 4 4 3 3 2 2 2 1 1 1 0 -1 -2 -2 -2 -3 -3 -3 -3
15 15 11 7 12 7 6 9 12 10 11 12 11 10 9 10 9 9 9 9 8 8 7 6 5 5 5 5 5 4 4 3 3 2 2 2 1 1 -0 -1 -2 -2 -2 -2 -3 -3 -4 -4 -4

GFSSGP_850_temp_042.txt.gz
Temp
19 19 19 19 18 15 16 19 19 19 17 17 17 18 16 14 16 16 15 16 16 16 16 16 16 17 17 17 17 17 16 16 16 16 15 15 15 15 15 15 15 15 15 14 15 15 15 15 15
19 20 19 19 17 16 16 18 19 17 17 18 18 17 16 15 15 14 15 16 16 16 16 16 16 17 17 17 17 16 16 16 16 16 16 16 16 15 15 15 15 15 15 15 15 15 15 15 14
19 19 19 15 14 16 16 18 18 18 19 19 18 17 17 15 14 15 15 15 16 16 16 16 16 16 16 17 16 16 16 17 16 16 16 16 15 15 15 15 15 15 14 14 14 14 14 14 14
20 19 18 16 17 18 19 18 19 18 19 20 20 17 17 15 16 16 16 15 15 15 15 15 16 16 16 17 17 17 17 16 16 16 15 15 15 15 15 15 15 14 14 14 14 14 14 14 14
19 18 15 15 17 17 19 19 19 18 18 19 20 16 16 17 16 16 16 15 15 15 15 15 16 17 17 17 17 16 16 16 16 15 15 15 15 15 15 15 15 14 14 14 14 14 14 13 13
18 18 14 15 16 17 19 20 18 18 18 17 17 15 14 16 16 16 15 15 15 15 15 16 16 17 17 17 16 16 16 16 15 15 15 15 15 15 14 14 14 14 13 13 13 13 13 13 13
17 13 15 15 17 18 19 20 18 18 17 17 17 14 14 16 15 16 15 15 15 15 16 16 16 17 16 17 16 16 16 15 15 15 15 15 15 14 14 14 14 14 13 13 13 13 13 13 12
19 13 16 16 17 18 20 19 19 20 18 18 18 14 14 15 15 15 14 14 15 16 16 17 17 17 16 16 16 16 16 15 15 15 14 14 14 14 14 14 14 14 13 13 13 13 13 13 12
19 15 14 15 17 18 20 18 19 18 18 17 17 16 17 16 15 15 14 15 16 16 16 16 16 16 16 16 16 16 16 15 15 14 14 14 14 13 13 13 13 13 13 13 12 13 13 12 12
17 14 16 17 17 18 20 19 19 18 17 16 17 16 16 16 15 15 15 16 16 17 17 16 16 16 16 15 15 15 15 15 15 14 14 13 14 13 13 13 13 12 12 12 12 12 12 12 12
17 17 17 18 22 22 19 19 19 17 16 17 17 16 16 16 15 16 16 17 18 17 16 17 16 15 15 15 15 15 15 14 14 14 14 14 13 13 13 13 13 12 12 12 12 11 11 11 11
19 19 19 20 20 19 18 20 17 18 20 19 19 17 16 16 16 17 17 17 17 17 17 16 16 16 15 15 15 14 14 14 14 14 14 13 13 13 13 13 12 12 12 12 12 12 11 11 11
19 20 19 20 20 19 20 19 18 19 20 19 18 17 17 17 17 17 18 18 17 17 17 16 16 15 15 14 14 14 14 14 13 13 14 13 13 13 13 13 12 12 12 12 12 11 11 11 11
20 19 19 20 20 21 19 18 20 18 19 18 18 17 17 17 17 17 17 18 17 17 17 16 15 15 14 14 14 14 14 14 13 13 13 13 12 12 12 12 12 12 12 11 11 11 11 10 10
20 19 18 19 20 19 21 20 18 18 18 18 17 16 16 16 16 17 17 17 17 17 16 16 15 14 14 13 13 13 13 14 13 13 13 12 12 12 12 11 11 11 11 11 10 10 10 10 10
18 16 17 19 20 19 19 17 19 17 18 16 16 15 15 15 16 17 17 17 17 16 16 15 15 14 13 13 13 13 13 13 13 13 13 12 12 11 11 11 11 11 10 10 10 10 9 9 9
15 17 18 20 19 19 20 19 14 16 16 15 15 15 15 16 16 16 17 17 17 16 16 15 14 13 12 12 12 11 12 12 12 12 13 12 12 12 11 11 10 9 9 8 9 8 8 8 8
17 18 18 19 19 19 18 13 10 14 15 14 14 14 15 15 16 16 16 17 17 17 16 15 13 12 11 11 10 10 10 11 12 12 11 11 11 10 10 10 9 8 8 8 8 7 7 6 6
18 17 18 17 18 16 13 11 10 11 12 11 11 12 12 14 13 14 14 14 14 13 13 12 12 12 11 10 10 10 11 11 11 11 11 10 10 10 9 9 8 8 7 7 6 5 5 6 5
16 16 17 17 15 15 12 11 10 11 10 10 10 10 11 11 11 12 12 12 12 12 12 13 13 12 12 11 11 11 11 11 11 11 10 10 9 9 8 7 7 6 6 5 5 5 4 4 4
15 16 17 17 16 14 14 13 11 11 11 10 10 11 11 12 12 12 13 13 12 13 13 13 13 12 12 12 12 11 11 11 10 9 9 8 8 7 7 6 6 5 5 4 4 4 3 3 3
17 17 17 16 15 15 14 14 13 11 10 10 10 11 11 11 12 12 13 13 13 13 13 13 12 12 12 12 11 11 11 10 9 8 8 7 7 6 6 5 5 4 3 3 3 3 2 2 1
17 15 16 15 13 14 14 12 12 11 11 10 10 10 11 12 12 12 12 13 13 13 12 12 12 12 11 11 10 10 9 9 8 7 7 6 6 5 5 4 3 3 2 2 2 1 0 -0 -1
16 14 12 11 11 12 14 13 12 10 11 10 10 11 12 12 12 13 12 13 13 12 11 11 11 10 10 10 9 9 9 8 7 6 6 5 5 4 4 3 2 2 2 2 0 -0 -1 -2 -2
13 13 11 12 11 11 12 12 12 12 11 11 10 12 12 13 13 13 12 11 11 11 10 10 10 10 10 9 8 8 7 7 6 5 5 5 4 3 3 2 2 1 1 1 0 -1 -2 -2 -2
15 13 10 14 11 12 12 12 12 11 12 13 13 14 13 13 12 12 11 11 10 10 10 10 9 9 9 8 7 7 6 5 5 4 4 4 3 3 3 2 1 1 1 0 -1 -2 -2 -2 -2
15 12 12 9 9 9 10 12 12 10 10 11 12 13 13 12 12 11 11 11 10 10 10 9 9 8 8 7 6 5 5 4 4 4 4 3 3 2 2 1 1 0 -1 -2 -2 -2 -2 -3 -3
16 13 13 9 11 13 11 11 10 10 10 10 10 11 12 12 11 11 11 10 10 10 9 9 8 7 7 6 5 5 4 4 3 3 3 3 2 2 1 0 -0 -0 -1 -2 -3 -2 -3 -3 -3
14 13 10 9 8 8 7 10 10 10 10 10 11 12 11 11 10 10 10 10 9 8 9 8 7 6 6 5 5 4 4 3 3 2 2 2 1 1 0 -0 -0 -1 -1 -2 -3 -3 -3 -4 -4
14 14 11 7 11 7 6 8 10 9 11 12 10 9 8 9 9 8 8 8 8 8 8 7 7 5 5 4 4 4 3 3 2 2 2 1 1 0 -0 -1 -1 -2 -3 -3 -4 -4 -4 -4 -5

GFSSGP_850_temp_045.txt.gz
Temp
19 19 19 19 20 20 20 20 20 19 18 17 17 19 17 16 17 18 14 15 16 16 16 16 15 15 16 16 16 16 16 16 16 15 15 15 15 15 15 15 15 15 15 14 14 14 14 15 15
18 19 19 18 20 21 21 20 19 18 16 17 17 16 17 16 15 14 14 15 16 16 16 16 16 16 16 16 16 16 16 16 15 15 16 16 16 15 15 15 15 15 14 14 14 14 14 14 14
18 19 19 20 19 21 21 20 18 18 17 17 17 17 16 15 14 14 15 16 16 16 16 16 16 16 16 16 16 16 16 15 16 16 16 16 15 15 15 15 15 14 14 14 14 14 14 14 14
19 19 17 20 20 20 21 20 19 19 18 18 18 18 16 16 15 16 14 15 16 16 15 16 15 15 15 16 16 16 16 16 16 16 15 15 15 15 15 14 14 14 14 14 14 14 14 14 14
18 18 19 19 18 19 19 20 19 19 17 18 18 16 16 17 16 16 15 15 16 15 15 15 15 15 16 16 16 16 16 16 16 15 15 15 15 15 15 14 14 14 14 14 14 14 13 13 13
18 17 19 19 19 19 19 18 19 18 18 17 17 16 14 15 16 16 16 15 15 15 15 15 15 15 16 16 16 16 16 16 15 15 15 15 14 14 14 14 14 14 13 13 13 13 13 13 13
18 18 18 18 19 19 19 18 19 19 19 18 17 15 13 14 15 16 16 15 15 15 15 15 16 16 16 16 16 16 15 15 15 15 15 14 14 14 14 14 13 13 13 13 13 13 13 12 13
19 18 17 17 19 18 19 19 20 19 18 17 17 16 14 14 15 15 15 15 14 15 15 16 16 16 16 16 16 15 15 15 15 14 14 14 14 14 14 14 13 13 13 13 13 13 12 12 12
18 19 18 19 19 18 18 18 19 18 17 17 16 16 16 16 15 15 14 14 15 16 16 16 16 16 16 16 15 15 15 15 14 14 14 14 14 14 14 13 13 13 13 13 12 12 12 12 12
18 19 18 19 19 16 17 18 18 18 17 16 16 16 16 16 15 15 15 15 16 16 16 16 16 16 16 15 15 15 15 15 14 14 14 14 14 13 13 13 13 12 12 12 12 12 12 12 12
18 20 19 19 20 20 18 18 18 18 18 17 15 15 15 15 15 15 15 16 17 17 17 16 15 15 15 14 15 14 14 14 14 13 13 13 13 13 13 13 12 12 12 12 12 12 12 11 11
19 19 19 21 20 19 19 18 17 19 18 18 17 17 16 16 16 16 17 17 17 17 16 15 15 14 14 14 14 13 13 13 13 13 13 13 13 12 12 12 12 12 12 12 12 12 11 11 11
19 19 19 20 19 19 19 19 19 18 19 19 18 17 17 16 16 17 17 17 17 17 16 15 15 14 14 13 13 13 13 13 13 13 12 12 12 12 12 12 12 12 12 12 12 11 11 11 11
19 18 18 18 19 20 19 18 19 18 19 18 17 16 16 16 16 17 17 17 17 16 15 15 15 14 13 13 13 13 13 13 13 13 13 13 12 12 11 11 12 12 12 12 11 11 10 10 10
19 18 18 18 19 19 20 19 18 18 17 17 15 15 15 16 15 16 16 17 16 16 15 15 14 14 13 13 13 13 13 13 13 13 13 13 12 12 11 11 11 11 11 10 10 9 9 9 9
19 18 19 19 19 18 20 19 15 15 16 15 14 14 15 15 15 15 15 16 16 16 15 15 14 13 13 13 13 12 13 13 12 12 12 12 12 12 11 10 10 10 9 9 9 9 8 8 8
18 19 19 19 18 19 20 18 13 13 14 14 14 14 15 15 15 15 15 15 16 15 15 15 14 12 13 13 13 10 11 10 10 11 11 11 11 10 10 10 9 9 9 8 8 8 7 7 7
18 18 18 19 19 18 17 15 13 12 13 12 12 14 14 15 15 15 16 16 16 16 15 14 12 11 11 12 10 11 10 10 11 11 11 11 11 10 10 9 9 8 7 7 6 6 6 6 6
18 18 19 18 17 15 14 14 12 11 11 11 11 12 13 13 14 14 15 15 14 13 12 12 13 11 12 10 11 10 10 11 11 11 10 10 10 9 9 8 8 7 6 6 6 5 5 5 4
17 17 17 17 15 16 14 13 12 11 10 10 10 10 12 12 12 13 13 12 12 12 12 12 12 11 11 11 10 10 11 11 10 10 9 9 8 8 7 7 6 6 5 5 4 4 4 4 4
16 17 17 18 16 15 16 16 14 11 10 9 9 10 11 11 11 12 12 13 13 13 13 13 12 12 12 11 11 11 11 10 10 9 9 8 7 7 6 6 5 5 4 4 3 3 3 3 2
17 16 16 17 17 18 15 18 15 12 11 11 10 10 10 11 11 12 13 13 13 13 13 13 12 12 11 11 11 10 10 10 9 8 8 7 6 6 5 5 4 4 3 3 3 2 2 1 -0
16 15 16 15 16 16 16 18 16 12 12 11 10 10 11 12 12 13 13 12 12 12 12 12 12 11 11 11 10 10 9 8 7 7 6 6 5 5 4 4 4 3 3 2 2 2 1 -0 -1
14 16 15 14 15 16 15 16 17 14 13 12 11 10 11 12 12 12 12 13 12 12 11 11 11 11 10 10 9 9 8 7 6 6 5 5 5 4 4 3 3 2 2 1 1 0 -0 -1 -2
16 16 15 16 15 16 13 14 16 14 13 14 12 11 12 12 12 12 12 11 11 11 10 10 10 9 9 9 8 8 7 6 6 5 5 4 4 4 3 2 2 1 1 0 0 -0 -1 -2 -2
15 16 15 15 15 15 13 15 16 13 12 12 12 12 13 12 12 11 11 11 11 10 10 10 9 9 9 8 7 6 6 5 5 4 4 4 3 3 2 2 1 1 0 0 -0 -1 -1 -2 -2
15 15 14 12 10 13 14 14 14 12 11 12 12 11 11 12 11 11 10 10 10 9 9 9 9 8 7 7 6 5 5 4 4 3 3 3 2 2 2 1 1 0 -0 -0 -1 -1 -2 -2 -3
16 14 14 13 13 14 14 13 16 13 13 12 12 12 11 11 11 11 10 9 9 9 9 8 8 7 6 6 5 5 4 3 3 3 3 2 2 1 1 1 0 -0 -0 -1 -2 -2 -3 -3 -4
15 14 11 12 12 13 13 15 12 13 13 13 13 11 10 10 10 9 9 8 8 8 7 7 7 6 6 5 5 4 4 3 3 3 2 2 1 1 0 0 -0 -1 -1 -2 -2 -3 -4 -4 -4
14 14 13 13 13 9 11 14 11 11 12 11 11 10 10 9 8 8 7 7 7 7 7 7 6 5 5 5 4 4 3 3 3 2 1 1 0 -0 -1 -1 -1 -2 -2 -3 -3 -4 -4 -5 -5

GFSSGP_850_temp_048.txt.gz
Temp
18 18 18 19 24 25 26 25 25 22 21 21 20 21 23 21 22 19 14 14 15 14 14 15 15 16 16 16 16 16 16 16 16 15 15 15 15 15 15 15 14 15 15 15 15 15 15 15 15
18 19 18 22 24 25 27 26 24 22 20 19 19 20 20 19 16 14 14 14 14 14 14 15 16 16 15 15 15 15 15 15 15 15 15 15 15 15 15 15 15 15 15 14 14 15 15 15 15
18 19 22 25 25 25 26 25 23 20 19 18 17 17 18 17 15 14 14 14 14 14 14 15 15 15 15 15 15 15 15 15 15 15 15 15 15 15 15 15 15 14 14 14 15 15 15 15 15
18 19 21 24 25 24 25 24 22 21 20 19 16 15 15 16 16 15 15 14 14 14 14 16 15 15 15 15 15 15 15 15 15 15 15 15 15 15 15 15 14 14 14 14 14 14 14 14 14
19 21 24 24 24 24 24 23 22 22 19 19 19 17 16 14 15 16 16 14 14 15 14 15 15 15 15 15 15 15 15 15 15 15 15 15 15 15 14 14 14 14 14 14 14 14 14 14 14
22 22 23 24 24 23 24 22 22 23 20 18 19 19 16 14 15 15 15 15 15 14 14 15 14 15 15 15 15 15 15 15 15 15 15 15 15 14 14 14 14 13 13 13 13 13 13 13 13
23 24 24 24 23 23 23 22 23 22 22 20 19 19 14 14 14 14 14 14 13 14 14 13 14 15 15 15 15 15 14 14 14 14 15 15 14 14 14 13 13 13 13 13 13 13 13 13 13
22 24 23 23 23 22 22 22 21 17 20 18 19 19 15 14 15 14 13 13 13 14 13 13 13 14 15 15 15 14 14 14 14 15 14 14 14 13 13 13 13 13 13 13 13 12 12 13 13
20 23 22 22 23 21 20 21 21 19 19 19 18 18 17 16 15 13 13 13 13 13 15 14 13 14 15 13 14 14 14 14 14 14 14 13 12 12 13 13 13 13 13 13 13 13 12 12 12
22 24 24 24 23 20 20 20 18 21 19 19 18 16 14 15 14 14 14 14 15 15 15 15 15 15 15 13 14 14 14 13 13 13 13 12 13 12 12 13 12 12 13 12 12 12 12 12 11
23 23 24 23 22 22 20 18 20 21 22 22 21 15 15 14 15 15 15 14 14 14 13 15 15 15 14 14 13 12 12 13 13 13 13 13 12 12 11 11 11 11 12 11 11 11 11 12 11
22 23 23 22 21 21 20 20 21 21 21 19 19 16 15 15 15 15 16 16 15 14 15 15 15 14 14 13 13 13 12 13 13 13 13 12 12 12 12 11 11 11 11 12 11 11 12 11 11
22 22 22 22 20 21 21 21 22 22 19 19 17 16 16 16 16 16 16 16 15 15 14 15 14 14 14 13 13 13 13 12 13 12 13 13 12 12 12 11 11 11 11 10 10 10 10 10 10
22 22 22 20 21 20 22 21 22 20 18 18 17 17 17 17 17 16 16 16 15 15 13 14 14 14 13 13 13 13 12 12 12 12 12 12 12 12 12 12 11 11 11 10 10 10 9 9 9
20 21 21 21 21 22 22 22 22 19 18 18 18 17 17 17 16 16 16 16 16 15 13 14 13 13 13 13 13 12 12 12 12 12 12 12 12 12 12 11 10 10 10 10 9 9 8 8 8
22 22 21 22 22 21 23 22 20 19 19 19 18 17 17 16 16 15 14 15 15 15 13 12 14 13 13 12 11 11 11 12 12 11 11 11 11 11 11 10 10 9 9 9 8 7 7 7 7
22 22 22 21 22 22 23 22 18 16 20 19 18 17 17 15 14 14 14 15 15 15 13 12 14 12 11 11 10 11 12 10 10 11 11 11 11 11 10 9 9 8 7 7 6 6 5 6 6
22 22 22 22 21 23 22 20 18 17 18 18 17 17 16 16 14 14 15 15 15 15 13 13 13 12 11 11 11 10 9 10 11 11 11 11 10 10 9 9 8 7 6 5 6 5 5 5 5
23 23 23 23 22 22 22 20 19 17 18 17 17 17 16 15 13 13 15 15 15 14 13 13 12 12 12 11 11 10 10 10 11 11 10 10 9 9 9 7 7 6 5 5 4 4 4 4 4
22 23 22 21 20 22 21 20 18 17 17 17 17 16 15 14 13 12 12 11 11 11 11 12 11 12 11 11 10 10 10 10 9 10 10 9 9 8 7 7 6 6 4 4 3 3 3 4 3
22 22 21 22 20 21 21 20 18 16 15 15 15 15 15 15 13 12 12 11 11 11 11 11 11 11 11 11 11 11 11 10 9 9 8 8 8 7 6 6 6 5 4 3 3 2 2 2 3
22 20 21 21 22 22 20 22 21 18 17 16 14 15 14 14 13 13 12 12 12 11 11 11 11 11 12 11 10 10 10 10 8 7 7 6 6 6 6 5 5 4 3 2 2 2 1 1 2
20 20 21 21 22 22 21 22 22 18 17 16 15 15 14 13 13 13 13 13 12 12 10 10 10 9 10 10 9 9 9 8 7 7 7 5 5 5 5 4 3 2 2 2 1 1 0 0 0
19 20 21 21 21 20 22 21 23 21 20 17 16 15 14 14 13 13 13 12 11 11 11 11 10 10 10 10 9 9 8 7 7 6 6 5 5 4 3 3 3 2 2 1 1 0 -0 -0 -1
20 21 20 19 19 20 18 19 22 19 18 18 16 15 14 14 13 13 12 12 11 10 10 10 9 9 10 9 8 8 7 6 5 5 5 5 5 4 4 3 2 2 1 0 0 -0 -1 -1 -1
20 21 19 18 18 19 17 19 21 18 17 17 16 15 15 14 13 13 12 12 11 10 10 9 9 9 9 8 7 6 5 5 5 5 4 4 4 3 3 2 2 1 1 0 -0 -1 -1 -1 -2
19 19 19 17 15 17 20 20 19 17 17 16 16 16 15 14 13 13 12 11 11 10 9 8 8 7 8 7 7 6 5 4 4 4 3 3 2 2 1 1 1 1 0 -0 -1 -1 -1 -2 -2
20 19 18 18 16 17 20 19 21 18 17 17 17 16 15 14 13 12 11 10 9 8 8 8 7 7 7 6 6 5 4 4 3 3 2 2 1 1 1 1 0 0 -0 -1 -1 -1 -1 -2 -2
18 18 18 19 17 18 18 21 19 19 19 18 17 16 15 13 12 11 10 8 8 7 7 7 6 6 6 5 4 4 4 3 3 2 1 1 1 1 0 0 -0 -0 -1 -1 -2 -2 -2 -3 -3
19 19 19 18 17 16 16 19 17 17 17 17 17 16 14 12 10 9 8 7 7 7 6 7 6 6 5 4 3 3 3 2 2 1 1 0 -0 -1 -1 -1 -1 -1 -2 -2 -3 -3 -4 -4 -4

GFSSGP_850_temp_051.txt.gz
Temp
19 19 20 21 24 26 27 29 29 24 24 24 24 24 25 21 20 20 17 17 16 15 15 16 16 16 16 16 16 16 16 16 16 15 15 15 15 15 15 15 15 15 15 15 15 15 15 15 15
19 20 21 23 25 26 28 30 28 23 24 23 21 22 22 20 17 16 16 16 16 15 15 16 16 16 16 16 16 16 15 15 15 15 15 15 15 15 15 15 15 15 15 15 15 15 15 15 15
18 20 22 26 26 27 28 29 26 24 22 22 21 19 19 18 16 15 15 15 15 15 15 16 15 16 15 15 15 15 15 15 15 15 15 15 15 15 15 15 15 15 15 15 15 15 14 14 14
20 21 22 25 26 28 28 23 25 23 22 21 20 19 16 14 15 14 15 15 15 15 15 16 15 15 15 15 15 14 14 14 15 15 15 15 15 15 15 15 14 14 14 15 14 14 14 14 14
20 23 25 26 27 28 28 24 24 22 23 22 22 18 15 15 16 14 14 15 15 15 15 16 15 15 15 15 14 14 14 14 15 14 14 15 14 14 14 14 14 14 14 14 14 14 14 14 14
23 24 25 26 27 27 27 25 22 23 22 20 21 19 18 15 14 15 15 15 15 15 14 15 15 15 14 14 14 14 14 14 14 14 14 14 14 14 14 14 14 14 14 14 14 14 14 14 14
24 26 25 27 26 25 26 23 23 22 19 18 21 21 17 15 14 14 14 15 15 14 14 14 15 14 14 14 14 14 14 14 14 14 14 14 14 14 14 14 14 13 13 13 13 13 13 13 13
24 26 25 26 24 25 24 23 22 22 20 19 20 21 18 16 15 15 15 14 14 14 14 14 13 13 13 14 14 14 14 14 14 14 14 13 13 13 13 13 13 13 13 13 13 13 13 13 13
23 25 25 22 20 24 22 22 17 20 21 21 21 21 20 15 14 14 13 14 14 15 15 15 14 13 13 12 14 14 14 14 14 14 13 13 12 12 12 13 13 13 13 13 13 13 13 13 12
24 25 24 25 21 16 21 23 21 22 22 22 21 18 15 14 15 14 14 15 15 15 15 14 13 13 13 13 14 12 13 13 12 12 12 13 12 13 13 13 13 13 12 13 12 12 12 12 13
24 24 25 26 23 23 23 22 20 20 22 21 22 18 16 17 16 16 15 17 16 15 15 13 12 12 13 13 13 13 13 12 12 12 12 13 12 13 13 13 13 12 12 12 12 12 12 12 11
24 25 25 24 19 23 23 21 20 20 17 22 21 19 18 18 18 18 18 17 16 15 14 13 14 14 12 13 14 13 14 13 13 13 13 12 12 12 12 13 13 12 12 12 12 12 11 10 10
24 24 23 18 23 23 22 22 18 23 22 22 20 19 19 19 19 18 18 18 17 16 14 13 12 14 13 13 13 13 13 13 13 12 12 12 12 12 12 12 12 13 11 12 11 11 11 10 10
24 23 22 23 23 23 23 23 23 22 22 21 19 20 20 19 19 19 19 18 17 16 15 13 13 12 12 12 12 12 12 12 11 11 12 12 12 12 12 12 11 11 10 10 10 10 9 9 9
23 22 23 23 23 23 23 23 23 22 21 21 21 20 20 20 20 19 19 18 17 16 15 14 13 13 13 12 11 11 10 11 12 12 12 12 12 12 11 11 10 10 10 10 10 8 8 9 9
22 22 22 24 24 24 24 23 24 22 21 21 21 20 20 19 20 19 18 18 18 17 15 14 13 12 11 10 10 10 12 13 13 11 11 11 11 11 11 11 10 10 9 9 8 8 8 8 8
23 21 22 23 24 25 24 23 23 22 22 21 21 20 20 19 19 18 17 17 17 17 15 13 12 12 12 12 12 12 13 11 11 10 10 11 11 10 10 9 8 8 8 7 7 7 6 7 7
22 23 24 23 24 24 24 23 23 22 23 22 21 21 20 18 18 16 16 16 17 17 15 13 12 12 12 12 11 11 11 11 11 10 11 10 9 9 8 8 7 7 7 7 6 5 5 5 6
25 24 24 24 25 24 24 23 23 23 22 21 21 20 20 19 17 16 15 15 16 15 14 12 12 12 12 11 10 10 11 10 9 9 8 8 8 7 7 8 7 7 7 6 5 5 5 5 5
24 24 23 24 24 24 24 23 22 21 21 21 21 20 20 18 16 15 15 14 14 13 12 11 11 11 10 11 11 11 10 10 11 9 8 8 8 9 7 8 7 6 6 5 5 4 4 4 5
24 23 23 23 23 24 24 23 22 22 22 21 21 21 20 18 17 16 15 13 12 12 11 12 12 12 12 12 11 11 11 10 10 9 9 8 9 8 8 6 5 5 5 5 4 4 3 3 3
22 24 24 24 23 22 24 22 22 22 21 20 19 20 19 18 17 16 15 14 13 13 13 13 13 12 12 12 12 11 12 12 11 10 9 8 7 6 5 5 5 4 4 4 4 3 2 2 3
22 23 24 24 24 22 24 23 22 22 21 20 19 19 18 17 16 16 15 14 14 13 13 13 12 12 11 11 11 11 11 10 9 9 7 7 6 6 5 5 4 4 4 4 3 3 2 2 2
23 23 23 23 23 22 24 24 23 23 23 22 20 19 18 17 16 16 15 14 13 12 11 11 11 11 10 10 10 10 9 9 9 8 7 7 7 6 6 5 4 4 4 3 3 2 1 1 1
23 23 21 20 21 21 23 22 24 23 22 23 20 18 17 17 16 16 15 14 13 12 11 11 11 11 10 9 9 8 8 8 7 7 7 6 6 6 5 5 4 3 3 3 2 1 1 1 -0
23 23 21 19 20 22 22 21 23 22 21 21 20 18 17 16 16 16 15 15 13 12 11 11 11 10 9 8 8 7 7 7 6 6 6 5 5 5 4 3 3 3 3 2 2 1 0 -0 -0
22 21 22 21 20 19 22 23 21 21 21 20 19 18 17 17 16 16 15 14 13 12 12 11 11 10 8 7 7 6 6 6 5 5 4 4 4 4 3 2 2 2 2 2 1 1 -0 -0 -1
21 22 20 21 17 18 23 23 23 20 20 20 20 19 18 17 16 16 15 14 13 12 11 10 10 9 6 6 7 6 6 5 5 4 4 3 3 2 2 2 1 1 1 1 1 0 -0 -1 -1
21 21 21 21 21 19 19 22 23 22 21 20 20 19 18 17 16 16 15 14 12 11 10 8 8 7 6 7 6 5 5 5 4 4 3 3 2 2 1 1 1 0 0 0 0 -1 -1 -1 -2
22 22 22 19 19 19 19 20 22 22 21 21 20 19 18 17 16 15 14 12 11 10 9 8 7 6 6 6 5 5 4 4 4 3 3 2 1 1 0 0 -0 -0 -0 -0 -1 -2 -2 -3 -3

GFSSGP_850_temp_057.txt.gz
Temp
19 19 19 19 15 14 16 19 22 21 18 18 20 19 16 16 17 16 15 16 17 17 17 18 17 16 15 16 16 16 16 16 16 16 15 15 15 15 15 15 15 15 15 15 16 16 15 15 16
19 19 18 19 15 14 16 21 18 17 18 19 20 19 18 16 15 15 15 15 17 16 17 17 17 16 15 16 15 15 16 16 15 15 15 15 15 15 15 15 15 15 15 15 15 15 15 15 15
19 19 19 14 14 15 17 19 17 18 19 20 19 18 17 15 15 15 15 15 15 15 16 15 16 15 15 15 15 15 15 15 15 15 15 15 15 15 15 15 15 15 15 15 15 15 15 15 15
19 20 21 16 16 18 20 16 18 18 19 20 19 15 16 15 15 15 15 14 15 15 16 16 15 15 15 15 14 15 15 15 15 15 15 15 15 15 15 15 15 15 15 15 15 15 15 15 15
18 19 15 16 17 20 22 19 18 18 18 19 19 17 14 14 15 15 15 14 15 15 15 15 15 15 15 14 14 14 15 15 15 15 15 15 15 15 15 15 15 15 15 15 15 15 15 14 14
18 20 15 16 19 17 17 16 17 18 20 19 17 16 14 14 14 14 16 15 15 15 13 13 14 15 14 14 14 14 15 15 15 15 15 15 15 15 15 15 15 15 15 15 15 15 14 14 14
18 15 15 17 19 17 16 16 15 17 20 20 19 16 14 14 14 14 14 14 13 13 13 13 13 14 14 14 14 15 15 15 14 15 15 14 15 14 14 15 14 14 14 14 14 14 14 14 13
21 15 17 18 20 14 15 15 15 15 18 19 17 16 14 15 14 14 14 14 13 13 14 13 14 14 15 15 15 15 15 15 15 14 14 14 14 14 14 14 14 14 14 14 14 14 13 13 12
21 16 17 18 20 15 15 16 16 17 17 16 14 15 17 14 14 14 14 13 13 12 13 13 14 14 15 15 15 15 14 14 14 14 14 14 13 13 13 14 13 13 13 13 13 13 12 12 12
19 15 19 20 18 16 15 15 15 16 17 14 15 15 15 15 14 13 13 12 12 13 13 13 14 14 15 14 14 14 14 14 14 13 13 13 13 13 13 13 12 12 12 12 12 12 12 12 12
21 17 20 19 18 16 15 15 15 15 14 16 15 14 16 15 14 14 13 12 14 13 12 13 14 14 14 15 14 14 13 13 13 13 13 12 12 12 12 12 12 12 12 12 11 12 11 11 11
20 21 20 19 18 17 16 18 16 16 17 18 17 17 16 15 14 14 14 13 13 13 14 13 13 13 14 14 13 13 13 13 12 12 12 12 12 12 12 12 11 11 11 11 11 11 11 11 11
21 19 20 19 19 19 18 17 18 17 17 17 17 16 16 16 15 13 13 13 13 13 14 14 14 13 13 13 13 12 12 12 12 12 13 13 13 12 12 12 12 12 12 12 11 11 11 11 11
22 20 19 20 20 19 20 19 19 15 17 15 17 17 16 15 14 14 13 14 14 15 15 14 14 13 13 13 13 13 13 12 13 13 13 13 13 13 13 13 12 12 11 11 11 11 11 10 10
22 20 19 19 20 19 19 17 17 19 18 16 18 18 17 14 15 15 14 14 15 15 14 14 14 13 13 13 13 13 13 13 13 13 13 13 12 13 12 12 11 11 11 11 11 10 9 9 9
19 20 19 19 20 19 20 17 18 21 20 20 20 19 15 15 16 15 15 15 14 14 14 14 13 13 13 13 13 13 13 13 13 13 13 12 12 12 12 12 11 11 11 10 9 9 9 8 8
19 17 19 19 19 19 18 18 19 21 21 20 20 20 19 17 17 16 16 16 15 15 14 13 13 13 13 13 13 13 13 13 13 12 12 12 11 11 12 11 10 9 8 8 8 8 7 7 7
18 18 19 18 16 18 17 17 18 21 21 20 20 20 20 19 19 18 18 17 16 15 14 13 13 13 13 13 13 12 13 12 12 11 11 11 11 11 10 9 9 8 7 7 7 7 7 6 5
20 19 19 20 20 19 18 19 19 20 19 19 19 20 20 19 19 18 18 17 16 15 14 14 14 14 13 12 13 12 12 11 11 10 10 11 11 10 9 9 8 8 8 7 7 6 6 5 5
19 20 18 21 21 21 18 19 19 17 17 20 20 18 20 18 18 17 17 17 16 16 15 14 14 13 13 12 12 11 11 11 10 10 10 10 9 9 9 7 7 8 8 7 7 6 6 5 4
20 19 20 20 19 22 21 19 18 19 17 18 20 19 19 18 17 17 16 16 16 16 15 15 14 13 12 12 11 11 10 10 9 10 10 10 9 9 8 8 8 7 7 7 6 5 4 4 3
18 21 20 20 18 17 19 15 18 18 20 16 18 18 19 18 17 16 16 15 15 14 13 13 13 13 12 12 11 11 11 10 10 10 10 9 8 9 8 8 7 7 6 5 4 4 4 3 3
19 20 20 19 18 18 18 14 16 19 18 18 19 20 19 18 17 16 16 15 15 14 14 13 13 12 12 12 12 11 11 11 10 10 9 8 8 7 7 7 6 5 5 4 4 4 3 3 3
21 20 19 16 17 15 18 16 15 16 19 19 20 20 20 18 17 16 16 15 14 13 13 13 13 12 12 12 12 11 11 10 10 9 8 8 8 7 7 6 5 5 4 4 4 3 3 2 2
19 18 14 13 12 14 19 17 17 18 17 18 18 20 19 18 17 16 15 14 14 13 13 12 12 12 12 12 11 11 10 10 9 9 9 8 8 7 7 6 6 5 5 4 3 2 2 2 1
18 17 13 14 12 14 17 17 19 19 20 20 18 20 19 17 17 16 14 14 13 13 13 13 13 12 12 11 11 11 10 9 9 9 8 7 7 6 6 5 5 4 4 3 2 2 1 1 1
16 14 17 16 16 14 16 17 18 19 18 16 17 19 18 17 17 16 15 14 14 13 13 12 12 12 11 10 10 10 9 9 8 7 7 6 5 5 4 4 4 3 3 2 1 1 0 0 0
19 17 16 14 16 16 16 17 16 17 18 17 17 17 18 17 17 16 15 14 14 14 13 12 12 11 10 10 9 9 8 7 7 7 7 5 4 4 4 3 3 2 1 0 0 -0 -0 -0 -1
18 18 19 17 14 13 12 15 17 17 17 16 17 18 18 17 17 16 15 15 14 13 13 12 12 11 11 9 8 8 7 7 6 5 4 4 4 3 3 2 2 1 0 -0 -0 -1 -1 -1 -1
20 19 17 11 16 14 11 13 20 17 17 19 18 19 18 18 17 17 16 15 14 13 12 12 11 11 10 9 8 7 7 5 4 4 4 4 3 3 2 2 1 0 -0 -1 -1 -1 -1 -2 -3

GFSSGP_850_temp_060.txt.gz
Temp
18 18 18 18 14 11 14 16 19 20 19 18 19 18 17 16 17 16 15 16 17 17 17 17 17 17 16 16 16 15 15 15 16 16 16 16 16 16 16 15 15 16 16 16 16 16 15 15 14
19 18 18 17 13 13 14 16 19 17 18 18 18 17 17 16 15 14 15 16 18 17 16 16 18 16 16 16 15 14 15 15 15 16 16 15 15 15 15 15 15 16 16 16 16 16 15 15 14
18 18 18 13 11 13 14 17 17 18 18 18 17 16 16 15 15 15 16 16 17 17 16 17 17 17 16 15 15 14 15 15 15 16 16 16 16 16 16 16 16 16 15 15 15 15 15 15 14
18 18 17 14 15 16 17 17 17 17 18 19 18 14 15 14 15 16 16 16 16 16 15 15 16 15 15 14 14 15 14 15 15 15 16 16 16 16 16 16 15 15 15 15 15 15 15 15 14
18 18 14 13 17 17 15 16 17 17 18 18 18 15 14 14 15 15 15 14 15 15 14 15 15 15 14 14 15 14 15 15 15 16 16 16 16 16 16 15 15 15 15 15 15 14 14 14 14
18 16 13 14 18 16 16 16 16 16 18 18 16 15 13 14 14 14 14 14 14 13 14 12 13 13 13 14 14 14 15 15 15 16 15 15 15 16 16 15 15 15 15 15 14 14 14 14 14
15 13 14 16 17 16 16 16 14 15 16 16 17 14 13 14 14 14 13 13 13 13 13 12 13 12 14 14 14 15 15 15 15 15 15 15 15 15 15 15 15 15 14 14 14 14 14 13 13
18 14 16 16 17 16 15 15 16 18 16 17 16 13 13 13 14 14 13 12 12 12 13 13 12 14 13 14 15 15 15 15 15 15 15 15 15 15 14 14 14 14 13 13 13 13 13 13 13
19 14 14 16 17 16 15 15 15 16 15 19 17 15 15 13 13 13 12 12 12 12 12 13 13 13 14 14 15 15 15 15 14 14 14 14 14 13 13 13 12 12 12 12 12 12 12 12 12
17 13 16 18 16 14 15 15 15 15 15 14 14 14 15 13 13 12 12 12 11 11 12 13 13 14 14 15 16 15 15 14 13 13 13 13 13 13 12 12 12 12 12 12 12 12 12 12 12
18 16 17 18 17 17 14 15 16 15 15 15 15 14 13 14 13 12 12 12 11 12 12 12 13 13 15 16 16 15 14 13 12 12 12 12 13 13 12 12 12 12 12 12 12 12 12 11 11
19 19 19 17 17 16 14 16 15 15 17 17 16 16 14 13 13 13 13 13 13 12 13 13 13 14 14 15 15 14 14 13 12 12 12 12 12 12 11 12 12 12 12 12 11 11 11 11 10
18 18 19 19 19 19 17 17 16 16 15 18 15 14 13 14 13 13 13 13 13 13 13 13 13 13 14 14 14 13 12 12 12 12 12 12 12 12 12 12 12 12 11 11 11 11 11 11 11
19 19 17 18 18 19 18 16 17 14 16 16 15 14 13 15 14 13 12 13 13 13 13 13 13 13 14 14 13 13 12 12 12 12 12 13 12 12 12 12 12 11 11 11 11 11 11 11 11
19 16 17 17 19 19 19 18 16 15 15 16 15 14 15 15 15 15 13 12 13 13 13 13 13 13 13 13 13 13 13 12 12 12 13 13 13 13 12 12 11 11 11 11 11 11 10 10 9
19 17 16 18 19 20 18 17 18 17 16 16 16 15 14 14 16 16 14 13 13 14 14 13 13 13 13 13 13 12 12 12 12 12 12 12 12 12 12 11 11 11 11 11 11 9 8 8 8
17 17 17 18 19 19 18 17 18 16 16 16 14 15 14 14 15 15 15 14 14 15 15 14 14 13 13 13 13 13 13 12 12 12 12 12 12 12 11 11 11 11 10 9 8 8 7 7 6
17 17 18 17 18 17 16 16 16 16 17 15 13 14 15 15 16 16 15 14 14 15 15 14 14 13 13 13 13 12 12 12 12 11 11 11 11 11 11 11 10 9 8 7 7 7 7 6 5
18 18 16 17 17 17 16 17 16 17 17 15 14 13 14 16 16 16 15 15 15 15 15 15 14 13 13 13 13 12 12 12 11 10 10 10 11 11 10 10 9 8 7 7 7 6 6 6 5
17 17 17 18 18 16 16 17 17 16 17 18 16 16 15 15 15 15 15 14 14 14 14 14 14 14 13 13 13 12 12 11 10 10 10 10 10 10 9 9 9 8 7 7 7 6 6 6 4
17 16 18 17 19 18 17 17 18 18 17 18 18 18 18 17 16 15 14 15 15 14 14 14 14 13 13 12 12 11 10 10 10 10 10 10 9 9 9 9 8 8 8 7 7 6 5 4 4
15 18 19 20 17 16 18 15 16 17 17 16 17 17 18 18 17 16 16 15 15 15 14 14 13 12 12 11 11 12 12 12 11 11 10 9 9 9 10 9 9 8 7 7 6 5 4 4 3
16 19 19 19 16 16 17 15 15 17 16 17 17 17 17 17 17 17 17 17 15 15 14 13 12 12 11 11 11 11 12 11 11 10 9 9 9 8 8 8 7 6 6 5 5 4 4 3 3
19 19 15 14 14 15 17 16 15 16 18 18 17 18 18 17 16 16 16 16 16 15 14 12 12 12 11 11 11 11 11 11 10 9 9 8 7 8 7 7 6 6 6 5 4 4 4 3 2
18 15 13 13 12 14 17 15 16 17 17 17 17 17 17 17 16 16 16 16 15 15 13 13 12 11 11 12 11 11 10 10 10 9 9 8 7 7 6 6 4 5 5 4 4 3 3 2 1
16 16 12 15 13 14 17 16 17 17 18 19 20 19 18 17 17 16 15 15 14 13 13 12 12 11 11 11 11 11 10 9 9 8 7 7 7 6 7 5 5 5 4 4 3 3 2 1 1
16 15 14 14 14 13 14 17 17 18 17 17 17 17 15 16 16 16 15 15 14 13 13 12 12 11 12 11 11 10 10 9 9 8 7 6 6 6 6 5 4 4 4 3 3 2 1 0 -0
17 16 14 12 15 15 15 15 15 17 18 15 14 15 16 16 16 16 15 14 14 14 13 12 12 12 12 12 11 10 10 9 8 7 7 7 5 5 5 4 4 3 3 2 2 1 -0 -1 -1
16 16 16 14 12 12 11 13 15 16 16 14 14 17 17 16 16 15 15 14 15 14 13 13 12 12 12 11 10 10 9 8 6 6 6 6 5 4 4 4 3 2 2 1 1 -0 -1 -1 -1
16 16 15 11 15 12 10 13 17 15 15 17 17 17 17 17 17 16 16 15 14 14 13 13 12 13 12 10 9 8 7 6 5 4 4 4 4 4 3 3 2 2 1 0 -0 -1 -1 -1 -2

GFSSGP_850_temp_063.txt.gz
Temp
17 17 18 17 14 11 13 15 17 18 19 18 17 17 17 14 17 17 15 16 16 16 16 16 16 17 17 17 17 16 15 15 15 16 16 16 16 17 16 16 16 16 16 15 15 14 14 14 14
17 17 18 17 12 13 13 15 17 16 17 17 17 17 16 16 15 15 14 16 16 16 15 15 16 17 17 17 17 16 16 15 15 16 16 16 16 16 16 16 16 16 15 15 15 14 14 14 14
17 18 17 12 10 13 14 16 16 17 18 17 16 15 15 15 15 14 15 16 16 16 15 15 15 16 16 16 16 15 15 15 16 16 16 16 16 16 16 16 16 15 15 15 15 14 14 14 14
17 18 16 13 15 15 16 15 16 17 18 17 16 14 15 14 14 15 15 15 15 14 15 15 15 15 16 16 15 15 15 16 15 16 16 16 16 16 16 16 15 15 15 15 15 14 14 13 13
17 17 11 13 15 17 15 15 16 16 17 17 16 13 14 14 15 15 14 14 14 15 15 14 14 14 14 15 15 14 16 16 15 16 16 16 16 16 16 15 15 15 15 14 14 14 13 13 13
17 15 12 13 15 16 16 15 15 15 16 16 15 14 13 14 15 15 14 14 14 14 14 13 13 13 13 14 15 16 16 15 15 15 15 15 15 15 15 15 14 14 14 14 14 14 14 13 13
14 11 13 15 15 16 16 16 15 16 16 16 16 12 13 14 14 14 13 13 13 13 13 12 13 13 13 14 15 16 15 15 15 15 15 15 14 14 14 14 14 14 14 14 14 13 13 13 12
18 12 15 15 15 16 15 15 16 15 16 15 15 12 13 14 14 13 13 12 12 12 13 12 12 12 13 15 15 15 15 15 15 15 14 14 14 14 14 13 13 13 13 13 13 13 13 13 12
18 13 13 15 16 17 15 15 14 15 15 15 15 15 14 14 14 13 13 12 12 12 11 11 12 13 13 15 15 15 14 14 14 14 14 13 13 13 13 12 13 12 13 13 13 13 13 12 12
15 12 15 16 16 16 15 14 15 15 15 14 12 13 13 13 13 13 12 12 12 12 11 11 11 12 13 14 14 14 14 14 14 13 13 12 12 12 12 12 12 12 13 13 13 13 13 12 12
16 15 15 17 18 16 14 14 15 15 14 15 12 13 13 13 12 12 12 11 11 11 10 11 11 13 13 14 14 14 14 14 13 13 12 12 12 12 12 12 12 12 12 12 12 12 12 11 11
17 17 17 18 16 16 14 15 14 15 15 16 15 13 12 12 12 12 11 11 12 12 12 11 11 13 13 13 14 14 13 13 13 12 12 12 12 12 12 12 12 12 12 12 11 11 11 10 10
17 17 17 17 17 16 17 16 15 14 14 15 13 13 12 12 13 13 12 12 12 12 12 12 12 12 13 13 13 13 13 12 13 13 12 12 12 12 12 12 12 11 11 11 11 10 10 10 10
17 16 17 17 17 17 16 15 16 14 13 12 14 14 13 13 13 13 12 11 12 12 12 11 12 13 13 13 13 13 13 13 12 12 12 12 12 12 12 12 11 11 11 11 10 10 10 10 9
18 16 16 17 17 18 18 16 15 15 14 15 14 15 13 13 14 16 13 12 12 12 12 12 13 13 13 13 13 13 13 13 13 12 12 12 12 12 12 12 11 11 10 11 10 10 10 10 10
16 15 15 17 18 18 18 16 15 15 14 13 14 15 12 14 15 15 15 15 14 13 13 13 13 13 13 13 13 13 13 12 12 12 12 12 12 12 12 11 11 11 11 10 10 10 10 9 9
15 15 16 17 18 18 17 17 15 15 15 14 13 13 13 12 13 14 15 15 14 14 13 13 13 13 13 13 13 13 12 12 11 12 12 12 12 11 11 11 11 11 10 10 10 9 9 8 6
16 16 17 17 17 17 17 16 13 15 15 14 13 13 13 14 15 15 15 14 14 13 13 13 13 13 13 13 12 12 12 11 11 11 11 11 11 11 11 11 10 10 10 9 9 8 7 6 5
17 16 16 16 16 16 15 15 14 14 14 14 13 13 13 15 16 15 15 14 13 13 13 13 14 13 13 12 12 12 12 11 11 11 11 11 11 11 10 10 10 9 9 8 8 7 6 6 5
17 16 15 16 16 16 14 15 15 13 14 15 14 13 14 15 15 15 14 13 13 14 13 13 14 13 12 12 12 12 12 12 11 10 10 10 10 10 10 9 9 9 8 7 7 6 6 5 5
16 16 15 15 17 17 15 16 15 14 15 15 14 16 16 17 16 16 15 14 14 14 14 14 14 13 13 13 12 12 11 11 10 10 10 10 10 10 9 9 8 8 7 6 6 6 5 5 4
16 16 15 16 16 15 17 14 15 14 15 14 14 14 15 16 16 16 15 14 15 15 14 15 14 14 13 12 11 11 12 12 11 11 10 10 9 8 8 8 7 7 6 6 6 5 4 4 3
16 17 17 18 16 16 16 14 15 15 15 16 15 15 15 16 16 16 16 16 15 15 14 14 14 14 13 12 10 11 11 11 11 10 10 9 8 7 7 7 6 6 6 5 5 4 4 3 3
18 17 15 13 13 14 16 15 14 14 17 17 17 16 16 16 16 16 16 16 16 15 14 14 13 13 12 11 11 11 12 11 11 10 9 8 7 7 6 6 6 6 6 5 4 4 4 3 2
16 14 13 13 11 13 15 15 15 16 16 16 17 17 16 16 16 16 16 16 16 15 14 14 13 12 12 11 11 11 11 11 11 10 9 8 7 6 6 6 5 5 4 4 4 4 3 3 2
15 15 12 15 13 13 15 15 16 17 17 16 19 18 17 15 15 15 15 15 15 15 15 14 13 12 11 11 11 11 11 10 10 9 8 7 7 7 6 6 5 4 4 4 3 3 2 2 1
16 15 14 13 12 12 13 14 16 15 15 15 14 16 15 16 16 16 16 16 16 16 15 14 12 12 11 11 11 11 10 10 9 8 7 7 5 5 5 5 4 4 3 3 3 2 1 0 -0
16 14 13 11 14 14 13 14 14 16 16 14 14 14 16 16 15 16 16 16 16 15 15 13 12 12 12 12 11 11 10 9 8 8 7 6 5 4 4 4 3 3 3 3 2 1 1 -0 -1
15 14 15 13 11 12 11 13 13 15 15 15 13 16 17 15 15 16 16 16 15 15 14 13 12 12 12 11 11 10 10 9 8 7 6 5 5 4 4 3 3 3 3 2 1 1 0 -1 -1
16 15 14 11 14 10 9 11 15 14 14 16 17 16 16 17 17 17 16 15 14 14 13 13 13 12 11 11 11 10 9 8 6 6 6 4 4 4 3 3 3 3 2 1 1 0 -1 -1 -1

GFSSGP_850_temp_066.txt.gz
Temp
18 18 18 18 13 10 12 14 16 17 18 16 16 16 16 15 17 16 14 15 16 16 15 15 16 16 16 17 17 16 16 17 16 16 16 16 16 16 16 16 16 15 15 14 14 14 14 14 14
18 17 18 17 12 11 12 14 15 15 16 16 17 16 16 15 15 13 13 14 16 15 15 15 15 16 17 17 17 17 16 17 16 16 16 16 16 15 16 16 15 15 15 14 14 14 14 14 14
18 18 17 10 8 12 13 15 15 16 17 17 16 15 14 14 14 14 14 14 15 14 14 15 15 16 17 17 16 16 16 16 16 16 16 16 15 16 15 15 15 14 14 14 14 14 14 14 14
18 17 15 11 14 14 14 15 13 16 16 17 16 13 15 15 15 14 14 14 14 14 14 15 15 15 16 16 15 15 17 16 16 16 15 15 15 15 15 15 14 14 14 13 13 13 14 14 14
17 16 11 12 14 15 14 15 14 15 16 16 16 13 14 15 15 14 14 13 14 14 14 14 14 15 15 15 15 15 16 15 16 15 15 15 15 14 14 14 14 14 13 13 13 14 14 14 13
16 15 11 13 14 16 15 16 15 15 15 15 14 13 14 14 14 14 13 13 14 14 14 14 14 14 14 13 14 16 16 17 16 15 15 15 14 14 14 14 14 14 13 13 13 13 13 13 13
13 11 12 14 14 15 15 16 15 15 16 15 15 12 13 14 14 14 13 14 13 14 13 13 12 13 13 13 15 16 15 16 15 14 14 14 14 14 13 13 14 14 14 14 13 13 13 13 12
17 11 14 14 14 15 15 15 15 15 14 14 14 12 14 13 14 13 13 13 14 13 13 12 11 11 12 13 14 15 15 15 14 14 13 13 13 13 13 13 13 13 13 14 13 13 12 12 12
17 12 12 15 15 16 14 15 15 15 15 14 14 14 14 13 14 13 13 13 13 13 12 11 11 11 11 13 13 14 15 14 14 13 13 13 13 13 13 13 13 13 14 13 13 12 12 12 12
14 11 13 15 16 16 14 14 15 15 14 12 12 13 13 13 13 13 13 12 12 12 12 11 10 10 12 12 13 14 14 14 13 13 13 13 13 12 12 12 13 13 13 13 13 12 12 12 12
14 14 14 17 16 16 14 14 14 14 15 14 13 13 13 12 12 12 12 12 11 11 10 10 11 10 11 13 14 14 14 13 13 13 12 12 12 12 12 12 12 12 13 12 12 12 12 11 11
16 16 16 16 16 16 14 14 14 14 14 14 13 12 12 11 12 12 11 11 11 11 10 10 12 12 12 13 13 13 13 13 13 12 12 12 12 12 12 12 12 12 12 12 12 11 11 11 10
15 16 15 16 16 17 16 15 14 12 14 13 12 12 12 13 13 11 11 12 10 10 11 11 11 13 13 13 13 13 12 12 12 12 12 12 12 12 12 12 12 12 11 11 11 10 10 10 10
16 15 15 16 16 16 16 15 15 11 12 11 11 12 14 13 13 11 12 12 10 11 12 11 12 11 11 13 12 12 12 12 12 12 12 12 12 12 12 12 11 11 11 10 10 10 10 10 10
17 16 16 16 15 16 16 15 13 12 13 15 14 13 13 12 12 12 12 12 12 12 12 12 11 12 12 13 12 12 11 12 12 12 12 12 12 12 11 11 11 10 10 10 10 10 10 9 9
16 14 14 16 17 17 16 16 12 12 14 15 13 12 13 13 11 12 13 13 13 13 13 12 12 12 12 12 12 12 12 12 12 12 12 12 12 11 11 11 11 10 10 10 10 10 9 9 8
13 14 15 16 17 17 17 16 13 13 13 13 13 12 13 14 12 12 12 13 13 13 13 12 12 12 12 12 12 12 12 12 12 12 12 12 12 12 11 11 10 10 10 10 9 9 8 8 8
15 15 16 15 17 17 17 16 12 13 13 13 14 12 12 13 14 13 13 13 13 13 13 13 12 12 12 12 12 12 12 12 12 11 11 12 11 11 11 10 10 10 10 9 9 8 8 7 6
16 16 15 15 15 16 15 15 12 13 13 13 13 13 12 13 15 14 14 14 13 13 13 13 13 12 12 12 12 12 12 11 11 11 11 11 11 11 10 10 10 9 9 8 7 7 6 6 5
16 16 15 15 16 15 13 14 14 12 13 13 13 13 14 13 13 14 15 15 14 14 14 13 12 13 13 12 12 12 12 11 11 11 11 10 10 10 10 9 9 8 7 7 6 6 6 5 5
16 16 15 15 15 15 14 15 14 13 14 14 14 15 15 15 15 15 14 15 15 15 15 14 14 13 13 13 12 12 11 11 10 10 10 10 10 9 9 8 7 7 7 6 6 6 5 4 4
15 15 15 15 15 14 16 14 14 14 14 13 14 14 15 15 16 17 16 16 16 16 15 14 13 13 13 12 12 12 11 11 11 11 10 9 9 8 8 7 7 7 7 7 5 5 4 4 3
15 17 16 17 15 15 15 13 14 14 14 14 14 15 16 16 16 16 16 16 16 16 15 14 14 13 12 12 12 11 10 10 10 10 9 9 9 8 7 7 7 7 6 5 5 4 4 3 3
17 16 14 12 12 13 15 14 13 13 15 16 16 15 16 17 16 16 16 16 15 15 14 14 13 13 13 12 12 10 10 10 10 10 9 9 8 7 7 6 7 7 6 6 5 4 3 3 3
15 14 12 12 11 13 14 14 14 16 15 15 15 16 17 17 16 16 16 16 15 15 14 13 13 13 12 12 11 11 10 10 11 11 10 9 9 8 7 6 5 5 5 5 4 3 3 3 2
15 14 11 15 13 13 14 14 16 16 16 16 16 17 16 16 17 17 16 16 16 15 15 15 14 14 13 11 11 10 10 10 11 10 10 9 9 7 6 5 4 5 4 3 3 3 2 2 2
15 14 13 11 11 11 12 13 15 16 15 15 14 16 17 16 17 18 16 16 16 16 15 15 14 14 13 11 11 11 11 11 11 10 10 9 8 6 5 5 5 4 4 3 3 2 2 1 1
16 13 13 10 14 13 12 13 13 16 15 14 13 13 16 17 16 17 17 17 16 16 16 15 14 14 12 12 11 11 11 11 11 10 9 8 7 5 5 6 3 4 3 3 2 2 1 0 -0
14 14 12 12 10 12 10 12 12 15 15 14 14 15 15 15 16 17 17 17 16 16 16 15 14 13 12 12 12 12 12 11 10 9 8 7 6 6 5 5 3 3 3 2 1 1 0 -0 -1
14 14 12 11 13 9 9 10 14 13 13 15 16 17 16 16 16 15 16 16 15 15 16 14 14 13 12 12 11 11 10 9 8 7 5 5 5 5 4 3 3 2 1 1 1 0 -0 -1 -1

GFSSGP_850_temp_069.txt.gz
Temp
18 18 17 18 19 17 18 18 18 19 20 17 16 18 19 17 18 19 14 15 15 15 15 15 15 16 16 17 17 17 16 16 16 16 16 15 15 15 16 16 16 15 15 15 14 14 14 14 14
18 17 17 17 18 18 19 17 18 17 17 17 15 15 17 16 14 14 13 15 15 15 14 14 15 16 16 16 16 16 16 16 16 16 16 15 15 15 15 15 15 15 15 15 14 14 14 14 13
17 17 17 16 15 18 19 18 18 17 16 15 16 15 15 15 14 14 14 14 15 15 14 14 15 15 16 16 16 16 16 16 15 16 15 15 15 15 15 15 15 15 14 14 14 14 14 14 13
17 17 15 18 17 18 18 18 16 16 16 16 16 16 14 14 14 14 14 14 15 14 14 14 15 15 15 15 15 15 16 15 15 16 15 15 15 14 14 15 14 14 14 14 14 14 14 13 13
17 17 17 16 17 17 17 16 15 16 16 15 14 15 14 14 14 14 14 14 14 14 14 14 14 15 15 15 15 16 16 15 15 15 14 14 14 14 14 14 13 14 14 14 14 14 14 13 13
17 15 17 17 17 17 17 16 15 15 15 15 15 14 14 14 14 14 14 14 14 14 14 14 14 14 14 15 16 16 15 16 15 15 15 14 14 13 13 13 13 13 14 14 13 13 13 13 12
17 16 16 16 17 18 17 15 16 16 16 15 14 15 13 13 14 14 14 14 14 14 13 12 12 13 13 14 15 15 15 15 15 16 14 14 14 14 13 13 13 13 13 13 13 13 12 12 12
17 16 16 16 17 18 17 15 15 15 15 14 14 16 15 13 14 14 13 14 14 14 13 12 11 12 12 12 13 14 15 15 16 15 14 14 14 13 13 13 13 13 13 13 12 12 12 12 12
17 17 17 17 17 19 15 16 14 15 14 14 14 14 14 13 13 13 13 13 13 13 12 12 12 11 10 11 12 14 14 15 14 14 13 13 13 13 13 13 13 13 13 12 12 12 12 12 11
17 17 18 18 18 18 15 15 15 15 14 13 13 13 13 13 13 13 13 12 12 12 12 12 11 11 11 10 11 13 14 14 14 13 13 13 13 13 13 13 13 13 12 12 12 12 12 11 11
15 18 17 18 17 16 15 15 14 15 16 14 14 13 13 13 12 13 12 12 12 12 11 11 10 10 11 11 13 13 13 13 13 13 13 13 13 13 13 12 12 12 12 12 12 12 11 11 11
16 16 16 17 16 15 16 14 15 14 14 14 13 12 12 12 12 12 12 12 11 10 10 9 10 10 10 11 12 13 13 13 13 13 13 13 12 12 12 12 12 12 12 12 11 11 11 11 10
16 17 15 15 15 15 15 14 14 12 12 14 12 12 12 12 11 11 11 10 10 10 10 9 10 10 10 12 13 13 13 13 12 12 12 12 12 12 12 12 12 11 11 11 11 11 10 10 10
16 15 15 15 15 15 16 15 14 12 11 11 12 12 11 11 11 11 10 10 11 10 10 10 11 11 11 12 12 13 13 12 12 12 12 12 12 12 12 12 11 11 11 11 10 10 10 11 10
16 17 17 16 16 17 16 17 15 13 11 12 11 11 11 11 11 11 11 11 11 10 11 11 11 11 11 11 12 12 12 12 11 12 12 12 12 12 12 11 11 10 10 10 10 10 10 10 9
17 16 18 17 16 16 17 17 14 13 12 13 12 11 12 13 11 10 9 10 10 12 12 12 12 12 11 11 12 12 12 12 12 12 12 12 12 12 11 11 10 10 10 10 10 10 9 9 9
16 17 17 18 17 17 17 17 15 12 12 13 14 14 11 12 12 12 10 12 12 12 11 11 12 11 11 12 12 12 11 11 12 12 12 12 12 12 11 10 10 10 10 10 10 9 9 8 8
17 16 16 17 18 17 18 16 15 13 13 14 13 12 12 12 12 12 12 12 12 11 11 11 11 12 12 12 11 11 11 11 11 12 12 12 12 12 11 10 10 10 10 9 9 8 8 7 7
17 17 17 17 17 17 17 17 15 13 13 13 13 13 13 13 13 13 13 13 12 13 12 12 12 12 12 12 12 11 11 12 12 12 11 11 11 11 11 10 10 10 9 9 8 8 7 6 6
17 17 17 17 16 16 16 17 16 15 14 14 14 13 13 14 12 12 13 13 13 13 13 13 13 12 12 12 12 12 12 12 12 11 11 10 11 11 10 10 9 9 9 8 7 6 6 5 5
17 16 16 17 16 16 15 17 16 15 14 14 14 14 13 14 15 14 13 13 13 13 14 14 13 13 12 12 12 12 12 11 10 10 10 10 10 10 9 9 9 8 8 7 6 6 5 5 4
16 16 16 16 16 18 16 18 17 16 15 15 14 14 15 14 15 15 15 14 14 14 14 14 13 13 13 12 12 12 12 12 11 11 11 10 10 9 9 8 8 7 7 6 6 5 5 5 4
17 16 16 16 16 16 16 17 19 15 16 16 16 15 15 17 16 16 16 15 15 14 15 14 13 13 12 12 12 12 11 10 10 10 10 10 9 9 8 8 7 7 6 6 5 5 4 4 4
16 16 15 14 15 16 16 17 19 19 18 18 17 16 15 17 17 17 17 17 16 15 15 14 14 13 13 12 12 12 11 10 9 10 10 9 9 9 8 8 7 6 6 5 4 4 4 4 3
16 16 16 16 16 17 15 15 18 18 17 17 18 16 17 17 18 18 17 17 17 16 15 14 14 14 14 12 12 11 11 10 9 10 10 9 9 9 8 7 6 6 5 5 5 4 4 3 3
16 17 16 16 15 16 14 16 20 17 17 16 16 15 16 17 17 18 18 18 17 17 16 15 15 14 14 13 12 12 11 10 9 10 10 10 10 9 8 7 6 5 5 5 4 4 3 3 2
16 16 15 13 12 14 15 16 18 16 17 16 16 15 15 16 16 17 18 18 17 17 16 16 15 15 14 13 12 11 10 10 10 11 10 10 9 8 7 5 5 5 5 4 3 3 2 2 1
16 15 15 14 14 15 15 15 17 19 19 16 17 17 17 15 15 16 16 17 17 16 16 16 15 15 14 14 12 11 10 10 11 10 9 9 8 6 5 4 5 4 4 3 3 2 1 1 1
15 15 14 15 14 15 15 17 16 18 18 17 17 17 18 18 18 17 16 16 16 16 16 15 15 15 14 13 12 11 11 11 10 10 9 8 7 5 5 5 6 3 3 3 2 2 1 1 -0
15 16 15 15 14 12 13 15 16 16 15 14 15 16 18 19 19 18 17 15 15 15 15 15 15 15 14 13 12 11 11 11 10 8 8 6 5 6 5 5 4 3 2 2 1 1 0 -0 -1

GFSSGP_850_temp_072.txt.gz
Temp
18 18 17 18 22 23 23 23 24 23 22 22 21 21 23 22 24 23 15 15 15 15 14 15 16 16 16 16 17 16 16 16 16 16 16 16 16 16 16 16 16 16 16 15 15 14 14 14 13
18 17 17 20 22 23 24 24 23 23 21 18 19 20 21 22 17 15 14 14 15 14 14 14 16 16 16 16 16 16 16 16 16 15 15 16 16 16 16 16 16 15 15 15 14 14 14 14 13
17 17 20 22 23 22 23 23 23 22 20 19 20 18 19 20 16 15 14 14 14 14 14 14 16 16 16 16 16 16 16 16 15 15 15 16 16 16 15 16 15 15 15 15 14 14 14 13 13
17 19 19 22 22 23 23 23 22 21 20 19 18 18 17 14 15 14 14 15 15 14 14 15 16 16 16 16 16 16 16 15 15 15 15 16 16 15 15 15 15 15 15 14 14 14 13 13 13
18 20 22 22 22 23 23 21 20 21 20 19 18 19 15 15 15 14 14 15 15 14 14 15 15 15 15 15 15 15 15 15 15 15 15 15 15 15 15 15 14 14 14 14 14 13 13 13 13
21 21 22 22 22 23 22 20 19 20 19 19 19 17 13 14 14 14 15 15 15 14 14 15 14 15 15 15 15 15 15 15 15 15 15 15 15 14 14 14 14 14 14 13 13 13 13 13 12
21 22 22 22 22 22 21 19 20 20 20 20 18 20 15 13 14 14 14 14 14 14 14 14 13 13 13 13 14 14 15 15 15 16 15 15 14 14 14 14 13 13 13 13 13 13 13 12 12
20 22 21 22 22 22 21 19 18 19 20 17 16 20 19 14 14 15 14 15 14 13 13 12 11 12 11 12 13 14 14 14 15 15 15 14 14 13 13 13 13 13 13 13 13 12 12 12 12
19 22 22 22 22 23 20 20 16 17 19 17 16 17 15 15 14 13 13 14 13 13 12 11 11 11 10 11 12 13 13 14 14 14 14 13 13 13 12 13 13 13 12 13 12 12 12 11 11
21 22 22 23 23 22 20 18 19 18 18 18 16 15 13 14 13 13 13 13 13 13 12 12 12 11 10 10 11 12 11 12 14 15 14 13 12 11 12 13 13 12 12 12 11 11 11 11 10
21 22 22 22 21 21 20 20 18 20 21 20 18 16 13 13 13 13 12 12 12 13 12 12 11 11 10 9 10 9 12 13 13 14 13 13 13 13 11 12 12 11 11 11 11 11 10 11 10
21 21 20 21 19 19 21 20 20 19 18 16 16 15 13 13 12 12 12 12 12 12 11 11 10 10 11 10 10 10 10 13 13 13 13 13 12 12 11 11 12 11 11 11 11 11 11 11 10
20 21 20 19 19 19 19 19 19 19 15 15 16 13 13 12 12 12 12 12 11 11 9 8 9 10 10 10 11 11 13 13 13 12 13 12 12 12 12 12 11 11 11 10 11 10 10 10 11
20 20 20 19 20 19 20 20 19 17 13 13 12 13 11 11 11 11 11 10 10 10 9 10 9 9 9 9 9 11 12 13 12 12 12 12 12 12 12 12 12 11 10 10 10 10 10 10 10
20 21 21 21 21 21 20 21 21 17 15 15 13 11 11 11 11 11 10 10 10 9 9 9 9 9 10 10 11 12 12 11 10 11 12 12 12 12 12 12 12 11 11 10 10 10 10 10 9
21 21 21 22 21 20 20 22 20 17 16 17 15 13 11 11 10 10 9 9 9 9 10 9 9 11 11 11 12 11 11 11 12 12 12 12 12 12 12 11 11 11 10 10 10 10 10 9 8
21 21 21 21 21 21 21 22 21 17 17 18 16 15 13 11 11 10 10 10 10 10 10 9 10 11 11 11 11 10 10 12 12 12 12 12 12 12 12 11 11 10 10 10 10 10 9 8 7
21 21 20 21 22 21 21 21 21 18 18 18 17 16 15 14 12 11 11 11 11 10 10 10 11 11 11 11 11 11 11 11 12 12 12 12 12 12 11 11 10 10 10 10 10 9 9 8 7
21 21 21 22 22 21 22 22 22 19 18 18 17 17 16 15 14 12 12 11 11 11 11 11 11 12 12 12 11 11 12 12 12 12 12 12 12 11 11 10 10 10 10 9 9 8 8 6 6
21 20 21 21 21 19 22 22 23 20 19 19 18 18 17 14 14 14 13 12 11 11 11 11 11 11 12 11 11 10 11 12 11 11 12 11 11 11 11 10 10 10 9 9 9 8 6 6 5
20 20 20 20 21 20 20 22 22 21 20 18 18 18 18 17 14 14 13 13 12 12 11 11 11 11 11 11 11 10 10 12 11 11 11 11 11 10 10 10 10 10 9 8 8 7 6 6 5
20 21 21 20 20 21 20 21 22 22 21 20 19 18 18 18 17 15 14 14 13 13 12 12 12 12 11 11 11 12 11 10 10 11 10 10 10 10 10 9 9 9 8 8 8 7 6 5 5
20 20 20 20 21 21 21 21 23 22 22 22 21 19 19 18 18 17 16 15 14 13 13 12 12 11 11 12 12 11 10 10 11 11 10 10 10 10 9 9 8 8 8 7 7 6 5 4 4
20 19 20 20 21 20 21 21 23 23 23 23 23 21 19 19 18 17 17 16 15 13 12 12 12 11 12 12 12 12 10 11 11 10 10 9 9 10 9 8 8 8 7 7 5 5 6 5 4
20 20 19 18 19 19 20 20 22 23 23 22 23 22 21 20 19 18 18 16 15 14 13 13 12 12 11 13 12 12 12 12 11 10 10 7 8 9 9 8 8 7 7 6 5 5 3 4 2
20 21 19 18 18 20 18 20 22 23 22 22 21 20 19 20 19 18 18 17 16 14 15 16 15 14 14 14 13 12 12 12 11 10 9 8 8 8 7 7 6 6 5 5 5 4 3 2 2
19 19 20 19 17 18 21 21 23 23 22 22 22 20 20 19 19 18 18 17 16 14 16 17 16 15 15 15 13 13 12 11 11 10 9 8 7 7 7 6 7 6 5 5 5 3 2 2 1
20 21 19 19 17 17 20 20 21 22 22 22 23 23 20 18 18 18 17 17 16 15 14 16 15 16 15 14 13 13 12 11 11 10 9 7 6 7 7 7 5 4 5 5 4 2 1 1 1
18 19 19 20 19 18 18 20 22 22 23 22 23 21 21 19 18 17 17 16 15 15 14 13 14 14 12 14 13 12 10 10 10 9 9 8 7 8 6 5 5 5 4 4 3 2 1 1 1
21 21 20 18 18 18 18 19 23 23 22 21 21 21 20 19 18 17 16 16 15 14 13 13 13 13 12 11 11 10 10 9 10 9 8 8 6 5 6 6 5 4 3 3 2 1 1 1 0

GFSSGP_850_temp_075.txt.gz
Temp
19 19 19 20 23 24 24 26 28 26 26 26 25 24 25 19 18 19 19 19 18 16 15 17 17 16 16 16 16 16 16 16 16 16 16 16 16 16 16 16 16 16 15 15 15 15 15 14 14
18 19 20 22 23 24 25 26 25 26 25 23 23 23 24 16 15 15 16 16 16 15 15 15 17 16 16 16 16 16 16 16 16 16 16 16 16 16 16 16 16 15 15 15 14 14 14 14 14
18 19 21 24 24 24 24 25 26 26 24 22 22 22 23 21 16 17 16 15 16 15 15 14 16 16 15 15 15 15 15 16 16 16 16 16 16 16 16 16 15 15 14 14 14 14 14 14 13
20 21 22 23 24 25 25 26 25 25 24 23 23 23 21 16 16 16 15 15 15 15 15 16 16 16 15 15 15 15 16 15 15 15 16 16 16 16 16 15 15 15 14 14 14 14 13 13 13
20 22 24 24 25 26 25 22 23 24 23 23 21 22 20 17 17 16 15 15 16 15 15 15 15 15 14 15 15 15 15 15 15 15 16 15 15 15 15 15 15 15 14 14 14 13 13 13 13
22 23 24 23 24 25 23 19 20 23 21 22 21 17 16 17 19 18 15 15 15 15 15 16 15 14 14 15 15 15 15 15 16 15 16 15 15 15 15 15 14 14 14 14 13 13 13 13 13
23 24 24 24 24 22 24 21 21 23 23 20 21 18 17 16 17 17 15 15 15 14 14 15 14 14 13 14 14 14 15 15 15 16 16 16 15 15 15 14 14 14 14 14 13 13 13 12 12
22 25 24 25 24 20 24 22 21 21 23 20 20 22 17 16 15 14 15 14 14 14 13 12 12 13 13 13 13 13 14 14 15 15 15 16 15 15 14 14 14 14 13 13 13 13 12 12 12
22 23 23 24 24 19 24 23 21 20 21 21 20 20 16 15 14 14 14 13 14 13 12 12 12 12 12 11 12 12 12 13 14 14 14 15 14 13 13 14 13 13 13 13 13 12 12 12 11
23 24 24 25 25 25 24 23 22 22 22 22 20 18 14 14 14 13 13 13 13 13 12 11 12 12 11 10 10 11 12 12 12 13 14 14 14 13 13 13 12 13 13 12 12 12 11 11 11
24 24 25 24 24 23 24 23 22 22 23 22 21 20 15 13 13 13 13 13 13 13 12 12 12 11 11 9 9 10 11 10 11 11 12 12 12 12 13 12 12 12 11 11 11 11 11 11 11
23 24 24 24 23 23 24 23 23 22 21 19 19 19 15 14 13 13 13 13 12 12 12 12 11 11 9 9 10 10 11 10 11 11 11 11 12 12 12 11 11 11 10 10 10 10 11 11 11
23 24 24 23 22 23 22 23 22 23 19 16 18 16 13 13 12 12 12 12 12 11 10 9 9 9 9 9 11 10 10 11 11 11 11 12 12 11 11 11 10 11 10 10 10 10 9 11 11
23 23 24 23 23 23 22 23 22 20 18 16 15 14 13 12 12 12 11 11 10 10 10 9 8 8 8 8 9 10 11 11 11 11 12 13 11 11 11 11 10 11 10 10 10 9 10 10 10
23 23 24 24 24 24 23 20 13 20 19 18 15 13 12 11 11 11 11 10 10 9 9 9 9 8 8 8 8 9 9 11 12 12 13 12 11 12 12 12 11 10 10 10 10 10 10 9 9
23 23 22 15 22 24 23 16 14 20 21 19 16 13 11 11 10 10 10 9 10 10 10 9 9 9 9 9 9 10 10 11 12 11 12 12 12 12 12 10 10 10 10 10 9 9 9 9 9
23 21 21 23 24 24 23 23 22 21 21 20 19 16 14 11 10 10 9 10 9 9 9 10 9 9 9 10 10 10 11 12 11 12 11 12 12 12 10 10 10 11 10 9 9 9 9 9 9
22 21 23 23 21 24 23 23 24 22 21 21 19 17 14 13 11 10 10 10 10 9 9 10 10 10 10 11 10 11 11 11 11 12 11 11 11 12 10 10 11 10 9 9 9 9 9 9 8
23 23 23 23 24 23 23 24 24 23 22 20 20 18 16 14 13 12 11 12 12 11 11 11 11 11 11 11 11 11 11 11 12 11 11 12 10 11 10 10 10 9 9 9 10 10 9 8 7
22 22 23 24 24 22 23 24 24 24 23 21 20 19 18 17 15 13 12 12 13 12 12 12 12 11 11 12 12 12 12 10 11 11 11 12 12 12 10 9 9 9 9 9 9 8 8 8 7
22 22 22 22 23 23 23 23 24 25 23 22 21 20 19 18 16 15 14 14 13 12 12 12 12 11 11 13 12 12 12 10 10 11 10 12 12 10 9 9 9 8 8 8 8 8 7 8 7
21 23 22 22 22 19 24 20 22 25 24 23 22 21 20 19 17 16 15 14 14 14 13 13 13 12 12 12 13 13 12 11 11 10 10 12 11 11 10 9 8 8 8 8 7 7 7 6 7
22 22 22 22 22 23 23 23 24 25 24 24 24 22 21 20 19 17 16 16 15 14 14 13 13 14 14 12 12 13 13 13 11 10 10 12 11 10 9 8 8 8 8 7 7 6 7 6 6
23 22 22 22 22 20 23 23 23 24 25 25 25 23 22 21 21 20 18 17 16 15 14 14 14 14 14 13 12 12 12 12 11 11 12 11 10 9 8 8 7 7 7 6 7 7 6 7 6
22 21 20 19 20 20 22 22 24 24 25 25 25 24 23 22 21 21 20 18 18 17 15 14 14 14 14 12 12 11 12 12 11 11 12 11 10 9 8 7 7 6 6 6 7 6 7 6 4
22 22 20 18 19 21 22 21 24 25 25 24 24 24 23 23 22 21 21 20 19 17 16 15 14 14 14 13 11 12 11 11 10 10 9 11 10 8 8 7 7 6 5 6 6 6 6 5 4
22 21 23 21 21 20 22 24 25 25 25 24 24 24 23 22 22 22 21 20 19 18 17 15 14 14 14 13 12 11 11 11 10 10 9 10 9 8 7 7 6 5 5 5 5 5 5 4 3
22 23 20 21 18 17 22 22 23 24 24 24 25 24 23 22 22 22 22 21 20 19 17 15 14 15 14 13 12 11 11 10 10 10 9 10 9 8 7 6 5 5 5 4 5 5 3 3 3
21 21 22 22 20 19 19 22 23 24 24 24 24 23 23 22 21 21 21 21 20 19 17 15 14 15 15 14 12 11 11 11 10 10 9 9 8 7 6 6 5 4 4 4 4 3 3 3 2
24 22 22 20 20 21 20 21 24 24 24 24 24 23 23 22 22 21 20 20 19 19 18 16 15 15 15 14 12 11 11 10 10 10 9 8 7 7 6 5 5 4 5 3 2 2 3 3 2

GFSSGP_850_temp_078.txt.gz
Temp
19 19 19 20 21 22 22 24 27 27 27 27 25 26 26 22 19 19 17 14 15 17 18 18 18 17 17 17 17 17 17 17 17 17 17 16 16 16 16 16 16 16 15 14 14 14 14 14 14
19 19 20 21 21 21 23 25 25 27 24 23 25 25 25 19 15 16 18 17 11 15 18 18 18 17 16 16 16 16 16 16 16 16 16 16 16 16 16 16 16 15 14 14 14 14 14 14 14
19 20 21 22 22 22 24 25 26 27 24 23 24 25 24 14 15 16 17 15 14 15 16 16 16 16 16 15 16 16 16 16 16 16 16 16 16 16 16 16 15 14 14 14 14 14 14 14 13
19 21 21 22 23 25 26 26 25 25 19 20 20 21 21 17 19 19 19 20 15 15 15 14 15 14 14 15 15 15 15 16 16 16 16 16 16 15 15 15 15 14 14 14 14 14 14 13 13
20 22 22 23 24 25 26 24 23 23 16 14 12 12 20 17 18 17 16 16 16 15 16 15 14 14 15 15 15 15 15 15 15 16 15 15 16 16 15 15 15 14 14 14 14 14 13 13 13
22 23 22 23 24 23 20 20 22 20 13 12 11 13 19 17 17 16 16 15 15 15 15 16 14 14 14 14 15 15 15 15 15 15 15 16 15 15 15 15 15 15 14 14 14 13 13 13 13
22 23 23 24 25 23 21 21 22 18 12 11 14 17 17 18 16 16 16 15 14 13 14 15 14 14 13 14 14 14 14 15 15 15 15 15 15 15 15 15 15 14 14 14 13 13 13 13 12
23 24 23 24 24 22 22 22 22 23 20 18 14 15 14 16 16 16 16 15 15 12 12 14 14 14 13 13 13 13 14 14 15 15 15 15 14 15 15 14 14 14 14 13 13 13 13 12 12
23 22 22 23 24 24 23 24 24 22 22 19 16 17 16 15 14 15 16 15 15 13 13 14 13 12 12 12 13 13 14 14 14 14 14 14 14 14 14 14 14 14 13 13 13 12 12 12 11
24 23 23 25 25 25 25 25 24 23 18 15 13 15 15 14 14 13 14 13 13 12 11 12 13 11 12 11 12 13 13 13 13 13 13 12 14 14 14 14 13 13 13 13 12 12 11 11 11
24 23 25 25 25 24 24 22 23 24 18 16 16 20 15 14 13 13 13 13 13 12 12 12 11 11 11 11 11 11 11 11 12 12 11 12 15 13 14 13 13 12 12 12 12 11 11 11 11
24 25 25 25 25 24 24 21 23 24 20 19 19 18 16 14 13 12 13 12 12 12 11 11 11 11 11 11 11 11 10 10 11 11 11 14 12 13 12 13 12 12 12 12 11 10 11 11 11
24 24 24 25 24 24 24 24 24 15 17 17 18 15 13 13 12 12 12 12 11 12 11 11 10 9 10 10 10 9 10 11 11 10 13 13 13 13 12 12 11 11 11 10 11 11 11 11 12
24 24 24 24 24 23 24 21 21 14 17 17 15 14 12 12 12 12 11 11 11 10 10 10 9 9 9 8 9 10 11 10 11 11 13 12 11 11 11 11 11 11 11 11 10 10 10 10 11
24 23 24 21 20 20 21 21 17 17 19 18 16 14 12 11 11 11 11 10 11 10 9 9 9 8 8 8 9 9 10 10 10 12 12 11 12 11 11 11 11 11 11 10 10 10 10 10 9
23 23 20 18 19 21 23 19 17 20 19 19 17 14 12 11 11 10 10 10 9 9 9 9 8 8 7 8 10 10 8 10 11 11 10 11 11 12 12 11 11 10 10 10 10 10 10 9 9
23 21 20 22 21 21 24 19 16 18 17 20 17 15 11 10 10 9 9 9 9 9 9 9 9 9 9 9 9 9 9 10 9 10 10 11 11 12 12 11 10 10 10 10 10 9 10 9 9
21 19 22 22 23 23 23 24 18 18 23 20 16 14 11 11 9 9 9 10 9 9 9 9 10 10 9 9 10 10 10 10 10 10 11 11 12 12 11 11 10 10 10 9 10 9 9 9 9
24 23 23 24 24 23 23 24 24 23 23 21 17 16 14 12 10 10 10 10 9 9 10 11 10 10 10 9 9 10 10 11 11 12 11 11 11 11 11 10 11 10 9 9 9 9 9 9 9
23 23 23 24 25 24 23 23 24 23 23 21 19 16 15 14 12 11 11 10 10 11 11 10 10 10 10 10 10 11 11 12 12 11 11 11 11 11 11 10 11 10 9 9 9 9 8 8 8
22 22 22 23 24 24 23 23 24 24 24 21 21 18 16 15 13 12 12 11 11 11 11 10 11 11 11 11 11 12 12 11 12 11 11 11 12 12 11 10 10 10 9 9 9 8 8 8 8
22 24 24 23 22 21 20 20 23 23 23 23 21 21 19 17 15 13 13 13 12 12 11 12 12 12 12 12 12 12 12 11 12 12 11 11 12 11 11 10 9 9 9 9 9 8 8 8 7
22 24 23 22 22 22 21 20 24 24 22 24 23 21 20 19 17 15 14 14 13 13 12 12 13 13 13 13 12 13 12 12 12 12 11 11 11 12 11 10 9 9 9 8 8 7 7 8 8
24 23 22 22 22 20 22 22 21 21 23 25 24 22 22 20 19 17 16 15 14 14 13 13 13 13 13 13 13 13 13 13 12 11 11 11 11 11 10 10 8 8 8 8 8 7 7 7 7
23 21 19 17 18 19 22 21 23 22 25 25 25 24 22 22 20 18 17 16 15 14 14 13 13 13 14 14 13 14 13 13 12 12 12 12 12 12 11 9 8 8 8 7 7 7 7 7 7
22 21 20 17 13 17 19 21 24 25 25 25 25 25 24 23 22 20 18 17 16 16 15 14 14 14 14 14 14 14 13 12 12 12 13 12 12 12 11 10 8 8 7 7 7 6 6 6 5
22 21 23 21 20 18 19 19 24 25 25 25 25 25 24 24 23 22 21 19 18 17 16 15 14 14 14 15 14 14 12 12 12 13 13 11 11 11 10 9 8 7 7 6 6 5 5 5 5
22 23 20 21 18 18 21 22 17 21 23 24 24 24 24 23 23 23 22 21 19 18 17 16 15 15 15 14 14 13 13 11 12 12 11 10 10 9 8 8 7 6 6 6 5 4 4 4 4
22 21 21 22 21 18 17 21 19 21 22 24 25 24 24 23 22 22 22 22 21 20 18 17 16 15 15 14 14 13 12 11 11 11 10 10 10 9 8 7 7 6 6 5 4 5 4 3 2
23 22 21 20 20 20 18 19 24 24 24 24 24 24 24 23 23 22 21 21 22 21 19 18 17 15 15 15 14 13 12 12 10 10 10 10 10 9 8 8 7 6 5 5 4 4 3 3 2

GFSSGP_850_temp_081.txt.gz
Temp
19 19 19 18 15 13 14 17 20 21 22 22 24 23 20 17 20 17 18 19 19 16 14 15 17 17 17 17 17 17 17 17 17 17 17 17 17 17 16 16 16 15 15 15 15 15 14 14 13
19 19 18 19 15 13 16 19 21 19 14 19 21 19 21 16 17 16 16 19 20 21 19 15 15 16 16 16 17 17 16 16 16 17 16 17 17 16 16 16 15 15 14 14 14 14 14 13 13
20 19 18 14 14 15 16 21 20 17 16 15 14 17 17 14 15 15 15 17 18 19 20 15 15 15 15 16 16 17 16 16 16 16 16 17 16 16 16 15 15 15 15 14 14 14 14 14 13
19 19 20 16 16 17 20 20 17 17 16 15 15 15 16 15 17 14 13 16 16 17 18 15 14 15 15 16 16 16 16 16 16 16 16 16 16 16 15 14 14 15 14 14 14 14 14 14 13
18 19 15 16 17 20 20 20 18 14 15 14 16 14 15 18 19 16 15 14 17 17 16 14 14 15 15 16 16 16 16 16 16 16 16 16 16 15 15 14 14 14 14 14 14 14 14 14 13
18 20 15 16 18 21 19 20 18 16 14 17 16 12 15 19 19 16 17 17 14 13 14 14 14 14 15 15 15 15 15 15 15 16 16 16 16 15 15 15 15 14 14 14 14 14 13 14 13
17 15 15 16 19 20 21 21 18 15 15 15 13 12 15 16 15 15 16 16 14 15 13 12 14 14 14 15 15 15 15 15 15 16 16 15 15 15 15 15 14 14 14 14 14 13 13 13 13
20 16 16 17 18 20 21 22 22 19 14 15 15 15 14 14 16 15 15 14 15 14 14 12 12 14 13 14 14 14 15 15 15 15 15 14 14 14 14 14 14 14 14 14 13 13 13 12 13
21 16 16 18 20 21 22 21 23 19 16 14 14 15 14 13 16 15 14 14 14 15 16 12 12 13 13 13 13 14 14 15 15 14 14 14 14 14 14 14 14 14 14 13 13 12 12 12 12
19 15 17 21 22 21 22 21 22 19 16 15 14 16 16 13 14 14 13 13 14 15 15 12 12 13 12 12 13 14 14 13 13 13 13 14 14 14 14 14 14 14 13 13 12 12 11 11 11
21 17 20 22 24 23 22 22 18 18 17 17 15 17 15 15 14 13 13 12 14 13 12 12 11 12 13 12 13 13 13 13 13 13 13 14 14 14 14 14 13 13 13 12 12 12 11 12 12
20 22 22 23 24 23 22 22 16 17 16 17 16 16 15 14 14 13 12 12 13 12 11 11 11 11 11 12 12 13 12 12 12 12 12 13 13 13 14 14 13 13 12 12 11 12 12 11 11
20 21 23 22 22 22 22 18 18 16 18 16 16 14 13 12 13 13 12 11 12 12 11 11 11 11 11 12 12 11 11 12 11 11 12 12 13 13 14 13 13 12 12 11 12 12 11 11 11
22 22 22 22 21 22 21 19 19 18 17 16 15 13 11 12 12 12 12 12 11 11 11 11 10 10 11 11 11 10 11 11 11 11 11 13 12 13 13 13 12 12 11 11 12 11 11 11 11
21 19 19 21 21 20 21 18 17 18 17 17 15 13 12 11 11 11 11 11 12 11 11 11 10 9 9 10 9 10 10 10 11 11 11 11 12 13 13 12 12 11 11 11 11 11 11 11 11
19 18 18 18 20 20 19 17 18 17 17 17 15 12 11 10 10 11 11 11 11 11 10 10 10 9 9 8 8 8 8 10 11 11 10 11 13 11 12 12 12 11 11 11 11 10 10 10 10
17 16 18 18 20 18 17 16 17 18 18 16 14 12 11 9 10 10 10 10 10 10 9 9 9 8 8 8 7 8 9 10 10 9 10 12 12 12 11 11 11 11 11 10 10 10 10 10 9
17 18 19 18 19 18 18 17 14 17 18 14 13 12 10 9 9 9 9 9 9 9 9 9 8 8 9 8 8 9 9 9 10 11 12 13 12 12 11 11 11 11 10 10 10 10 10 9 9
19 20 18 18 20 19 19 17 15 16 16 13 12 10 10 9 9 9 9 9 10 9 9 9 9 9 9 9 8 8 10 10 11 12 12 12 12 11 10 11 11 11 11 11 10 9 9 9 9
21 20 19 20 22 21 19 19 19 18 16 14 12 12 11 10 9 9 9 9 10 10 9 9 10 10 9 9 9 9 10 10 11 11 11 11 10 10 10 11 12 11 11 10 10 10 9 9 9
20 20 19 19 21 20 21 18 20 21 17 15 14 13 13 12 11 10 9 9 9 10 11 11 11 11 11 11 10 10 10 11 11 11 11 11 11 11 11 11 11 11 11 10 10 9 9 9 9
19 21 21 21 20 17 20 15 19 19 18 16 15 14 13 12 12 11 11 11 11 11 11 11 11 11 11 11 11 11 10 10 11 11 11 11 11 11 11 11 11 11 10 10 10 9 9 8 8
20 21 21 21 18 18 18 17 17 19 18 18 16 15 14 14 14 12 12 12 12 11 11 11 10 11 11 11 11 11 10 11 11 12 12 11 11 11 11 11 11 10 10 9 9 9 9 8 8
22 21 20 20 17 15 18 19 16 17 20 20 19 16 15 14 14 15 14 12 12 12 12 12 11 11 11 12 12 11 11 12 12 12 12 12 12 12 11 11 10 9 9 9 9 9 9 8 8
20 19 15 14 14 14 17 17 18 20 20 21 19 19 17 16 15 14 14 14 13 12 12 13 12 11 12 12 13 12 12 12 12 12 12 12 12 12 12 11 10 9 9 9 8 8 8 8 7
19 18 13 14 11 13 14 15 18 21 22 23 23 20 19 17 16 15 16 15 14 14 14 13 13 13 12 13 13 13 13 13 13 12 12 12 13 13 12 11 10 9 9 8 8 8 7 7 7
19 17 18 16 15 14 15 17 20 21 21 21 23 24 20 18 17 17 16 16 15 15 15 15 14 13 13 13 13 13 13 12 13 12 12 13 13 12 12 11 9 9 8 8 7 6 6 6 5
20 20 17 16 14 13 18 17 17 19 20 21 21 21 22 21 18 17 17 17 16 16 16 16 15 15 15 14 13 14 14 13 13 13 12 13 13 11 11 10 9 8 7 7 6 6 5 5 4
18 18 19 19 16 13 13 15 17 19 20 21 21 23 23 23 23 21 19 18 18 18 17 16 16 15 14 14 14 14 14 14 13 13 13 13 13 10 10 9 9 8 7 7 7 6 5 5 5
21 19 18 14 16 15 13 14 19 19 19 20 21 23 23 23 22 22 22 20 18 18 17 16 16 16 14 14 14 14 14 14 14 12 12 11 11 10 9 9 9 8 7 7 6 6 6 5 5

GFSSGP_850_temp_084.txt.gz
Temp
18 18 18 18 14 11 13 16 17 17 17 19 19 21 19 14 16 17 16 18 19 19 18 17 17 18 18 18 18 18 18 18 18 18 18 18 17 16 16 16 15 14 15 15 14 14 13 13 13
18 18 18 17 13 12 12 16 15 15 16 17 18 18 17 15 16 18 18 16 16 17 18 20 17 16 17 17 18 17 17 17 17 17 17 17 17 16 16 15 14 15 15 15 14 14 13 12 12
19 18 18 13 10 12 13 17 18 15 16 16 17 16 16 15 15 16 17 16 16 16 16 16 16 15 14 17 17 17 17 17 17 17 17 17 17 16 15 15 15 15 15 15 14 13 13 12 12
19 18 17 14 14 15 17 18 18 16 16 17 15 15 16 15 15 14 16 17 16 16 16 16 14 19 13 16 17 17 17 17 16 17 17 17 16 16 15 15 15 15 15 14 14 13 13 12 12
18 18 13 13 14 16 18 20 17 15 15 16 16 15 14 15 14 14 15 15 16 16 15 14 14 14 15 14 16 16 16 16 16 17 17 16 16 15 15 15 15 15 14 14 13 13 13 12 13
17 16 13 12 15 17 19 20 17 16 16 16 14 14 16 16 16 15 15 16 16 15 13 12 13 13 13 13 16 16 16 16 16 16 16 16 15 15 15 15 15 15 14 14 14 13 13 12 12
15 13 13 14 16 17 20 20 18 16 15 15 14 14 15 16 14 16 14 15 14 13 14 14 13 13 12 12 15 15 15 15 16 16 16 15 15 14 14 15 15 14 14 14 14 14 13 12 12
19 13 15 14 16 17 20 21 19 18 14 16 16 14 14 17 16 17 15 15 14 14 14 15 13 15 12 12 13 13 15 15 16 16 15 15 14 15 14 14 14 14 14 14 13 13 13 13 12
19 14 13 15 17 19 21 21 18 18 16 16 16 17 16 16 15 16 13 12 13 14 14 13 12 11 12 12 12 13 13 15 15 15 14 14 13 14 14 14 14 14 14 13 13 13 13 13 12
17 13 15 17 18 19 21 20 18 17 15 15 15 16 15 14 14 14 13 13 12 14 13 11 12 13 12 11 11 12 14 14 14 14 14 14 14 14 14 14 14 14 13 13 12 12 13 12 12
17 15 18 19 20 21 21 17 18 16 15 15 16 17 14 13 12 13 12 13 12 13 13 11 14 12 12 11 10 12 13 14 14 14 14 14 14 13 14 13 13 13 13 13 12 13 11 12 12
19 19 19 20 21 22 19 18 17 16 15 15 15 15 13 13 12 12 12 12 12 11 11 11 11 13 11 11 11 12 12 13 13 13 13 14 14 14 14 14 13 13 13 13 13 12 12 11 11
18 19 21 21 21 21 21 18 18 16 14 15 14 14 13 13 12 11 12 12 11 11 11 12 11 12 11 11 11 12 13 13 13 13 14 14 14 14 13 14 13 13 13 12 12 12 11 11 11
20 19 20 20 20 21 20 18 18 16 14 14 14 13 13 12 12 11 11 12 11 11 11 11 11 11 11 11 11 11 12 12 12 13 13 13 14 13 14 13 13 13 13 12 12 12 11 11 11
20 18 17 19 20 19 20 17 17 18 16 14 13 13 12 12 11 11 11 11 11 11 11 11 11 11 10 11 10 11 11 11 11 12 13 13 13 13 13 13 13 13 12 12 12 11 11 11 11
17 17 17 17 19 19 19 16 17 17 17 14 12 12 11 11 10 11 11 11 11 11 11 11 10 10 10 9 10 10 11 11 11 12 11 12 12 12 13 13 13 13 12 11 11 11 11 11 11
15 14 16 17 18 18 18 17 16 18 16 13 12 11 10 10 10 10 10 10 11 11 10 10 10 10 10 9 10 10 10 10 11 11 12 12 11 12 12 12 13 12 11 11 11 11 11 11 10
14 15 17 16 18 17 17 16 16 16 16 14 11 11 10 10 10 10 10 10 10 10 10 10 9 9 8 8 9 9 10 10 10 10 11 11 12 11 11 11 11 11 11 10 10 10 10 10 10
16 16 16 17 19 18 17 16 15 14 14 12 11 10 10 9 9 9 10 10 9 9 9 9 8 8 8 9 8 8 9 9 10 11 11 11 10 11 11 11 11 11 11 11 10 10 10 10 10
16 16 17 18 19 18 19 17 16 13 13 12 11 9 9 9 9 9 10 9 9 9 9 9 9 8 8 9 9 9 8 9 10 11 11 11 10 11 13 12 11 11 11 10 10 10 10 10 9
17 16 17 18 19 19 18 17 17 16 15 13 12 12 11 9 11 9 9 10 11 10 9 9 9 9 9 9 9 9 9 9 10 11 11 11 12 12 12 12 12 11 11 10 10 11 10 10 9
16 18 19 19 18 16 18 15 16 15 14 13 12 11 11 11 14 12 11 10 11 10 10 9 8 8 9 9 9 9 10 10 10 11 11 12 13 12 12 11 11 10 10 10 10 11 10 10 9
17 19 19 20 18 16 16 15 16 16 14 13 13 12 11 12 15 15 13 12 12 10 10 10 10 10 9 9 10 10 10 10 11 11 12 12 12 12 11 11 10 11 10 10 10 10 10 9 9
20 20 18 16 16 14 16 15 15 15 17 15 14 13 12 12 13 13 14 14 11 11 11 10 11 11 11 11 11 10 11 11 11 11 11 11 11 11 11 11 10 11 10 10 10 10 9 9 9
19 17 14 14 14 13 15 15 16 18 18 17 16 15 12 12 13 12 12 12 13 12 12 11 11 11 11 11 11 11 11 11 11 11 11 11 11 11 12 11 11 11 10 10 10 9 9 9 8
17 17 12 15 12 13 15 15 17 18 19 20 19 17 14 12 12 13 14 14 13 13 13 12 12 12 11 11 11 11 11 11 12 12 12 12 12 12 12 12 11 11 10 9 9 9 8 8 6
17 15 17 14 14 13 14 16 17 18 20 21 18 18 15 14 13 14 14 14 14 14 13 13 13 12 12 12 11 12 12 12 12 12 12 12 12 12 12 12 11 10 10 9 8 8 8 7 6
18 17 15 14 13 13 14 15 16 18 20 19 18 17 17 16 15 14 14 14 15 15 15 13 13 13 13 13 13 12 12 12 12 12 12 12 12 13 13 12 11 11 10 9 8 8 7 7 6
17 16 17 16 14 12 12 14 15 17 19 19 18 19 19 17 17 16 16 17 16 15 14 14 13 13 13 13 13 13 13 13 13 13 12 12 12 13 13 12 11 11 10 10 9 8 7 7 6
17 17 17 14 15 13 12 13 18 17 18 18 18 21 20 21 20 20 20 20 17 17 14 14 14 14 14 14 14 14 13 13 13 13 12 11 12 12 12 12 10 10 9 9 9 7 7 6 6

GFSSGP_850_temp_087.txt.gz
Temp
18 18 18 18 13 10 13 14 16 17 18 18 18 16 16 15 17 17 16 16 16 15 17 17 18 17 17 18 19 18 17 18 17 17 17 17 17 17 16 16 15 15 15 14 14 14 13 13 13
18 18 18 17 11 12 13 14 16 16 17 18 17 17 16 15 16 17 16 17 17 15 16 16 17 18 17 16 16 17 18 17 17 17 17 17 17 16 16 15 15 15 14 14 13 13 13 13 13
18 18 18 11 9 12 13 15 16 17 17 16 16 16 16 15 16 17 16 16 16 16 15 16 16 18 18 17 15 17 18 17 17 17 17 17 17 16 15 15 15 14 14 13 13 13 13 13 13
18 18 16 13 14 13 15 16 17 17 16 15 15 15 16 16 17 17 16 15 14 17 16 15 16 17 19 18 17 14 17 17 17 17 17 17 16 16 15 15 15 14 14 13 12 13 12 13 13
18 17 12 13 13 15 15 18 17 17 15 16 15 15 15 15 15 18 17 17 17 17 17 16 16 17 16 18 16 14 15 17 17 17 16 16 16 15 15 15 15 14 14 13 13 13 13 13 13
17 15 12 13 14 15 16 19 17 16 16 15 15 14 15 16 15 15 16 15 16 15 16 16 16 14 14 15 16 14 13 16 16 17 16 16 15 14 15 15 15 14 13 12 12 13 13 13 13
15 11 13 13 14 15 17 19 17 16 16 16 16 14 16 16 14 15 15 15 15 15 15 15 14 15 14 14 15 15 12 15 16 16 15 15 14 14 14 14 14 14 13 12 12 13 13 13 13
18 11 14 13 15 16 18 19 17 17 17 17 15 14 15 16 14 12 13 13 14 15 15 14 14 15 13 12 12 13 13 13 16 15 15 14 14 14 14 14 14 14 13 13 13 12 13 13 13
18 13 12 14 15 17 20 19 17 17 17 16 16 16 15 16 13 13 12 12 12 12 13 14 13 13 13 13 12 12 12 11 15 15 14 13 13 13 14 14 14 13 13 13 13 13 13 12 12
14 11 14 15 16 17 19 19 18 16 15 15 16 16 14 14 13 13 12 13 14 13 14 11 12 11 11 13 11 11 11 10 13 15 12 12 13 13 13 14 13 13 13 13 12 13 13 12 12
15 14 16 18 20 19 17 17 17 15 14 16 16 16 15 13 12 12 12 12 12 14 13 11 11 11 12 11 11 11 11 10 12 13 12 13 13 13 13 13 13 13 13 13 13 12 13 12 12
17 17 18 19 21 19 18 18 16 16 16 16 16 16 15 13 12 12 11 12 12 13 11 11 12 12 11 10 11 11 11 10 12 13 13 13 13 13 13 13 13 13 13 13 12 13 12 12 11
16 17 19 20 20 19 18 17 17 16 15 15 15 14 12 12 12 12 11 11 11 11 11 11 11 11 12 11 11 11 9 11 13 13 13 13 13 13 14 14 13 13 13 13 13 12 12 12 11
18 18 18 19 19 19 18 17 17 17 14 14 14 13 12 12 11 11 11 11 12 11 11 11 11 11 11 12 11 9 10 12 13 13 13 13 14 14 14 14 13 14 13 12 13 12 12 11 11
18 17 15 18 19 18 19 17 15 17 15 13 13 12 11 11 11 11 11 11 11 11 11 11 11 11 11 10 10 10 11 12 13 13 13 14 14 14 14 14 13 14 12 12 12 11 11 11 11
17 16 15 16 18 19 19 16 15 16 14 13 13 11 10 11 10 10 11 11 10 11 10 11 11 11 10 10 10 10 11 12 12 12 13 13 13 13 14 13 13 13 12 12 12 11 11 11 11
14 13 14 15 17 17 17 16 15 15 14 12 12 11 10 10 10 10 10 10 10 11 11 11 11 11 10 9 10 10 11 11 11 11 11 12 12 13 13 13 12 12 12 11 12 11 11 11 11
13 13 16 15 16 16 16 15 14 14 15 13 12 10 9 10 10 11 10 10 10 10 10 10 10 10 9 9 9 9 10 11 11 11 11 12 12 12 12 12 11 12 11 11 11 11 11 10 11
15 15 14 15 17 17 16 15 16 14 14 11 10 10 10 10 9 10 9 10 9 10 10 9 10 10 9 9 9 10 10 10 10 11 11 11 11 13 11 11 11 11 11 12 11 10 10 10 10
14 14 14 15 17 16 15 15 16 12 13 12 10 11 12 10 9 9 8 9 9 9 9 10 9 9 9 8 9 9 10 10 9 10 10 11 12 12 11 11 11 11 11 10 10 10 10 10 10
14 14 14 14 16 16 17 15 17 15 14 13 11 12 14 14 10 9 9 9 9 9 9 9 9 9 8 8 8 9 9 9 9 10 10 11 11 11 12 11 11 11 11 11 11 10 10 10 10
14 16 16 16 15 15 17 14 15 15 13 12 11 11 12 14 14 10 10 10 9 9 8 9 10 9 8 8 8 9 9 8 9 10 11 11 11 12 11 11 10 11 11 11 11 11 10 10 10
16 17 16 15 15 15 16 14 14 14 13 12 11 11 12 13 15 14 13 11 11 10 10 10 10 10 9 9 9 9 9 8 9 10 10 11 11 11 10 10 10 11 11 11 11 10 10 10 10
17 16 16 14 14 13 15 14 13 13 15 15 13 12 12 13 13 15 14 11 12 12 11 11 11 11 10 9 9 9 10 10 10 10 10 11 11 10 11 11 12 12 11 11 11 10 9 9 10
15 15 12 12 13 12 14 13 14 16 16 16 14 13 13 13 13 13 14 14 13 12 12 11 11 11 10 10 9 10 10 10 10 10 11 11 11 12 12 13 12 12 11 11 11 10 9 9 9
14 14 12 14 11 13 14 13 15 16 18 18 19 18 14 12 15 15 15 14 14 14 14 12 12 12 12 11 10 10 11 11 11 12 12 12 12 13 13 13 12 12 11 11 11 9 9 9 8
15 14 16 14 13 12 13 14 16 16 17 18 16 15 15 14 15 16 16 16 16 15 15 15 13 13 12 12 11 11 11 11 11 12 12 12 12 12 12 12 12 12 11 11 10 10 9 9 9
17 16 15 12 13 12 13 14 14 16 19 18 15 15 15 15 15 15 16 16 16 16 15 14 13 13 12 11 11 11 11 11 11 11 11 12 12 12 12 12 11 11 11 11 10 10 9 9 8
15 16 15 15 12 14 12 12 14 15 16 18 17 17 17 16 16 17 17 17 16 15 14 14 14 13 13 12 11 11 11 11 11 11 12 12 12 12 12 11 11 11 10 9 10 9 9 9 8
16 16 16 13 14 12 11 13 16 15 15 16 18 20 18 17 19 18 18 17 15 15 14 14 13 13 13 13 12 12 12 12 12 12 12 11 11 11 12 11 10 10 10 10 10 9 9 9 8

GFSSGP_850_temp_090.txt.gz
Temp
18 18 18 18 13 10 13 14 15 16 18 17 16 16 14 15 16 16 17 16 15 16 17 16 16 16 17 17 17 18 18 18 17 17 17 17 17 17 15 14 14 15 15 15 14 14 14 14 14
18 18 18 17 11 12 13 13 15 16 18 18 17 16 15 16 16 18 18 17 16 15 16 17 16 16 17 16 16 17 17 17 17 17 17 18 17 16 14 14 15 15 15 14 14 14 14 13 13
18 18 17 10 8 12 13 14 15 17 18 17 16 16 16 17 18 18 19 18 17 16 15 15 16 16 17 16 16 17 17 17 18 17 17 17 16 15 14 14 15 15 15 15 14 14 13 13 12
18 18 15 12 14 14 14 15 15 16 16 15 15 14 16 18 17 17 17 16 17 16 15 16 15 16 17 17 17 17 17 16 17 17 16 16 15 15 14 15 14 14 14 14 13 13 13 12 12
18 17 11 13 13 14 13 16 17 16 16 15 15 15 16 18 17 16 15 15 15 17 16 15 16 16 16 16 18 18 18 17 16 17 17 16 15 14 14 14 13 14 14 14 13 13 13 12 12
16 15 12 12 13 14 15 18 17 16 16 15 14 14 16 17 17 16 15 15 15 16 16 15 14 13 14 15 17 17 17 17 17 16 17 16 14 14 14 14 13 13 14 14 13 13 13 13 12
14 10 12 13 14 15 17 18 17 16 16 16 16 14 16 17 16 16 15 16 15 16 16 15 14 14 15 15 16 17 18 16 14 15 17 15 14 14 14 13 13 13 14 13 13 13 13 12 12
17 11 14 12 14 15 17 18 18 17 16 17 15 14 15 17 16 16 15 15 15 15 15 15 15 15 14 14 14 16 16 14 13 14 15 15 13 14 14 13 13 13 13 13 13 13 13 12 12
17 11 11 14 14 17 18 18 17 17 16 15 16 16 16 16 15 13 12 14 15 15 15 13 14 14 14 13 14 14 15 14 13 12 13 13 13 13 13 12 12 13 12 13 13 13 13 13 12
13 11 13 14 15 16 17 17 18 16 15 15 16 17 16 15 14 12 12 12 12 12 12 11 12 13 14 12 11 12 12 13 13 12 12 13 13 13 13 12 12 12 12 13 13 13 13 13 12
14 13 14 17 18 18 16 16 17 15 15 16 16 17 15 14 12 12 12 12 11 11 11 11 12 12 13 12 12 11 12 11 13 11 12 13 13 13 13 12 12 12 13 13 13 13 12 12 12
15 16 16 18 19 18 17 18 16 15 17 17 16 16 15 13 13 13 13 12 11 10 10 11 12 12 12 11 12 11 11 11 11 11 12 12 12 12 12 12 12 13 13 13 13 12 12 12 12
15 16 18 19 18 18 18 17 15 15 16 15 15 14 13 13 13 12 12 12 11 11 11 11 11 11 12 11 11 11 11 12 12 11 11 12 12 13 13 12 13 12 12 13 12 12 12 12 12
17 17 17 18 18 17 17 16 16 18 16 15 14 13 12 12 11 11 11 11 11 11 10 11 11 10 11 11 11 11 10 11 12 11 11 12 13 13 13 13 13 13 12 12 12 12 11 12 12
17 15 14 15 17 17 17 15 13 18 15 14 13 12 11 10 10 10 10 11 11 11 11 11 11 10 10 10 11 11 11 11 12 11 12 13 13 13 13 14 13 14 12 12 12 12 12 11 11
15 14 14 16 16 18 18 15 15 16 14 12 13 11 10 10 10 10 10 11 11 11 11 11 11 11 10 10 10 11 10 11 12 12 12 12 13 13 13 13 13 14 12 12 12 12 12 11 11
12 12 13 14 16 17 17 15 16 16 13 12 12 10 10 10 9 10 10 11 11 10 11 10 10 11 11 11 11 10 10 10 11 12 13 12 12 13 12 12 13 13 12 12 12 12 11 11 11
12 13 13 13 16 15 15 14 15 16 13 12 12 10 9 9 9 10 10 10 10 10 10 10 10 10 10 10 10 9 9 10 11 12 12 12 13 12 12 12 12 13 12 11 11 11 11 11 11
14 13 13 13 15 16 14 13 14 14 13 11 11 10 9 10 9 9 10 10 10 10 10 10 10 10 10 9 9 9 9 10 10 11 11 11 11 11 12 11 12 12 11 11 11 11 10 10 10
14 13 13 13 15 15 14 14 15 13 12 13 11 10 10 9 9 9 10 10 10 10 9 9 9 9 9 9 9 8 9 10 10 11 11 11 11 11 11 12 11 12 11 11 11 11 11 10 10
13 13 13 13 14 14 14 13 15 15 13 14 13 12 11 12 10 9 9 9 9 9 9 9 9 10 9 9 9 8 9 9 10 10 10 10 9 10 12 11 11 11 11 11 11 11 10 10 10
13 14 14 14 13 12 15 12 14 16 14 12 12 12 11 11 11 11 9 9 9 9 9 9 9 9 9 9 9 8 9 9 10 10 10 9 10 11 12 11 11 11 10 11 11 10 10 10 10
14 15 14 14 13 13 14 12 13 14 15 14 11 13 12 13 14 14 12 9 10 9 9 9 9 9 9 9 8 9 9 10 10 10 10 10 10 11 11 11 11 11 10 11 10 10 9 10 10
15 15 15 14 12 11 13 13 12 14 15 15 14 14 15 13 13 14 14 13 11 9 9 8 8 8 8 8 8 9 9 10 9 10 9 10 10 11 10 11 11 11 11 11 11 11 10 10 9
14 13 11 11 11 11 13 12 14 15 15 15 15 16 16 15 14 14 13 13 12 12 11 10 9 9 8 8 8 9 9 9 9 9 9 10 10 10 11 11 11 11 11 11 11 10 10 10 9
14 13 10 13 11 13 13 12 14 15 16 17 19 17 17 14 15 16 15 15 14 13 13 13 13 11 10 9 9 9 9 9 9 10 10 10 10 10 11 11 11 11 11 11 11 10 10 10 11
13 12 14 13 12 11 12 13 15 16 17 15 16 15 16 15 16 17 16 15 15 15 15 14 14 13 13 11 10 10 10 10 11 10 10 10 10 10 11 11 11 11 11 12 11 11 11 11 11
15 14 14 11 12 12 12 13 14 16 16 16 16 13 15 15 16 17 17 17 16 16 15 14 14 15 15 13 13 12 11 11 10 10 10 10 10 11 11 11 11 12 12 11 11 11 11 10 10
13 14 14 14 11 12 12 12 12 15 16 16 15 17 16 16 18 19 19 18 16 16 15 15 14 14 13 13 13 13 13 12 12 12 12 12 12 12 12 12 12 11 11 11 11 10 10 9 9
15 14 15 13 12 10 11 14 15 14 14 14 16 19 19 19 19 19 17 16 16 16 15 15 14 14 14 14 14 14 13 12 12 12 12 11 12 11 11 11 11 10 10 10 10 9 9 9 9

GFSSGP_850_temp_093.txt.gz
Temp
18 18 18 18 19 18 19 19 17 18 19 18 17 17 19 17 19 20 18 17 17 16 17 17 17 17 17 17 17 18 18 18 17 17 17 17 17 16 15 15 15 15 15 15 14 14 14 14 14
18 18 18 17 19 19 20 17 18 19 19 18 17 16 16 19 17 18 17 17 17 16 17 16 16 17 18 18 17 18 18 17 17 17 17 17 16 15 15 15 14 14 15 15 14 14 14 14 14
18 18 18 17 15 19 19 18 20 18 18 17 17 16 16 18 18 18 17 17 16 16 16 16 16 16 16 17 17 18 17 17 17 17 16 16 15 15 15 14 14 14 14 14 14 14 13 13 14
18 18 15 18 18 18 18 20 17 17 16 15 15 18 17 18 18 18 17 17 16 16 15 16 15 15 16 16 17 17 17 17 17 17 17 16 15 15 14 14 14 14 14 14 13 13 13 13 13
17 17 17 17 17 17 17 17 16 18 17 15 15 18 16 18 18 18 18 16 16 15 14 14 15 15 16 16 17 17 17 17 17 17 17 16 15 15 14 14 14 12 12 13 13 13 13 13 13
17 15 17 18 17 17 18 17 17 17 17 15 15 15 17 18 17 17 17 16 16 15 15 13 13 14 14 15 16 16 16 16 17 17 18 16 15 15 14 14 13 12 13 13 13 13 13 12 12
17 17 17 16 17 17 19 18 17 19 18 17 17 17 17 17 17 17 17 16 16 15 15 14 12 12 13 13 14 16 16 16 16 16 16 16 15 14 14 13 13 13 13 13 13 13 12 12 12
17 17 15 16 17 19 19 18 19 17 19 17 16 18 18 17 17 16 16 17 16 15 14 13 13 13 13 12 12 15 16 16 15 16 15 15 15 14 13 14 13 13 13 13 13 13 12 12 12
16 17 17 17 16 19 18 18 17 17 16 16 17 17 17 16 16 16 16 16 16 16 15 14 14 13 13 12 12 13 14 15 15 15 14 14 14 13 13 13 13 13 13 13 13 12 12 12 12
17 17 17 17 17 19 19 17 18 17 16 16 16 17 17 16 15 15 15 15 14 15 15 15 13 13 13 12 12 13 12 13 15 14 13 13 13 14 13 12 12 12 12 13 12 12 12 12 12
14 18 16 18 17 17 18 18 17 17 19 18 18 18 17 16 15 14 13 12 12 12 13 13 12 13 12 12 11 11 11 13 14 14 13 13 13 13 12 12 12 12 12 12 12 12 12 12 12
16 16 16 18 18 16 18 17 17 16 20 18 18 17 16 16 15 13 12 11 12 11 12 12 13 13 12 11 12 11 11 11 13 13 12 12 12 12 12 12 12 12 12 13 12 12 12 12 12
16 17 16 18 18 16 17 18 18 17 19 18 17 17 15 15 13 12 12 11 11 11 11 11 11 12 11 11 11 11 11 12 11 12 11 13 12 12 12 12 13 13 13 13 12 12 11 13 12
16 16 17 17 17 17 18 18 15 20 19 17 16 15 13 14 13 12 11 11 11 11 11 12 11 11 12 11 11 11 12 11 11 11 11 12 12 12 12 12 13 13 13 12 13 12 12 12 12
16 16 17 17 17 17 16 17 16 18 17 15 14 13 11 11 12 11 11 10 11 11 11 11 10 10 10 11 11 11 11 11 11 11 11 12 11 12 12 13 13 12 13 12 12 12 12 12 11
16 15 17 17 17 17 17 20 19 18 15 14 13 11 11 10 11 10 10 11 10 11 11 11 10 10 11 10 10 10 10 10 11 11 10 11 12 12 12 13 13 12 12 12 12 11 11 11 11
14 17 15 17 17 18 18 19 19 16 14 15 13 12 11 10 10 9 9 10 10 10 11 10 10 10 10 10 10 10 11 11 11 11 11 11 12 12 13 13 12 12 12 12 12 11 11 11 11
15 15 14 16 17 17 17 18 19 16 15 15 13 12 11 10 9 9 9 10 11 10 10 11 10 10 10 10 10 10 10 11 10 10 11 11 12 13 12 13 12 11 11 11 12 11 11 11 11
15 15 16 16 16 17 18 17 18 19 15 14 13 12 11 10 10 9 9 10 10 10 10 10 10 10 10 10 10 10 10 9 9 10 10 10 11 12 12 12 12 11 11 12 12 11 11 10 10
15 16 16 16 16 16 17 17 19 18 18 16 14 12 12 10 9 9 9 9 10 10 10 10 10 10 10 10 10 10 10 10 11 10 10 11 11 12 12 12 11 11 11 11 11 11 11 10 10
15 15 15 16 16 16 16 17 18 18 15 14 13 13 12 12 10 9 8 9 9 9 9 10 9 9 10 10 10 10 9 10 10 10 11 10 11 11 10 10 11 11 11 12 12 11 10 10 10
14 15 15 15 15 15 16 16 17 19 19 17 14 12 11 12 12 11 9 10 9 9 10 9 9 9 10 9 9 10 9 9 10 10 11 11 11 11 10 10 10 11 11 12 11 11 10 10 10
15 15 15 16 15 15 16 16 17 16 18 20 19 13 11 14 13 12 11 12 9 9 9 9 9 9 9 9 9 9 9 9 10 10 10 11 11 10 10 9 10 11 11 11 11 10 10 10 9
15 15 15 14 14 14 15 16 18 18 19 20 18 15 13 14 13 13 11 9 11 9 9 9 9 9 9 9 9 9 10 9 10 10 10 11 11 10 9 9 10 10 10 10 11 11 10 10 9
15 15 14 13 13 15 15 15 18 18 18 19 20 19 16 15 13 14 13 11 11 10 9 9 9 8 9 9 9 9 9 10 10 10 10 11 10 10 10 10 10 10 11 11 10 11 10 10 10
14 15 14 14 14 16 13 15 18 18 19 17 17 17 16 15 15 15 15 14 15 14 12 11 11 9 9 8 8 8 8 9 10 10 10 10 10 10 10 10 10 10 11 11 10 11 11 11 11
14 14 16 15 13 14 16 15 17 18 19 18 18 17 15 15 16 16 15 15 16 16 15 13 12 11 10 10 9 9 9 8 9 9 10 9 10 9 10 10 10 10 10 10 10 10 11 11 11
15 15 14 13 14 14 15 15 18 18 20 20 19 18 16 15 14 15 16 16 16 16 16 15 14 13 13 11 10 10 10 9 9 9 9 9 9 9 10 10 10 10 10 10 10 11 11 10 10
14 15 15 15 13 15 15 16 16 18 20 19 20 17 18 16 16 17 16 16 15 16 16 16 15 15 14 13 12 11 11 11 10 11 11 11 10 10 10 10 10 10 11 11 11 10 10 10 10
15 14 15 14 14 13 14 16 17 17 18 16 17 18 19 19 17 18 17 15 15 15 16 16 15 15 15 14 14 13 13 13 13 12 13 12 12 11 11 11 11 11 11 11 11 10 10 9 9

GFSSGP_850_temp_096.txt.gz
Temp
19 18 18 18 23 24 24 24 24 24 23 23 21 21 23 22 23 23 19 19 18 16 16 16 17 17 17 17 18 18 17 17 17 16 17 17 16 17 15 15 15 14 14 14 14 15 15 15 14
18 18 18 21 24 24 25 24 23 24 23 21 20 20 21 22 20 19 18 20 19 17 15 15 17 17 17 17 17 17 17 17 17 16 17 16 15 17 17 15 15 14 15 15 15 15 15 14 15
18 18 21 24 24 24 24 24 24 24 22 21 22 20 21 23 19 19 19 19 18 18 15 15 16 16 16 17 17 17 17 17 17 16 17 16 16 17 16 15 14 14 15 15 14 14 14 14 14
18 19 20 23 24 24 24 24 23 23 22 20 21 22 21 20 19 17 19 18 18 17 15 14 14 15 16 17 17 17 17 17 16 17 17 16 16 16 15 15 14 15 15 15 14 14 14 14 14
18 21 23 23 24 24 24 23 22 23 23 22 20 23 21 19 19 18 18 18 15 15 16 15 14 14 15 16 17 17 17 16 16 16 16 16 16 16 15 14 14 15 15 14 13 14 14 14 14
21 21 23 24 24 23 23 22 22 22 22 22 20 21 22 19 19 16 17 16 15 15 14 15 14 12 13 15 16 16 16 16 16 16 16 16 16 15 14 14 14 14 14 14 13 13 13 13 13
22 23 24 24 23 23 23 22 22 23 23 23 20 21 22 18 16 18 17 16 16 15 15 15 14 11 11 13 15 16 16 16 16 16 16 17 16 15 14 14 13 13 13 13 13 13 13 13 13
21 23 23 23 23 23 23 22 22 22 23 19 19 22 23 19 18 17 16 15 16 14 14 14 13 13 11 13 13 13 14 15 16 15 16 16 15 15 14 13 13 13 13 13 12 12 12 12 13
19 22 23 23 23 23 23 22 22 20 21 20 20 20 19 16 17 17 14 13 13 12 13 13 13 13 13 12 13 13 13 13 15 15 15 14 14 14 13 12 13 13 13 12 12 12 12 12 12
21 22 24 24 24 23 23 22 22 22 23 22 21 20 17 15 15 15 15 14 13 12 12 11 12 13 14 14 14 14 13 12 13 15 13 12 13 12 12 13 13 13 13 12 12 12 12 12 12
21 22 24 23 22 22 22 22 22 22 23 24 23 22 19 16 15 15 14 13 13 12 12 12 12 12 13 13 14 13 13 11 13 14 14 12 12 12 11 12 12 13 12 12 12 11 11 10 10
20 21 22 22 22 21 22 22 22 22 23 23 20 20 18 16 16 15 13 13 12 12 11 11 12 11 12 12 12 12 11 11 12 13 12 12 12 12 11 11 11 12 12 11 10 10 10 10 10
19 22 21 21 21 21 21 21 22 22 22 22 20 17 17 16 16 13 12 11 11 11 11 11 11 11 12 12 11 12 12 11 11 12 12 11 12 11 12 11 11 11 11 10 10 10 10 12 11
22 20 21 21 21 21 21 22 22 22 22 20 17 17 16 16 15 13 13 11 11 11 11 11 11 11 11 11 11 11 11 12 11 12 12 11 11 12 13 11 11 11 11 11 11 10 11 12 10
19 20 21 22 21 22 22 22 23 22 21 20 18 17 16 16 15 14 13 11 11 11 11 11 11 11 11 12 11 11 11 11 11 11 11 11 13 12 13 13 11 11 11 10 10 11 10 11 10
19 20 20 22 22 22 21 23 24 22 21 22 21 18 16 15 14 13 12 11 11 11 11 11 11 11 11 11 11 11 11 11 11 10 11 11 11 12 12 13 10 11 11 11 12 10 12 11 10
20 19 21 22 22 23 21 23 24 21 20 21 21 20 18 16 13 12 11 10 11 10 10 10 11 11 10 10 13 11 10 10 11 10 10 11 10 12 14 12 10 12 13 12 12 11 12 11 10
20 20 20 20 23 21 22 22 24 23 22 22 22 21 19 17 15 13 11 11 11 10 10 10 10 11 10 10 10 10 10 10 10 10 10 10 10 10 13 12 12 12 12 12 11 11 11 10 10
21 20 20 22 22 20 21 22 23 24 24 23 22 21 20 18 16 13 10 11 11 10 10 10 10 11 10 10 10 10 10 10 11 10 10 10 9 11 12 12 12 12 12 11 12 11 11 11 10
19 18 19 21 22 20 21 22 23 24 24 23 23 22 20 18 15 13 10 11 11 10 10 10 10 10 10 10 10 10 10 10 10 10 9 9 10 11 12 12 12 11 11 11 11 11 10 11 11
18 18 19 19 21 21 20 20 22 24 23 22 21 21 20 19 16 14 10 11 11 10 9 10 11 10 10 10 10 10 10 10 10 9 9 9 10 11 12 12 12 12 12 11 11 11 11 11 11
16 19 18 18 19 19 20 20 22 23 23 24 24 21 20 19 16 15 12 10 11 10 9 10 10 9 9 10 10 10 10 10 9 9 9 9 10 10 11 11 11 11 11 11 11 11 12 11 10
17 18 18 18 19 19 20 19 21 23 22 23 24 24 20 18 17 15 14 11 12 10 10 10 10 9 9 9 10 10 9 9 9 9 9 9 10 10 10 10 11 10 10 11 11 11 11 11 10
18 17 18 18 18 17 18 19 21 23 23 24 24 22 20 18 17 16 14 13 11 9 9 10 10 9 9 9 9 9 10 9 9 9 10 10 10 10 10 10 11 10 10 11 11 11 11 11 10
16 17 16 16 16 17 20 19 21 22 23 23 24 23 20 18 17 16 14 13 12 10 9 9 10 10 9 9 10 9 9 10 9 9 9 9 10 10 10 10 10 10 11 10 11 11 11 11 10
15 16 16 16 18 19 19 18 21 23 24 23 22 22 21 18 17 16 15 14 13 10 9 9 9 10 10 10 10 10 8 9 10 9 9 10 10 11 11 11 11 11 10 10 10 9 10 10 10
17 15 17 17 18 16 20 20 21 22 22 23 23 23 21 19 17 16 16 14 13 11 10 9 9 9 9 9 9 9 10 10 9 9 9 10 9 10 11 11 11 10 9 9 10 9 9 9 9
18 19 15 17 15 16 19 20 20 21 22 24 23 23 22 20 18 17 16 14 13 12 12 10 9 9 8 8 8 9 8 8 8 9 9 9 9 9 9 9 8 9 9 9 9 8 8 8 8
16 16 16 18 18 17 17 20 21 21 22 23 23 23 22 20 18 17 17 15 13 12 12 13 10 9 9 9 8 8 8 8 8 8 9 9 9 9 8 8 8 8 9 9 8 8 9 8 9
15 16 17 16 16 17 17 19 22 22 22 23 23 22 21 20 19 18 16 15 14 12 12 16 15 13 11 10 10 9 9 9 8 9 9 9 9 9 9 8 8 9 9 9 9 9 11 11 11

GFSSGP_850_temp_099.txt.gz
Temp
19 19 19 21 24 26 28 27 27 27 26 26 25 25 25 25 25 24 20 19 21 19 19 18 18 18 17 17 17 17 17 17 18 17 17 16 16 16 16 16 13 14 15 14 15 15 15 15 15
18 19 20 23 25 27 29 28 26 27 26 24 24 24 25 25 24 23 22 19 20 18 18 17 18 18 17 16 17 17 17 17 17 16 16 16 16 15 15 16 13 15 15 15 15 15 15 15 14
18 20 22 26 26 27 28 27 27 27 25 24 25 25 24 25 23 22 19 19 18 17 17 17 17 17 17 15 16 17 17 17 16 16 17 16 16 15 15 16 14 15 15 16 15 15 14 14 15
20 21 22 25 26 28 27 28 27 26 25 24 24 25 25 23 22 21 18 17 17 17 16 16 16 16 16 16 16 16 16 17 16 16 16 16 15 14 14 15 16 14 15 15 15 15 14 14 14
20 23 25 26 26 28 27 27 25 26 26 24 25 24 25 24 21 19 17 18 17 17 16 16 16 16 16 16 15 15 15 16 16 16 15 16 14 13 14 15 15 16 15 15 14 14 14 14 14
23 24 25 26 28 28 27 26 25 25 25 25 24 24 24 22 21 19 18 18 18 18 14 17 16 15 16 16 14 15 16 16 16 16 16 16 16 13 14 14 15 15 15 14 14 14 14 14 14
23 26 25 26 27 27 27 26 25 25 26 25 25 24 24 24 19 17 16 18 18 17 17 15 16 15 15 15 12 12 15 16 16 16 16 16 15 14 14 14 15 15 14 14 14 14 14 14 14
23 25 25 26 26 26 28 25 24 24 25 24 23 24 24 20 17 16 16 16 18 17 16 14 15 14 14 11 12 12 14 15 15 16 16 16 15 14 14 14 14 14 14 14 14 13 13 13 13
22 23 24 26 27 27 27 25 24 24 24 24 24 23 23 21 18 17 17 15 15 16 14 14 14 13 12 10 12 11 13 13 15 15 15 15 14 14 14 12 14 14 14 13 13 13 13 13 13
23 24 25 28 27 26 26 26 25 25 25 25 25 24 23 20 18 19 18 18 16 14 14 13 14 14 11 11 12 12 12 13 13 14 14 14 14 13 12 12 13 13 13 13 13 13 13 12 12
23 23 26 26 26 25 25 26 25 25 25 25 25 24 23 22 19 18 18 17 16 15 14 13 13 13 12 12 12 11 14 12 13 13 13 13 13 12 12 12 12 12 12 12 12 12 12 10 10
23 24 24 25 25 25 25 25 25 25 25 25 24 24 22 21 20 19 17 16 16 14 13 12 12 12 13 13 12 13 13 12 12 13 13 12 13 12 12 12 12 12 12 12 12 12 11 11 11
24 24 24 24 24 24 24 24 24 24 24 24 24 24 22 20 20 18 16 14 14 13 12 12 12 12 13 12 12 13 13 13 12 12 13 12 13 13 12 11 12 11 11 12 11 11 12 11 11
24 24 24 23 24 24 24 24 24 24 24 24 24 23 21 20 19 18 16 15 14 12 12 11 12 12 12 12 12 12 12 13 12 12 12 12 13 12 12 11 12 12 12 11 11 12 11 11 11
22 22 23 24 24 24 24 24 25 25 25 25 23 23 21 20 19 18 17 16 14 12 11 11 11 12 12 12 12 12 12 12 13 11 12 12 12 12 12 12 12 13 12 12 12 12 11 11 11
21 22 21 24 25 25 24 23 26 26 25 24 24 24 22 20 19 18 17 15 14 12 11 11 11 11 11 12 12 11 11 12 12 11 11 11 11 11 11 12 13 13 13 12 12 11 11 11 11
21 21 22 24 26 25 24 24 26 25 24 24 24 24 24 22 19 17 16 14 12 11 11 12 12 11 11 11 12 11 11 11 11 11 11 10 11 11 11 11 12 12 12 12 12 11 11 11 12
19 21 22 23 25 25 24 24 25 26 26 25 25 25 24 23 21 18 16 14 11 11 11 11 11 11 11 10 11 11 11 11 11 11 11 10 10 10 11 11 11 11 11 11 11 11 11 11 12
20 22 23 24 25 24 24 24 25 26 26 26 26 25 25 24 22 19 16 13 11 10 11 12 10 10 11 10 10 10 11 10 11 11 11 11 10 9 10 10 10 10 11 10 10 10 11 11 11
19 20 21 23 24 24 23 23 24 25 26 26 26 26 25 24 21 18 15 13 10 10 11 12 10 10 10 10 10 10 10 10 10 11 11 11 10 9 9 10 10 10 10 10 10 10 10 11 10
19 19 20 21 22 24 23 22 23 25 25 25 25 25 24 24 22 19 16 14 11 10 10 12 11 10 10 10 10 10 10 10 10 11 11 10 10 9 9 9 10 11 10 11 10 10 10 10 9
19 20 20 20 20 20 23 21 24 25 26 26 25 25 24 24 23 20 17 14 12 10 10 10 11 10 10 10 10 10 10 10 10 10 10 10 9 8 8 9 10 11 11 10 11 12 12 10 9
18 20 19 19 20 20 21 21 23 24 24 25 26 25 25 24 23 20 18 15 13 11 10 10 10 10 10 10 10 10 10 11 11 10 10 9 9 9 8 9 11 11 10 10 11 12 11 11 10
19 19 19 19 19 18 20 21 22 24 25 26 26 26 25 24 22 20 18 16 13 11 11 10 10 10 10 10 10 11 11 10 10 10 9 9 9 9 9 9 10 11 11 11 12 12 11 11 10
17 17 16 17 18 18 22 21 22 24 26 26 26 25 24 23 22 20 18 17 14 11 10 10 10 10 10 10 10 10 10 10 10 9 9 9 9 9 9 9 10 11 11 11 11 11 10 11 11
17 16 16 16 18 19 22 21 23 25 25 25 25 24 24 23 21 20 19 17 16 12 11 9 9 9 10 10 9 9 9 9 9 9 9 9 9 9 10 9 9 11 11 11 11 11 10 10 10
18 16 19 17 18 16 18 21 23 23 23 25 25 24 24 23 22 20 19 18 16 14 12 11 10 10 9 9 9 9 9 9 9 9 10 9 9 10 11 10 11 11 11 11 11 10 10 10 10
17 19 17 18 14 16 19 20 21 23 22 24 25 25 25 24 22 21 20 18 17 15 13 11 12 11 10 9 9 9 9 9 9 9 10 10 9 9 9 10 10 10 10 10 10 10 9 10 10
15 16 17 19 18 17 17 19 23 24 22 23 25 24 25 24 23 21 20 19 17 15 14 12 12 12 11 10 9 9 9 9 9 10 10 10 9 9 10 10 10 9 9 10 10 9 10 10 9
17 18 18 16 16 18 18 19 23 23 23 22 24 24 24 23 23 22 21 19 18 16 15 13 12 13 12 11 10 9 9 9 9 9 9 10 10 10 10 10 10 10 9 9 9 9 9 9 9

GFSSGP_850_temp_102.txt.gz
Temp
20 20 20 20 22 24 25 28 29 27 27 27 26 26 25 25 25 23 21 20 21 20 20 19 19 19 18 18 18 17 17 17 17 17 17 17 17 16 16 16 15 15 16 15 15 16 16 15 15
20 19 21 22 22 24 27 29 28 28 27 25 25 25 25 25 25 24 21 22 21 20 19 19 18 18 18 18 17 17 17 17 17 17 17 15 15 16 15 15 15 15 16 14 14 16 15 15 15
20 20 22 23 24 24 27 29 28 28 26 25 25 26 25 25 24 22 21 21 20 19 18 18 18 18 17 17 17 17 17 17 17 17 17 14 15 14 15 14 16 15 13 12 15 16 15 15 14
20 21 22 23 24 27 28 28 28 27 26 26 25 25 25 25 24 22 22 21 20 18 18 19 18 18 17 17 17 17 16 17 17 16 16 15 13 14 15 14 15 15 15 13 16 15 15 14 13
20 22 23 24 25 28 29 28 27 26 27 26 25 25 25 24 22 22 22 21 20 18 17 19 19 18 17 16 16 16 16 16 16 16 15 14 13 14 14 14 15 16 15 15 15 15 15 14 13
22 23 23 24 26 29 29 27 27 26 26 26 26 25 25 24 22 20 21 20 20 19 18 19 19 18 17 17 15 15 16 15 16 15 14 14 14 13 13 14 15 15 17 16 15 15 15 14 13
22 23 24 25 26 27 29 28 27 26 26 26 26 25 25 22 21 20 19 19 19 19 18 18 18 18 17 16 15 14 13 13 13 14 15 14 14 14 13 13 15 15 16 16 16 15 15 14 13
22 24 23 25 25 26 29 28 26 25 25 26 25 24 24 21 21 19 19 19 19 18 18 17 17 17 16 16 15 14 14 14 11 13 14 15 13 12 13 14 15 15 15 15 15 15 14 13 13
23 23 23 24 26 27 28 27 26 25 25 25 25 25 24 22 19 18 18 17 18 17 16 15 15 15 15 14 14 13 12 12 11 12 13 14 13 13 13 14 14 14 14 14 14 14 14 13 13
23 23 23 26 27 27 27 27 27 26 26 25 25 25 25 22 20 20 19 19 18 16 16 14 13 14 14 13 12 10 10 12 12 12 13 12 12 13 13 13 14 14 14 14 14 14 14 13 13
23 23 24 25 26 26 26 26 26 26 26 26 26 26 25 22 21 20 20 19 18 17 15 14 13 13 13 13 11 12 12 12 13 12 13 12 12 12 13 12 13 13 13 13 13 13 13 13 12
23 24 25 25 25 26 25 26 26 26 26 26 26 25 25 24 22 21 20 19 18 17 15 14 13 13 13 12 12 11 11 12 12 12 12 12 12 12 13 13 13 13 12 13 13 13 13 12 12
23 24 25 25 25 25 25 25 25 25 25 25 25 25 24 23 22 21 20 18 16 15 14 13 13 12 12 12 12 11 12 12 12 12 12 13 13 13 13 13 12 12 12 13 13 12 11 11 11
23 24 25 25 25 25 24 25 25 25 25 25 25 25 24 23 22 21 19 17 15 15 13 12 12 12 13 12 12 12 12 13 13 12 12 12 13 13 13 13 12 12 12 12 12 12 11 11 11
22 22 23 24 24 24 24 24 24 25 25 25 26 25 24 22 22 21 19 18 16 14 13 12 11 12 12 12 12 12 12 12 12 12 12 12 13 13 12 12 12 11 12 12 12 12 11 11 11
20 21 20 23 24 24 24 22 25 25 26 26 26 25 24 23 22 21 19 18 17 14 12 12 11 11 11 12 12 12 12 13 12 13 13 13 12 13 12 12 12 12 11 11 12 12 11 11 11
19 19 20 21 24 25 25 24 26 26 26 26 25 25 25 24 22 20 19 17 16 14 11 11 12 11 11 11 11 12 11 12 12 13 13 12 11 11 12 12 12 12 12 12 12 12 11 11 11
18 19 20 20 22 24 25 24 25 25 26 26 25 25 25 25 22 20 18 16 15 13 11 12 12 11 11 12 11 11 11 11 11 11 11 11 11 10 11 12 12 12 12 12 12 12 11 11 11
20 19 19 19 20 21 24 25 25 26 26 26 26 26 26 26 24 20 18 16 14 12 12 12 12 12 12 12 10 11 11 11 11 11 11 11 11 11 11 12 12 12 12 12 12 12 11 11 12
20 19 18 19 20 20 22 23 25 25 25 25 26 26 26 26 23 19 17 15 13 12 11 12 12 12 12 11 10 10 10 10 11 11 11 11 10 11 11 12 12 12 11 11 12 11 11 11 11
19 19 18 17 18 20 21 22 23 25 25 25 25 26 26 26 23 19 16 15 13 11 11 12 12 12 12 13 11 10 11 10 10 10 11 11 10 10 11 11 11 12 12 11 11 11 11 11 11
17 19 19 19 18 17 20 19 22 24 25 26 26 26 25 25 25 20 17 15 13 11 11 11 11 12 12 12 11 10 10 11 10 10 10 10 10 10 10 10 10 11 11 10 11 10 11 11 11
19 20 18 18 18 18 19 19 21 23 24 25 26 26 26 25 25 21 18 16 14 11 11 10 11 11 12 11 10 10 10 11 11 11 10 11 10 10 9 9 9 9 9 10 10 10 10 11 11
20 18 18 18 18 16 18 19 20 22 23 24 26 27 26 26 24 22 19 16 14 12 11 10 10 11 12 11 11 10 10 10 10 10 10 10 10 10 8 9 9 9 9 9 10 10 11 11 10
18 17 15 14 15 15 19 19 21 23 24 25 26 26 25 25 23 22 19 17 14 12 11 11 9 10 11 11 11 10 10 10 10 10 10 9 9 9 9 9 8 9 9 8 9 11 11 10 11
17 17 14 12 14 15 15 15 21 24 25 25 26 26 25 24 23 21 19 17 15 12 10 11 10 10 10 11 11 11 10 10 10 11 10 10 9 10 9 9 8 8 8 9 11 9 10 11 11
16 16 17 15 16 14 14 18 22 24 24 24 25 26 25 24 23 21 20 18 16 13 12 10 10 10 10 10 11 10 10 10 10 10 10 9 9 9 8 8 8 9 9 10 9 10 10 10 10
17 18 15 16 12 12 16 17 18 19 21 23 24 25 25 24 23 22 20 18 17 14 12 12 10 10 10 9 10 10 9 9 10 9 10 10 10 9 9 9 9 9 10 9 10 11 11 11 10
16 15 16 16 15 14 14 17 20 20 21 22 22 24 24 25 23 22 21 19 17 15 13 12 11 11 10 9 10 10 9 9 9 9 10 10 10 10 10 10 10 10 10 10 10 11 11 10 10
15 16 16 14 15 16 16 17 21 19 20 21 21 22 23 23 24 23 21 19 18 16 14 13 12 12 11 10 11 10 10 10 10 9 10 10 10 10 10 10 10 10 10 10 11 11 10 10 9

GFSSGP_850_temp_105.txt.gz
Temp
20 20 20 19 15 15 16 19 22 25 22 24 25 24 23 24 23 19 20 20 21 21 21 20 19 19 19 19 19 19 18 18 19 18 18 17 17 17 17 16 16 16 16 16 15 15 15 15 14
20 19 18 20 16 15 17 22 22 23 24 25 25 25 24 23 22 20 21 21 21 21 20 21 19 18 18 19 18 18 18 18 18 18 17 17 16 16 16 16 16 15 15 16 16 15 15 15 15
20 19 19 15 15 15 17 24 22 24 26 25 25 25 25 24 22 21 22 22 22 21 21 20 19 19 18 18 18 18 17 17 17 17 17 16 17 15 15 15 15 16 15 16 16 16 15 15 14
20 19 20 17 16 19 21 24 25 25 26 25 25 24 25 24 23 23 23 22 22 21 20 19 19 19 19 18 18 18 17 17 17 16 16 16 16 15 14 14 15 16 16 15 16 15 15 15 14
19 19 15 16 17 21 23 25 26 24 25 25 25 24 24 24 23 23 23 22 21 20 21 19 19 18 18 18 17 17 17 17 16 14 16 15 16 14 13 13 14 15 16 16 16 14 14 14 14
18 20 15 15 18 22 24 26 26 24 25 25 25 24 23 22 22 22 22 21 20 19 19 19 19 18 18 17 16 16 16 16 15 14 14 15 16 14 13 13 13 15 16 16 15 14 14 14 13
16 15 15 16 19 22 24 26 23 23 24 24 25 23 21 22 22 22 22 21 21 19 19 19 18 18 17 17 16 15 15 15 14 13 13 13 14 13 14 14 12 15 15 16 15 14 14 14 13
19 15 16 18 19 20 24 26 25 25 24 25 25 22 22 23 22 21 21 21 20 19 18 18 18 17 17 17 16 14 14 14 14 13 14 12 13 13 12 13 14 15 15 16 15 15 14 13 13
20 16 17 18 19 21 24 25 25 25 25 25 25 25 25 23 21 21 20 21 19 18 18 18 17 16 16 15 15 15 15 14 14 13 13 11 13 13 12 13 14 14 15 15 15 14 14 14 13
17 16 17 20 21 21 23 23 25 24 24 24 25 25 24 22 21 21 21 21 19 18 18 17 16 16 15 14 14 14 14 12 12 12 13 11 13 13 13 12 13 14 14 15 14 14 14 13 13
19 18 19 21 23 23 22 22 25 23 21 24 24 25 24 22 20 20 20 20 19 18 17 17 15 15 14 14 13 13 12 11 11 11 11 11 12 13 12 12 13 13 14 15 14 14 13 13 13
18 20 21 22 23 23 22 23 22 24 23 25 25 25 24 22 21 20 20 20 19 18 17 16 15 14 13 14 13 13 11 10 10 11 12 11 11 12 12 13 13 14 14 14 14 13 13 12 12
19 20 21 22 23 23 24 22 22 22 24 25 25 25 25 23 22 21 21 20 18 18 16 15 14 13 13 13 13 12 12 11 10 10 11 11 11 13 12 13 13 13 13 13 13 13 13 12 12
20 20 20 21 21 22 21 21 23 23 24 24 25 24 25 24 23 21 21 20 19 17 16 14 13 13 12 12 12 12 13 11 12 11 11 12 12 12 12 13 13 13 13 13 13 13 12 12 12
19 18 18 19 21 20 22 20 20 23 24 24 24 25 25 24 23 22 22 20 19 17 15 14 12 12 12 12 12 12 13 12 11 11 11 11 12 12 12 13 13 13 13 13 12 12 12 12 11
17 16 16 18 19 21 21 19 22 23 24 23 24 24 24 24 23 22 21 20 18 17 15 13 12 12 12 12 12 12 12 12 12 11 11 11 13 13 12 12 12 13 12 12 12 12 11 11 11
15 14 15 17 19 20 21 19 20 20 23 23 24 25 25 25 23 22 21 19 18 17 15 14 12 11 11 11 12 12 12 11 12 12 11 11 12 12 12 12 12 13 12 12 12 11 11 11 11
13 14 16 16 18 18 18 18 19 20 21 23 24 25 25 25 23 21 20 19 18 17 15 14 11 11 11 11 11 11 12 12 12 12 12 11 12 12 13 13 12 12 12 12 12 11 11 11 11
15 15 15 17 18 18 17 17 18 19 21 21 23 24 25 25 23 21 20 19 18 17 15 14 12 11 11 11 11 11 11 11 12 12 12 12 12 12 12 13 12 12 12 12 12 11 12 11 11
15 15 16 17 18 18 16 16 16 17 19 20 23 24 24 24 21 20 19 19 18 17 16 14 11 11 11 11 12 12 12 11 11 12 12 12 12 12 11 12 12 12 12 12 12 11 11 11 11
16 16 15 16 17 17 16 15 16 18 20 22 24 25 25 24 20 19 18 18 17 17 16 14 11 12 11 10 11 11 11 10 10 11 11 11 12 11 11 11 12 12 12 12 11 11 12 11 11
15 17 17 17 15 14 16 14 14 16 18 20 23 24 24 24 20 19 18 17 18 17 16 14 11 12 11 10 10 10 10 11 10 11 11 11 10 11 10 11 11 12 11 10 11 11 11 11 11
16 16 16 16 14 14 15 15 15 18 19 21 21 22 24 25 20 19 19 19 18 16 17 14 11 11 11 10 10 10 11 11 11 10 10 10 11 10 10 10 11 11 11 11 11 11 11 11 11
17 16 15 16 14 12 15 15 15 17 19 20 22 23 24 24 20 19 18 18 17 15 16 12 11 10 11 10 10 10 10 10 11 10 10 10 10 10 10 10 10 11 10 10 10 10 10 10 9
16 14 11 11 11 12 16 16 16 17 20 21 22 23 24 24 19 17 17 17 16 16 17 12 11 10 10 10 10 10 10 10 11 11 10 10 10 10 10 10 10 9 10 11 10 10 9 9 9
13 12 10 11 10 12 15 13 15 19 20 21 23 24 22 20 18 18 18 17 17 17 16 13 10 10 10 10 11 10 10 10 10 10 10 10 10 10 10 10 9 8 9 9 9 9 9 9 9
14 13 14 13 13 12 13 14 17 17 17 19 22 24 22 19 18 18 17 17 17 17 17 15 11 9 10 10 10 10 10 10 10 11 10 10 11 10 10 9 9 9 9 8 8 9 9 9 9
14 15 12 13 11 10 13 14 15 15 14 16 19 20 21 22 19 19 19 18 18 18 16 15 11 9 10 11 10 10 10 10 10 10 10 10 10 10 10 9 10 9 8 8 8 9 9 9 9
10 12 13 13 12 10 10 12 16 13 13 14 17 21 21 21 20 20 20 19 18 17 16 15 13 10 10 10 10 10 10 10 10 10 10 10 10 10 9 9 9 9 9 8 9 9 9 9 9
10 9 11 11 11 12 12 12 17 16 16 14 16 18 19 21 20 20 19 19 17 17 16 15 13 12 11 10 9 10 10 10 9 9 10 10 10 9 9 9 9 9 9 9 9 9 10 10 9

GFSSGP_850_temp_108.txt.gz
Temp
20 19 19 18 15 12 15 17 20 23 23 24 25 24 22 23 22 19 21 21 21 21 22 21 20 19 19 19 19 19 19 18 18 18 17 17 16 16 16 16 16 16 16 17 16 15 14 14 14
19 19 19 18 14 14 15 18 20 21 23 24 25 24 24 21 23 21 21 21 21 22 22 21 20 19 19 19 19 19 19 18 18 17 17 17 17 16 16 16 16 16 16 16 15 15 14 14 14
19 18 18 13 11 13 15 21 21 22 25 25 24 24 24 22 23 23 21 22 21 22 22 21 20 19 18 19 19 18 18 18 17 17 17 17 17 17 16 16 16 16 16 16 15 14 14 14 14
19 18 18 15 14 15 18 19 21 22 23 24 25 23 24 24 23 23 22 22 22 22 22 21 20 19 19 18 18 18 18 18 18 16 16 16 17 16 16 16 15 15 16 16 15 14 14 14 14
19 18 14 14 14 16 19 21 22 22 23 24 24 23 23 23 23 23 23 22 22 22 21 21 20 19 18 18 17 17 17 17 17 16 15 16 14 16 17 16 15 15 15 16 15 14 14 14 13
18 16 13 13 15 18 19 22 22 22 24 24 23 22 22 23 23 23 23 22 22 22 21 20 19 18 18 17 16 16 16 16 15 15 15 15 12 15 17 15 14 13 14 15 15 14 13 12 11
14 12 13 15 16 18 20 23 22 22 23 24 24 21 20 22 23 23 22 22 22 22 21 20 19 18 17 17 16 15 15 14 14 14 14 14 12 13 16 16 14 13 15 14 14 13 13 11 11
18 12 15 14 16 16 20 23 23 24 23 25 24 20 18 22 22 22 22 21 21 20 20 19 19 18 18 17 16 15 15 14 13 12 14 13 14 13 14 16 16 14 14 14 14 13 13 11 12
18 13 12 15 16 18 21 21 23 24 24 25 24 25 25 24 21 20 20 20 20 19 19 19 18 17 17 17 16 15 14 14 13 12 12 12 13 14 13 14 15 14 14 14 14 13 12 12 12
15 12 14 17 17 18 20 21 22 23 24 24 24 25 24 23 21 21 21 21 21 20 19 18 17 17 16 16 16 15 13 14 13 12 12 11 11 13 13 11 14 14 14 14 14 13 12 12 12
16 15 16 18 19 20 19 19 21 21 20 23 23 24 23 22 21 20 21 21 22 20 18 18 17 17 16 15 15 14 13 13 13 13 12 11 11 13 12 12 13 14 13 14 13 13 13 12 12
15 17 17 19 20 20 19 21 20 22 22 24 24 23 23 22 21 21 21 21 21 20 18 17 16 15 16 15 14 14 14 13 12 11 13 12 11 12 11 12 12 14 14 14 13 13 13 12 12
16 17 18 19 20 20 21 18 19 20 23 24 24 24 23 22 22 21 22 21 20 19 18 17 16 15 15 15 13 13 13 12 11 10 11 13 12 12 11 11 12 14 14 14 13 13 13 12 11
18 18 18 19 19 19 19 19 20 21 23 23 23 24 24 23 23 22 20 20 19 19 18 17 16 15 15 13 13 12 13 11 10 10 10 11 13 11 10 11 13 13 14 13 13 14 13 12 12
18 16 15 17 18 18 20 18 18 22 21 21 21 22 23 24 23 22 21 21 20 19 18 17 16 15 14 12 12 12 12 10 10 10 10 10 12 11 11 12 12 13 13 13 13 13 12 12 12
16 15 14 17 18 18 19 17 18 21 20 19 19 20 21 23 23 22 22 22 20 20 19 17 15 14 14 12 12 12 12 11 11 11 10 10 11 12 12 12 13 13 13 13 13 13 12 12 12
13 14 13 15 17 16 17 17 18 20 19 19 19 19 20 22 23 22 23 22 21 21 19 17 15 14 13 12 12 12 12 11 11 11 10 11 12 11 11 11 13 13 13 13 13 12 12 11 12
12 12 13 13 16 16 15 15 16 18 18 18 18 19 20 22 24 23 22 21 20 20 18 16 15 14 12 11 12 12 12 11 11 11 11 11 12 11 12 12 13 13 12 12 12 12 12 12 12
13 13 12 13 15 15 14 14 15 16 17 17 18 18 18 21 23 21 21 20 19 18 17 16 15 14 12 12 11 11 11 11 11 11 11 12 11 11 13 12 13 12 12 12 12 12 11 11 11
12 12 12 14 15 15 14 15 17 15 16 17 17 18 19 20 20 21 20 19 19 19 17 16 15 14 13 12 11 11 11 11 11 11 11 11 12 12 12 12 13 13 12 12 12 12 11 11 11
13 12 12 13 15 15 15 14 15 16 16 17 17 18 19 20 19 19 18 18 19 18 17 16 15 15 13 12 11 11 11 11 11 11 11 11 11 12 12 12 12 13 12 12 12 11 11 11 11
13 15 14 14 14 14 14 13 15 16 16 16 17 19 20 20 20 20 18 18 19 18 16 15 15 15 13 12 11 11 11 11 11 11 11 11 12 12 12 12 12 12 12 12 12 11 11 11 11
14 14 14 14 13 13 14 11 15 15 16 17 18 19 20 21 20 19 20 19 19 18 16 15 15 15 13 12 10 10 10 10 10 11 11 10 10 11 11 11 11 11 11 12 12 11 11 11 11
15 14 14 14 12 11 14 12 14 13 15 18 19 20 20 20 21 19 17 18 18 16 15 14 14 14 12 11 10 10 10 9 10 10 10 11 11 11 11 11 11 11 11 12 11 11 11 10 11
13 12 10 10 10 12 14 13 14 15 16 17 18 19 19 19 21 17 16 18 17 16 15 14 13 12 10 10 10 10 10 10 10 10 10 10 10 10 10 10 10 10 11 11 11 10 9 8 9
11 12 10 11 10 12 14 12 13 16 16 15 16 16 19 22 20 18 17 18 17 16 14 14 13 12 10 10 10 10 10 10 10 11 10 10 10 10 10 10 10 10 10 10 10 9 9 9 9
13 11 13 11 11 10 11 13 15 16 13 14 14 15 16 17 18 15 15 17 17 15 16 15 14 12 10 10 10 10 11 11 11 10 10 10 10 10 10 10 9 10 10 11 10 9 9 9 9
13 12 12 10 10 10 11 11 12 13 12 13 13 13 14 17 15 13 17 18 17 16 16 14 14 14 13 10 9 10 10 10 11 10 10 10 10 10 10 10 10 10 9 8 8 8 8 8 9
9 10 9 10 10 11 10 10 11 11 11 11 10 12 13 14 16 15 14 17 17 16 16 16 14 13 13 9 10 10 10 10 10 11 10 10 10 10 9 9 9 9 9 9 10 9 8 8 9
11 9 9 7 8 8 10 11 15 12 13 11 9 10 13 16 17 17 15 12 17 17 16 16 15 13 14 14 10 10 10 10 10 10 10 10 10 10 10 10 9 10 10 10 9 8 8 9 9

GFSSGP_850_temp_111.txt.gz
Temp
19 19 18 18 15 11 14 15 17 20 22 23 24 22 21 22 21 19 22 22 22 22 22 22 21 19 19 19 18 18 18 18 17 17 17 17 17 17 17 16 16 16 16 16 16 15 15 14 15
19 19 18 17 13 13 15 16 18 18 22 24 24 23 22 21 22 22 22 22 21 21 21 22 21 19 19 19 18 18 18 18 17 16 16 16 16 16 16 16 16 16 16 16 15 15 14 14 14
18 18 18 12 10 13 15 18 21 21 23 22 23 23 23 22 23 23 23 22 22 21 21 21 21 20 19 18 18 18 18 18 17 17 16 16 16 16 15 15 16 16 15 16 15 14 14 14 13
18 18 16 13 13 14 16 19 19 19 23 23 23 23 23 24 24 24 23 22 22 22 22 21 20 20 19 18 18 18 18 18 18 16 16 16 15 15 15 15 16 15 15 15 14 14 14 13 13
18 17 13 13 13 15 16 19 20 19 21 23 23 23 23 23 23 24 23 23 23 22 22 21 20 19 19 18 17 18 17 17 17 16 16 16 15 15 14 15 15 15 15 13 14 14 14 14 14
17 15 11 12 13 16 17 20 20 20 21 23 22 21 22 23 23 23 23 23 23 22 22 21 20 19 19 18 17 17 17 17 16 15 14 15 16 14 13 14 13 15 14 14 14 14 14 14 13
13 10 12 13 13 15 19 22 20 19 22 23 24 19 22 23 23 23 23 22 22 21 21 21 20 19 18 17 16 16 16 16 15 14 13 15 13 14 15 13 13 15 12 13 14 14 13 13 12
17 11 12 13 15 16 19 20 22 22 21 23 23 18 20 24 22 22 22 22 21 21 21 20 19 19 18 17 17 16 15 15 14 14 14 14 14 13 14 12 12 15 14 13 13 13 12 12 13
16 11 11 14 14 16 19 18 21 21 22 23 23 23 24 23 22 21 20 20 20 20 20 20 19 18 18 17 17 16 16 14 13 13 13 14 14 14 13 12 13 12 14 14 13 12 12 12 12
13 10 12 14 15 16 18 18 19 19 20 21 22 24 24 23 22 21 21 21 21 21 20 20 18 18 17 17 16 16 16 14 13 13 12 13 14 13 12 13 14 12 14 13 12 12 11 11 13
14 14 13 16 18 18 17 17 19 19 17 20 21 23 23 23 22 21 21 21 22 22 20 20 18 17 17 16 16 15 15 14 13 13 12 12 13 13 12 13 13 12 13 12 12 11 12 12 13
14 15 16 17 18 18 15 19 17 19 19 22 22 22 22 22 22 22 21 21 21 21 20 19 18 16 16 15 15 15 15 14 13 12 12 12 12 12 13 13 14 12 13 12 12 11 12 12 12
14 15 17 18 18 18 18 16 18 18 21 22 22 21 21 21 21 22 22 22 21 21 20 19 17 16 15 15 15 15 14 13 13 12 12 12 11 11 12 13 14 12 13 12 12 12 12 11 11
16 16 16 17 17 18 17 17 17 19 21 21 21 21 20 19 20 21 21 21 21 21 21 19 18 16 15 15 14 14 13 13 13 12 11 11 11 11 12 11 13 12 13 12 12 11 11 11 11
16 15 14 15 17 16 18 17 15 20 20 19 20 21 21 21 20 20 21 22 22 21 21 19 18 16 15 14 14 13 13 13 12 12 11 11 11 11 11 12 13 12 13 13 12 11 11 11 11
15 15 14 16 16 17 17 17 18 20 20 19 20 20 20 20 21 21 20 21 22 21 20 19 17 15 14 14 13 12 13 13 12 11 11 11 11 11 10 12 13 12 13 13 12 11 11 11 12
12 13 13 14 16 16 15 15 17 19 18 17 19 19 19 20 21 21 20 21 22 21 19 18 16 15 15 13 12 12 12 12 12 11 10 10 11 11 11 12 13 12 12 12 12 12 11 11 12
12 11 12 13 15 15 13 13 14 17 17 16 17 19 19 19 20 21 20 20 21 21 19 17 16 15 14 13 12 12 12 12 12 10 10 10 11 11 11 12 12 12 12 12 12 12 11 12 12
13 12 11 12 13 14 13 13 14 15 15 14 17 18 18 19 20 20 20 22 18 19 18 17 16 15 14 13 12 12 12 12 11 11 11 10 10 10 11 12 12 12 13 13 12 12 12 11 11
11 11 11 12 13 12 12 13 15 13 14 16 17 18 18 18 18 19 20 19 21 18 17 16 16 15 14 13 12 12 12 12 11 11 11 11 11 11 11 12 12 12 12 12 12 12 11 11 11
11 11 11 11 13 13 12 13 14 14 14 16 17 18 18 18 17 20 19 18 18 18 17 17 17 16 14 12 12 11 11 11 11 11 11 11 11 11 11 12 12 11 12 12 12 12 12 11 11
11 12 12 12 11 11 13 13 15 14 14 15 16 17 17 18 19 20 19 18 19 17 18 17 17 16 14 12 11 12 12 11 11 11 11 11 11 11 11 11 12 12 12 12 12 12 12 12 11
13 13 12 12 12 12 12 10 14 13 15 15 15 17 18 18 20 20 20 20 19 16 17 17 17 16 14 12 11 11 11 11 11 11 11 11 10 11 11 11 11 11 12 12 12 11 11 11 12
14 13 13 12 10 10 13 11 14 12 14 15 16 17 16 15 17 19 19 17 17 15 15 16 16 16 13 11 11 11 12 11 11 11 11 11 11 11 11 11 11 11 12 12 12 11 11 11 11
12 11 9 9 9 11 12 11 13 13 14 14 13 14 14 14 15 18 19 18 17 16 15 15 16 15 12 11 10 11 11 10 11 10 10 11 11 11 11 10 11 11 11 11 11 11 11 11 11
10 10 9 10 9 11 12 10 12 15 14 13 13 13 13 12 14 15 16 19 17 16 15 15 16 15 11 10 10 9 10 10 10 9 10 10 10 10 11 11 10 10 11 11 10 10 11 10 10
12 10 12 10 10 10 10 11 13 13 12 12 12 11 11 11 11 13 14 13 15 16 16 15 16 15 11 10 10 10 10 10 10 10 10 11 10 10 10 11 11 10 10 10 10 9 10 10 8
11 11 10 8 9 10 10 10 10 12 11 11 10 10 10 12 10 11 13 12 12 14 16 15 15 15 12 10 10 9 10 9 10 10 10 10 10 10 10 10 10 10 10 10 10 10 10 9 9
9 8 7 8 8 9 9 9 11 11 11 9 9 9 8 10 10 10 12 12 11 12 12 15 14 14 12 11 10 10 9 10 9 10 10 10 10 10 9 10 10 10 10 10 10 10 9 9 8
9 7 7 7 7 7 7 7 10 10 10 10 9 10 9 9 10 11 12 13 12 11 10 12 13 13 12 12 11 10 10 10 9 10 10 10 9 10 10 10 9 10 10 10 10 10 9 8 9

GFSSGP_850_temp_114.txt.gz
Temp
18 18 18 18 14 11 14 16 16 19 20 21 22 21 20 22 19 18 23 22 22 22 22 21 21 20 19 18 19 18 18 17 17 17 17 17 17 17 17 17 16 16 16 16 16 15 15 15 15
19 18 18 17 12 13 14 15 18 18 21 22 22 22 22 22 22 23 22 22 22 22 21 21 21 20 19 19 18 18 18 17 17 17 17 17 17 17 17 16 16 16 16 15 15 15 14 14 14
19 18 17 10 9 12 15 16 19 19 20 22 21 22 23 23 23 23 23 23 22 22 21 21 21 20 18 18 18 18 18 17 17 17 17 17 17 16 16 16 16 16 14 14 14 14 14 14 14
18 18 16 12 12 13 15 18 17 18 22 22 22 21 23 24 24 24 23 22 22 23 22 21 20 20 18 18 18 18 18 17 17 16 16 16 16 16 16 15 15 15 15 13 13 13 14 14 14
18 17 12 12 12 13 14 17 19 18 19 21 22 21 22 24 24 24 23 23 23 23 22 21 20 20 19 18 18 18 17 17 16 16 15 15 14 15 15 14 14 14 13 13 13 12 13 13 14
16 14 11 12 12 14 16 19 19 19 19 19 20 21 23 24 24 24 23 23 22 22 22 21 19 19 19 17 17 17 17 17 16 15 15 15 15 14 13 14 14 13 13 13 12 12 13 13 13
12 10 11 12 12 14 16 20 19 19 20 21 22 21 23 24 23 23 23 22 21 21 21 21 20 18 18 18 17 17 17 16 16 15 15 15 15 14 15 15 13 14 13 12 11 13 13 13 13
16 11 11 12 13 14 18 20 20 20 19 21 21 20 21 22 23 23 23 21 20 20 21 20 20 18 18 17 17 16 16 15 15 15 15 14 14 14 15 16 13 13 13 12 12 14 13 13 13
15 10 9 14 13 15 18 17 19 20 20 20 21 21 22 22 23 23 22 21 21 20 20 20 19 19 18 17 17 16 15 14 14 14 14 14 13 14 15 15 13 14 12 11 12 13 13 12 12
12 9 10 13 13 16 17 17 18 18 18 19 20 22 22 22 22 22 22 21 21 21 21 20 20 19 18 17 17 16 15 14 14 13 13 13 13 14 14 14 13 13 12 11 12 12 13 12 12
13 11 12 14 16 18 15 16 18 17 15 19 20 21 21 21 21 22 22 22 22 22 21 20 20 19 18 17 17 16 15 14 14 13 13 13 13 13 14 14 12 13 12 11 11 11 12 11 12
13 13 15 16 18 17 14 17 16 17 18 20 21 21 21 21 21 22 22 22 22 21 21 20 19 19 18 17 16 16 15 14 13 13 13 12 12 12 13 13 12 12 12 12 11 11 11 11 11
12 14 16 17 18 17 17 15 16 16 19 20 20 21 21 21 21 21 21 21 21 21 21 20 19 19 18 17 16 15 15 14 12 12 12 12 12 12 13 13 12 12 13 13 11 10 11 11 11
15 15 15 16 16 16 16 15 16 18 19 19 20 20 20 19 20 19 20 20 21 21 21 20 19 18 18 17 16 15 14 14 12 11 12 12 11 11 11 12 12 12 13 14 12 11 11 11 11
15 14 14 14 15 15 17 14 14 19 19 18 19 19 19 20 19 19 20 20 20 21 21 20 19 18 17 16 15 14 14 13 12 12 12 11 11 11 11 11 12 13 13 13 11 11 11 11 11
14 14 13 15 14 16 16 15 17 19 18 18 19 19 19 19 20 20 20 20 21 21 21 20 19 18 17 16 15 14 14 12 12 12 12 11 11 11 10 11 11 12 12 12 11 11 10 11 11
11 12 12 14 15 16 15 15 15 17 17 16 17 18 18 19 20 20 20 20 21 21 21 20 19 18 17 16 15 13 13 12 12 12 11 11 11 11 11 11 10 12 12 12 11 11 10 11 11
12 11 11 13 15 14 13 12 12 15 15 15 16 17 18 19 19 20 19 20 21 21 20 20 18 18 17 15 14 13 12 11 11 11 11 11 10 11 10 10 11 12 12 12 12 11 10 11 10
13 11 11 12 13 13 13 12 11 13 13 13 16 17 18 19 19 19 19 19 20 21 19 19 18 18 16 15 14 13 11 11 11 11 12 11 10 10 11 11 11 12 11 12 12 11 11 10 10
11 11 11 12 12 12 10 11 12 13 13 15 16 17 18 18 19 19 19 19 21 20 19 19 18 18 16 16 14 13 12 12 11 11 11 10 10 10 10 11 11 11 12 12 12 11 10 10 10
10 9 10 11 12 11 11 12 13 13 13 16 17 17 18 18 18 19 19 19 20 20 18 17 17 18 16 15 13 13 12 11 11 11 10 10 10 11 11 10 10 11 12 12 12 11 11 10 10
11 11 12 12 10 10 13 10 14 14 14 14 16 17 17 16 16 17 18 18 20 19 17 15 16 17 15 14 12 13 12 11 11 11 11 11 10 11 10 11 11 12 12 12 13 12 11 11 11
10 11 11 11 10 10 10 10 11 14 14 14 13 16 15 14 14 15 15 17 17 18 17 16 16 16 14 13 12 13 12 11 12 11 11 12 11 10 10 11 11 11 11 12 12 12 12 11 11
13 12 12 10 9 8 10 10 13 12 14 13 14 14 13 13 12 12 14 15 18 17 17 15 15 15 14 12 12 13 12 11 11 11 11 11 11 11 10 10 11 11 11 12 12 12 12 11 11
11 10 10 10 9 9 11 10 13 13 13 13 11 12 13 12 12 12 12 13 13 14 16 14 15 14 14 12 11 12 11 10 11 11 11 11 11 11 10 11 11 11 11 11 11 12 12 12 11
9 10 9 10 9 10 11 9 11 13 12 12 12 11 11 12 12 13 11 13 12 13 14 13 14 14 13 12 11 12 11 10 10 10 11 11 11 11 11 10 10 11 11 11 11 11 11 11 11
11 10 11 10 10 9 9 10 12 12 10 10 10 11 11 13 13 13 13 11 11 11 12 12 13 13 13 12 10 10 10 9 9 9 10 10 10 10 10 11 11 11 10 11 11 10 11 11 10
11 10 10 8 9 10 9 10 10 10 10 9 9 9 10 12 12 12 13 11 10 11 10 10 11 11 13 12 10 10 9 9 9 9 10 9 10 10 10 10 10 10 11 10 10 10 10 10 9
9 8 8 8 8 8 8 9 10 8 9 9 8 10 10 11 11 10 12 12 10 11 10 10 10 11 11 10 9 9 9 9 9 9 9 9 10 10 10 10 10 10 10 10 10 10 10 9 9
8 7 7 7 6 6 7 7 10 8 9 9 9 10 10 10 9 10 11 10 10 10 10 10 10 11 11 10 9 9 9 9 10 9 10 10 9 10 10 10 10 10 10 10 10 10 10 9 9

GFSSGP_850_temp_117.txt.gz
Temp
18 18 18 18 19 18 20 21 18 20 21 20 21 21 23 22 21 23 23 23 23 23 23 22 22 22 20 19 19 18 17 18 18 17 17 17 18 18 17 17 17 16 16 16 16 16 15 15 15
18 18 18 17 19 20 22 18 20 21 21 20 21 21 21 23 22 23 23 23 23 23 22 22 21 21 20 19 18 18 17 18 18 17 17 17 17 17 16 16 16 16 15 14 14 15 15 15 15
18 18 18 18 16 21 22 19 21 21 20 20 22 22 22 23 23 24 24 23 23 22 22 22 21 21 19 18 18 18 18 18 17 17 17 17 17 17 16 16 16 16 16 14 15 14 15 15 15
18 18 15 18 19 18 19 21 19 20 20 21 22 23 22 24 24 24 24 23 23 22 22 22 22 21 19 18 17 18 18 18 18 17 17 16 16 15 15 14 15 15 14 14 14 14 14 14 14
18 17 18 17 17 17 17 18 18 21 20 20 21 22 23 24 24 24 23 23 23 22 22 21 21 21 20 18 17 18 18 17 17 17 17 17 16 14 15 13 14 14 14 14 14 14 14 14 13
17 15 18 19 18 17 18 18 19 20 19 19 19 20 23 24 24 24 23 23 23 22 22 21 21 21 20 18 17 17 17 17 17 16 16 16 16 14 16 14 14 15 14 14 13 13 14 13 13
17 17 18 17 17 17 18 18 19 20 20 21 20 21 22 22 23 23 23 23 22 21 21 20 20 20 20 19 18 16 16 16 16 16 16 15 16 15 17 14 15 13 13 14 13 13 13 12 12
17 17 15 16 19 19 19 19 20 20 20 20 20 21 22 22 23 22 22 22 22 21 21 20 20 19 19 19 19 17 16 15 15 15 15 15 15 15 15 14 14 14 16 13 13 12 13 12 12
15 17 16 18 17 19 18 19 19 19 19 19 20 21 21 21 22 22 22 22 21 21 20 20 19 19 19 18 18 18 16 15 15 14 14 14 14 14 14 14 14 14 16 14 13 12 12 11 12
16 16 16 17 18 18 18 18 18 18 18 19 19 20 21 21 21 22 22 22 22 21 21 20 19 19 18 18 18 17 17 15 14 14 14 14 14 14 14 14 13 15 15 14 13 11 11 11 12
14 16 14 16 16 16 17 17 17 19 19 19 19 20 20 21 21 22 22 22 22 22 21 21 20 19 18 18 18 17 17 15 14 14 13 13 13 13 13 13 12 14 14 14 13 11 11 11 12
14 14 16 16 17 16 17 17 18 17 18 19 20 20 20 20 21 22 22 21 21 21 20 20 19 19 19 18 17 17 16 13 13 13 13 13 13 13 13 13 13 13 13 13 12 12 11 11 12
13 15 15 15 16 16 16 17 17 16 18 19 19 20 20 20 21 21 21 21 20 20 20 20 19 18 18 17 17 16 16 15 13 13 13 13 12 12 13 12 13 13 12 12 12 12 11 11 11
15 14 15 16 16 16 16 17 16 18 18 18 19 19 19 19 20 20 20 20 20 21 21 20 19 18 18 18 17 16 16 15 13 13 13 12 12 12 12 12 12 12 12 12 12 13 10 11 11
15 15 16 15 15 16 16 16 16 18 18 17 17 18 19 19 19 19 19 20 20 21 20 20 20 18 18 17 17 16 15 15 14 13 12 12 12 12 11 12 11 11 12 12 11 12 10 10 11
15 15 15 16 16 16 16 17 19 18 17 17 17 18 18 19 19 19 20 19 20 20 20 20 20 20 17 17 17 16 15 15 14 13 13 11 11 11 11 11 11 11 12 12 12 12 10 10 11
13 14 14 15 16 16 16 17 18 16 15 16 17 18 18 19 19 19 19 19 19 19 19 21 20 20 18 16 17 16 15 14 13 13 13 12 11 11 11 11 11 11 12 11 12 12 11 10 11
13 13 13 15 16 15 16 15 16 15 15 15 15 17 18 18 19 19 18 19 19 19 19 20 20 19 18 16 16 15 14 14 13 12 12 12 11 11 10 11 11 11 11 11 12 11 10 11 11
14 13 14 13 15 15 16 15 16 15 14 14 15 16 17 18 18 18 18 18 18 19 19 20 20 18 17 16 16 15 15 14 13 12 12 11 11 10 11 11 11 11 10 11 11 11 11 10 10
13 13 13 13 14 13 14 15 15 15 15 15 16 16 17 16 17 17 17 18 18 18 18 17 18 17 16 16 16 16 16 14 12 12 11 11 11 10 10 11 11 11 10 10 11 11 10 10 10
12 12 13 13 13 13 13 15 15 15 14 15 16 17 16 15 14 16 17 17 18 19 17 16 16 15 15 15 15 15 14 13 12 11 11 11 11 10 10 10 11 11 10 10 11 11 10 10 10
12 12 13 12 12 13 14 14 15 15 15 15 15 14 14 13 14 14 15 16 16 18 17 16 15 14 15 15 15 15 16 12 11 11 11 11 10 11 10 10 10 11 10 11 11 12 11 12 11
13 12 12 13 12 12 13 13 14 14 16 16 15 14 13 12 12 13 14 14 16 17 16 15 14 14 14 15 15 15 15 12 11 11 11 10 10 10 10 10 11 10 10 11 11 11 10 11 11
13 12 12 11 12 11 13 14 14 15 15 15 15 14 12 12 13 13 13 14 15 15 14 14 13 13 13 14 15 15 15 12 12 11 11 10 10 10 10 10 10 10 10 11 11 12 12 11 11
13 12 11 10 10 12 12 12 14 14 14 13 13 12 11 11 11 11 11 12 13 14 12 12 13 12 13 13 13 14 14 12 12 12 11 11 10 10 10 10 10 10 10 11 11 11 12 12 11
12 12 12 12 12 13 11 13 14 12 12 11 11 11 11 11 11 11 10 11 11 11 12 11 11 11 12 13 12 12 12 11 11 11 11 10 11 11 11 11 11 10 10 11 11 11 11 11 11
10 10 13 12 11 11 12 12 13 12 12 12 12 11 11 10 10 10 10 9 11 12 11 10 9 11 11 12 12 12 11 10 10 11 10 10 11 10 11 11 11 11 11 11 11 10 11 11 11
11 11 11 11 11 11 11 12 12 11 11 12 12 12 11 11 10 9 9 9 10 12 12 10 10 9 11 11 12 11 10 10 10 10 10 10 10 10 11 10 11 11 10 11 11 10 10 11 11
10 10 9 10 9 12 11 12 11 10 11 11 12 12 11 10 9 9 9 10 9 10 10 11 10 9 10 11 12 11 9 9 9 9 9 9 10 10 10 10 10 10 11 10 10 10 10 10 11
8 7 8 10 9 8 9 11 12 10 10 11 11 11 10 10 9 9 9 12 10 9 9 10 10 9 10 10 11 10 9 9 9 9 9 9 9 9 10 10 10 10 10 10 11 10 10 10 9

GFSSGP_850_temp_120.txt.gz
Temp
18 19 18 20 25 25 27 27 26 26 26 25 25 25 27 26 26 26 24 22 23 22 23 23 22 22 22 20 19 18 18 18 18 17 17 17 17 17 17 16 15 15 15 15 15 15 15 15 15
18 18 18 22 25 27 28 27 26 26 25 23 24 24 25 27 24 24 23 24 23 23 23 23 22 22 22 20 19 18 18 18 18 17 17 17 17 17 16 16 15 15 15 15 15 15 15 15 15
18 18 22 25 26 27 28 27 27 25 24 23 25 25 26 26 24 24 23 24 23 23 23 23 22 21 21 20 19 18 18 18 18 18 17 17 17 16 16 15 15 15 15 15 15 15 15 15 15
17 19 20 23 26 27 26 27 25 25 24 24 25 26 24 25 24 23 23 24 23 23 23 22 22 21 21 20 20 19 18 18 18 18 17 17 16 16 14 14 14 14 15 15 15 14 14 14 14
18 21 24 24 26 26 25 25 24 25 24 24 24 26 26 24 23 24 24 24 23 23 23 22 22 21 21 20 20 19 18 18 18 18 17 17 15 16 16 15 15 14 13 14 14 14 14 14 14
21 21 23 25 26 25 25 24 23 24 23 23 23 24 25 23 23 22 24 23 23 23 23 22 21 21 20 19 19 18 18 18 17 17 17 16 16 16 16 16 16 17 13 15 14 14 14 14 13
21 23 24 25 25 25 24 23 23 25 24 23 23 24 25 24 22 23 23 23 23 22 22 22 21 21 19 19 18 18 17 17 17 17 16 16 16 16 16 16 16 15 14 15 14 14 14 13 13
20 23 23 24 24 25 25 23 23 24 25 22 22 25 25 23 22 23 23 22 22 22 22 21 21 20 20 19 18 17 17 17 17 16 16 16 16 15 15 16 15 15 15 15 15 13 13 13 12
18 21 22 24 23 25 23 23 22 22 22 22 22 22 22 21 21 21 22 22 22 21 21 21 21 20 20 19 18 17 16 16 16 16 15 15 15 15 15 15 15 15 15 15 15 14 13 12 12
20 21 22 25 24 24 23 22 22 22 23 23 22 22 21 21 21 21 21 21 19 20 21 20 21 20 19 19 18 17 16 15 15 15 15 14 13 13 13 12 14 14 14 14 13 14 14 11 11
19 21 23 21 21 22 22 22 22 22 23 23 23 23 22 21 21 21 21 21 21 19 17 19 20 20 19 19 18 17 16 14 14 13 13 14 13 13 12 12 13 13 13 12 12 12 13 11 11
18 20 20 21 20 20 22 21 22 21 22 22 22 21 21 20 21 21 21 21 20 19 18 17 20 20 19 19 18 18 16 15 15 14 13 14 13 12 12 12 13 12 12 12 12 12 12 11 11
18 19 20 19 19 19 20 21 21 21 21 20 21 20 20 20 20 20 20 20 19 20 18 19 19 20 19 19 18 17 17 15 14 15 14 14 13 12 12 13 13 13 13 12 11 11 11 11 10
20 18 19 19 19 19 19 20 20 21 20 20 19 20 20 20 20 20 20 20 20 20 19 18 20 19 19 18 18 18 17 16 15 16 15 14 13 13 13 13 12 13 12 11 11 11 11 11 10
18 18 20 20 19 20 19 20 20 20 20 21 20 19 19 19 20 20 20 20 20 20 20 18 19 20 19 18 18 17 17 16 15 15 15 13 13 13 12 12 12 12 11 11 11 10 11 11 10
17 19 18 21 21 20 20 20 22 21 20 20 19 20 19 20 20 20 20 20 20 19 19 19 18 19 19 17 15 17 17 16 15 15 15 13 12 12 12 12 12 12 11 10 11 10 10 11 10
18 17 19 20 20 21 20 21 22 21 19 20 20 20 20 20 19 20 19 19 19 18 18 18 18 19 19 17 14 13 16 16 15 14 13 13 13 12 11 12 11 11 11 10 11 10 10 10 11
17 18 18 19 21 20 20 20 22 20 20 20 20 19 19 19 19 20 19 18 17 17 18 19 19 19 16 14 13 13 15 16 15 15 14 13 12 11 11 11 11 11 10 10 10 11 10 11 12
17 18 18 20 19 19 19 20 21 21 20 20 19 20 20 20 19 19 18 17 16 16 17 18 18 18 15 14 13 13 15 15 15 14 14 14 13 11 11 11 11 11 11 10 10 11 11 11 11
16 16 17 18 18 17 18 19 21 21 20 20 20 20 20 19 19 18 17 16 15 15 17 17 15 15 13 13 12 12 14 15 15 15 14 14 12 12 11 11 10 11 11 10 10 10 11 11 10
15 15 16 16 17 17 17 18 19 21 20 19 19 19 18 18 17 17 16 15 15 15 14 14 14 13 13 12 12 12 14 14 14 14 14 13 11 11 11 11 10 11 11 10 10 10 10 11 10
14 16 16 15 14 15 19 17 19 19 19 19 19 18 18 17 16 16 15 15 15 14 13 13 13 15 14 11 12 12 14 15 16 16 15 11 11 11 11 10 10 10 10 10 10 10 10 11 10
14 15 14 13 15 15 17 16 19 19 19 19 19 17 16 15 15 15 15 15 15 13 14 12 12 16 12 12 12 12 12 12 13 15 14 11 11 11 10 10 10 10 10 10 10 9 9 10 10
15 14 14 14 15 14 16 17 19 19 19 18 18 16 15 15 15 15 15 14 14 13 12 14 13 12 12 12 13 12 12 12 11 12 11 11 11 11 11 10 10 10 10 10 10 10 9 10 10
13 12 12 11 12 13 18 16 18 19 18 17 16 15 15 14 14 14 14 14 13 13 12 11 12 11 12 12 12 12 12 11 11 11 11 11 11 11 11 10 10 10 10 10 10 9 9 10 10
12 13 12 11 13 15 16 15 17 16 15 15 14 14 14 14 14 14 13 13 12 12 12 12 11 10 11 11 12 12 13 13 12 11 11 11 11 11 11 10 10 10 10 10 10 10 10 10 10
11 11 14 13 13 13 16 15 14 15 15 15 15 15 14 14 13 13 13 13 12 11 10 11 11 10 10 11 11 12 12 11 11 11 11 11 12 11 10 10 10 10 9 10 10 10 10 10 10
11 13 12 12 11 12 15 15 16 14 14 15 15 15 14 14 14 13 13 12 12 11 10 11 10 10 10 11 11 11 12 11 10 11 11 11 11 10 11 10 10 10 10 9 9 10 10 10 11
7 10 10 12 13 13 14 16 17 15 14 14 14 14 14 14 13 13 12 12 12 11 10 11 10 10 10 10 10 11 11 10 10 11 10 11 11 11 11 10 10 10 10 10 10 10 10 10 10
8 6 6 9 11 13 14 14 16 14 14 14 14 13 13 13 13 12 12 12 11 10 9 10 10 9 9 9 10 10 11 10 9 10 10 10 10 10 10 10 10 10 10 10 10 10 9 10 8